﻿<?xml version="1.0" encoding="utf-8"?><gpx creator="Garmin Desktop App" version="1.1" xsi:schemaLocation="http://www.topografix.com/GPX/1/1 http://www.topografix.com/GPX/1/1/gpx.xsd http://www.garmin.com/xmlschemas/WaypointExtension/v1 http://www8.garmin.com/xmlschemas/WaypointExtensionv1.xsd http://www.garmin.com/xmlschemas/TrackPointExtension/v1 http://www.garmin.com/xmlschemas/TrackPointExtensionv1.xsd http://www.garmin.com/xmlschemas/GpxExtensions/v3 http://www8.garmin.com/xmlschemas/GpxExtensionsv3.xsd http://www.garmin.com/xmlschemas/ActivityExtension/v1 http://www8.garmin.com/xmlschemas/ActivityExtensionv1.xsd http://www.garmin.com/xmlschemas/AdventuresExtensions/v1 http://www8.garmin.com/xmlschemas/AdventuresExtensionv1.xsd http://www.garmin.com/xmlschemas/PressureExtension/v1 http://www.garmin.com/xmlschemas/PressureExtensionv1.xsd http://www.garmin.com/xmlschemas/TripExtensions/v1 http://www.garmin.com/xmlschemas/TripExtensionsv1.xsd http://www.garmin.com/xmlschemas/TripMetaDataExtensions/v1 http://www.garmin.com/xmlschemas/TripMetaDataExtensionsv1.xsd http://www.garmin.com/xmlschemas/ViaPointTransportationModeExtensions/v1 http://www.garmin.com/xmlschemas/ViaPointTransportationModeExtensionsv1.xsd http://www.garmin.com/xmlschemas/CreationTimeExtension/v1 http://www.garmin.com/xmlschemas/CreationTimeExtensionsv1.xsd http://www.garmin.com/xmlschemas/AccelerationExtension/v1 http://www.garmin.com/xmlschemas/AccelerationExtensionv1.xsd http://www.garmin.com/xmlschemas/PowerExtension/v1 http://www.garmin.com/xmlschemas/PowerExtensionv1.xsd http://www.garmin.com/xmlschemas/VideoExtension/v1 http://www.garmin.com/xmlschemas/VideoExtensionv1.xsd" xmlns="http://www.topografix.com/GPX/1/1" xmlns:xsi="http://www.w3.org/2001/XMLSchema-instance" xmlns:wptx1="http://www.garmin.com/xmlschemas/WaypointExtension/v1" xmlns:gpxtrx="http://www.garmin.com/xmlschemas/GpxExtensions/v3" xmlns:gpxtpx="http://www.garmin.com/xmlschemas/TrackPointExtension/v1" xmlns:gpxx="http://www.garmin.com/xmlschemas/GpxExtensions/v3" xmlns:trp="http://www.garmin.com/xmlschemas/TripExtensions/v1" xmlns:adv="http://www.garmin.com/xmlschemas/AdventuresExtensions/v1" xmlns:prs="http://www.garmin.com/xmlschemas/PressureExtension/v1" xmlns:tmd="http://www.garmin.com/xmlschemas/TripMetaDataExtensions/v1" xmlns:vptm="http://www.garmin.com/xmlschemas/ViaPointTransportationModeExtensions/v1" xmlns:ctx="http://www.garmin.com/xmlschemas/CreationTimeExtension/v1" xmlns:gpxacc="http://www.garmin.com/xmlschemas/AccelerationExtension/v1" xmlns:gpxpx="http://www.garmin.com/xmlschemas/PowerExtension/v1" xmlns:vidx1="http://www.garmin.com/xmlschemas/VideoExtension/v1">

  <metadata>
    <link href="http://www.garmin.com">
      <text>Garmin International</text>
    </link>
    <time>2020-12-29T14:48:09Z</time>
    <bounds maxlat="50.802430892363191" maxlon="4.469764530658722" minlat="50.761406505480409" minlon="4.421985168009996" />
  </metadata>

  <trk>
    <name>zonienwoud lus noord 17 km</name>
    <extensions>
      <gpxx:TrackExtension>
        <gpxx:DisplayColor>Blue</gpxx:DisplayColor>
      </gpxx:TrackExtension>
    </extensions>
    <trkseg>
      <trkpt lat="50.766794728115201" lon="4.448902811855078">
        <ele>133.18000000000001</ele>
        <time>2020-12-29T09:32:18Z</time>
      </trkpt>
      <trkpt lat="50.766933197155595" lon="4.449078161269426">
        <ele>132.83000000000001</ele>
        <time>2020-12-29T09:32:35Z</time>
      </trkpt>
      <trkpt lat="50.767096979543567" lon="4.449281506240368">
        <ele>132.28999999999999</ele>
        <time>2020-12-29T09:32:57Z</time>
      </trkpt>
      <trkpt lat="50.767295714467764" lon="4.449499770998955">
        <ele>131.77000000000001</ele>
        <time>2020-12-29T09:33:15Z</time>
      </trkpt>
      <trkpt lat="50.767447259277105" lon="4.449696410447359">
        <ele>130.46000000000001</ele>
        <time>2020-12-29T09:33:31Z</time>
      </trkpt>
      <trkpt lat="50.767592182382941" lon="4.449855666607618">
        <ele>129.25</ele>
        <time>2020-12-29T09:33:47Z</time>
      </trkpt>
      <trkpt lat="50.767611460760236" lon="4.449892630800605">
        <ele>129.16</ele>
        <time>2020-12-29T09:33:50Z</time>
      </trkpt>
      <trkpt lat="50.767664350569248" lon="4.449923895299435">
        <ele>128.99000000000001</ele>
        <time>2020-12-29T09:33:56Z</time>
      </trkpt>
      <trkpt lat="50.767824193462729" lon="4.450074769556522">
        <ele>128.53</ele>
        <time>2020-12-29T09:34:13Z</time>
      </trkpt>
      <trkpt lat="50.767956292256713" lon="4.450237713754177">
        <ele>126.42</ele>
        <time>2020-12-29T09:34:31Z</time>
      </trkpt>
      <trkpt lat="50.768001722171903" lon="4.450281048193574">
        <ele>126.29000000000001</ele>
        <time>2020-12-29T09:34:36Z</time>
      </trkpt>
      <trkpt lat="50.768252424895763" lon="4.450476514175534">
        <ele>123.26000000000001</ele>
        <time>2020-12-29T09:34:55Z</time>
      </trkpt>
      <trkpt lat="50.768414866179228" lon="4.450641386210918">
        <ele>121.23999999999999</ele>
        <time>2020-12-29T09:35:10Z</time>
      </trkpt>
      <trkpt lat="50.768457278609276" lon="4.450676674023271">
        <ele>120.34</ele>
        <time>2020-12-29T09:35:14Z</time>
      </trkpt>
      <trkpt lat="50.768675794824958" lon="4.45086820051074">
        <ele>119.15000000000001</ele>
        <time>2020-12-29T09:35:31Z</time>
      </trkpt>
      <trkpt lat="50.768895987421274" lon="4.451091745868325">
        <ele>117.84999999999999</ele>
        <time>2020-12-29T09:35:48Z</time>
      </trkpt>
      <trkpt lat="50.768926162272692" lon="4.451155783608556">
        <ele>117.73</ele>
        <time>2020-12-29T09:35:53Z</time>
      </trkpt>
      <trkpt lat="50.769066391512752" lon="4.451421489939094">
        <ele>116.43000000000001</ele>
        <time>2020-12-29T09:36:11Z</time>
      </trkpt>
      <trkpt lat="50.769166136160493" lon="4.45167051628232">
        <ele>112.58</ele>
        <time>2020-12-29T09:36:27Z</time>
      </trkpt>
      <trkpt lat="50.769172422587872" lon="4.451703457161784">
        <ele>116.64</ele>
        <time>2020-12-29T09:36:28Z</time>
      </trkpt>
      <trkpt lat="50.76917921192944" lon="4.451724663376808">
        <ele>116.62</ele>
        <time>2020-12-29T09:36:29Z</time>
      </trkpt>
      <trkpt lat="50.769298737868667" lon="4.452014593407512">
        <ele>116.20999999999999</ele>
        <time>2020-12-29T09:36:46Z</time>
      </trkpt>
      <trkpt lat="50.769505854696035" lon="4.452468389645219">
        <ele>115.7</ele>
        <time>2020-12-29T09:37:05Z</time>
      </trkpt>
      <trkpt lat="50.769641138613224" lon="4.452706687152386">
        <ele>115.37</ele>
        <time>2020-12-29T09:37:17Z</time>
      </trkpt>
      <trkpt lat="50.769792264327407" lon="4.452977506443858">
        <ele>114.91</ele>
        <time>2020-12-29T09:37:34Z</time>
      </trkpt>
      <trkpt lat="50.769974905997515" lon="4.453214127570391">
        <ele>114.38</ele>
        <time>2020-12-29T09:37:52Z</time>
      </trkpt>
      <trkpt lat="50.770198786631227" lon="4.453329462558031">
        <ele>111.61</ele>
        <time>2020-12-29T09:38:11Z</time>
      </trkpt>
      <trkpt lat="50.770211359485984" lon="4.453336838632822">
        <ele>111.55</ele>
        <time>2020-12-29T09:38:12Z</time>
      </trkpt>
      <trkpt lat="50.770463654771447" lon="4.453395931050181">
        <ele>110.33</ele>
        <time>2020-12-29T09:38:29Z</time>
      </trkpt>
      <trkpt lat="50.770651325583458" lon="4.453369528055191">
        <ele>108.44</ele>
        <time>2020-12-29T09:38:42Z</time>
      </trkpt>
      <trkpt lat="50.770802283659577" lon="4.453282272443175">
        <ele>105.69</ele>
        <time>2020-12-29T09:38:57Z</time>
      </trkpt>
      <trkpt lat="50.770935388281941" lon="4.453108683228493">
        <ele>102.03</ele>
        <time>2020-12-29T09:39:12Z</time>
      </trkpt>
      <trkpt lat="50.771127752959728" lon="4.453006172552705">
        <ele>100.23</ele>
        <time>2020-12-29T09:39:27Z</time>
      </trkpt>
      <trkpt lat="50.771357752382755" lon="4.452887400984764">
        <ele>99.230000000000004</ele>
        <time>2020-12-29T09:39:40Z</time>
      </trkpt>
      <trkpt lat="50.77156369574368" lon="4.452811796218157">
        <ele>99.170000000000002</ele>
        <time>2020-12-29T09:39:51Z</time>
      </trkpt>
      <trkpt lat="50.771671906113625" lon="4.452707692980766">
        <ele>99.010000000000005</ele>
        <time>2020-12-29T09:40:05Z</time>
      </trkpt>
      <trkpt lat="50.771799813956022" lon="4.452712722122669">
        <ele>98.859999999999999</ele>
        <time>2020-12-29T09:40:19Z</time>
      </trkpt>
      <trkpt lat="50.771900312975049" lon="4.452881868928671">
        <ele>101.42</ele>
        <time>2020-12-29T09:40:25Z</time>
      </trkpt>
      <trkpt lat="50.771911460906267" lon="4.452896285802126">
        <ele>101.41</ele>
        <time>2020-12-29T09:40:26Z</time>
      </trkpt>
      <trkpt lat="50.771929481998086" lon="4.452939368784428">
        <ele>102.64</ele>
        <time>2020-12-29T09:40:28Z</time>
      </trkpt>
      <trkpt lat="50.771960914134979" lon="4.452996533364058">
        <ele>103.64</ele>
        <time>2020-12-29T09:40:30Z</time>
      </trkpt>
      <trkpt lat="50.771983461454511" lon="4.453036515042186">
        <ele>103.64</ele>
        <time>2020-12-29T09:40:31Z</time>
      </trkpt>
      <trkpt lat="50.772022102028131" lon="4.453133577480912">
        <ele>104.54000000000001</ele>
        <time>2020-12-29T09:40:33Z</time>
      </trkpt>
      <trkpt lat="50.772032998502254" lon="4.453189317137003">
        <ele>105.41</ele>
        <time>2020-12-29T09:40:34Z</time>
      </trkpt>
      <trkpt lat="50.772044481709599" lon="4.453228712081909">
        <ele>105.42</ele>
        <time>2020-12-29T09:40:35Z</time>
      </trkpt>
      <trkpt lat="50.772049678489566" lon="4.453258384019136">
        <ele>106.23999999999999</ele>
        <time>2020-12-29T09:40:36Z</time>
      </trkpt>
      <trkpt lat="50.77207482419908" lon="4.453314039856195">
        <ele>107.01000000000001</ele>
        <time>2020-12-29T09:40:38Z</time>
      </trkpt>
      <trkpt lat="50.77209041453898" lon="4.453348740935326">
        <ele>107.09999999999999</ele>
        <time>2020-12-29T09:40:39Z</time>
      </trkpt>
      <trkpt lat="50.77211044728756" lon="4.453385286033154">
        <ele>108.18000000000001</ele>
        <time>2020-12-29T09:40:40Z</time>
      </trkpt>
      <trkpt lat="50.772127378731966" lon="4.453425602987409">
        <ele>108.18000000000001</ele>
        <time>2020-12-29T09:40:41Z</time>
      </trkpt>
      <trkpt lat="50.772145735099912" lon="4.453458962962031">
        <ele>109.18000000000001</ele>
        <time>2020-12-29T09:40:42Z</time>
      </trkpt>
      <trkpt lat="50.772157553583384" lon="4.45349601097405">
        <ele>109.16</ele>
        <time>2020-12-29T09:40:43Z</time>
      </trkpt>
      <trkpt lat="50.772169623523951" lon="4.453530376777053">
        <ele>110.47</ele>
        <time>2020-12-29T09:40:44Z</time>
      </trkpt>
      <trkpt lat="50.772175071761012" lon="4.453554851934314">
        <ele>110.47</ele>
        <time>2020-12-29T09:40:45Z</time>
      </trkpt>
      <trkpt lat="50.772183537483215" lon="4.453589636832476">
        <ele>111.45</ele>
        <time>2020-12-29T09:40:46Z</time>
      </trkpt>
      <trkpt lat="50.772215221077204" lon="4.453663732856512">
        <ele>112.69</ele>
        <time>2020-12-29T09:40:49Z</time>
      </trkpt>
      <trkpt lat="50.772259812802076" lon="4.453789126127958">
        <ele>114.84999999999999</ele>
        <time>2020-12-29T09:40:52Z</time>
      </trkpt>
      <trkpt lat="50.772275067865849" lon="4.453823575749993">
        <ele>114.83</ele>
        <time>2020-12-29T09:40:53Z</time>
      </trkpt>
      <trkpt lat="50.772332483902574" lon="4.453949136659503">
        <ele>116.90000000000001</ele>
        <time>2020-12-29T09:40:57Z</time>
      </trkpt>
      <trkpt lat="50.772408004850149" lon="4.454203443601728">
        <ele>120.58</ele>
        <time>2020-12-29T09:41:04Z</time>
      </trkpt>
      <trkpt lat="50.772514622658491" lon="4.454751620069146">
        <ele>124.53</ele>
        <time>2020-12-29T09:41:20Z</time>
      </trkpt>
      <trkpt lat="50.772512359544635" lon="4.454814651980996">
        <ele>124.43000000000001</ele>
        <time>2020-12-29T09:41:22Z</time>
      </trkpt>
      <trkpt lat="50.772516634315252" lon="4.454847844317555">
        <ele>125.3</ele>
        <time>2020-12-29T09:41:23Z</time>
      </trkpt>
      <trkpt lat="50.772520238533616" lon="4.454902661964297">
        <ele>125.27</ele>
        <time>2020-12-29T09:41:24Z</time>
      </trkpt>
      <trkpt lat="50.772542366757989" lon="4.45494675077498">
        <ele>126.04000000000001</ele>
        <time>2020-12-29T09:41:25Z</time>
      </trkpt>
      <trkpt lat="50.772556029260159" lon="4.454994527623057">
        <ele>126.03</ele>
        <time>2020-12-29T09:41:26Z</time>
      </trkpt>
      <trkpt lat="50.772618474438787" lon="4.455298455432057">
        <ele>127.52</ele>
        <time>2020-12-29T09:41:35Z</time>
      </trkpt>
      <trkpt lat="50.772623755037785" lon="4.455344136804342">
        <ele>128.34</ele>
        <time>2020-12-29T09:41:36Z</time>
      </trkpt>
      <trkpt lat="50.772649571299553" lon="4.455427872017026">
        <ele>128.22999999999999</ele>
        <time>2020-12-29T09:41:38Z</time>
      </trkpt>
      <trkpt lat="50.772673459723592" lon="4.455501213669777">
        <ele>128.13</ele>
        <time>2020-12-29T09:41:40Z</time>
      </trkpt>
      <trkpt lat="50.772778820246458" lon="4.455861300230026">
        <ele>129.18000000000001</ele>
        <time>2020-12-29T09:41:52Z</time>
      </trkpt>
      <trkpt lat="50.772936567664146" lon="4.456296572461724">
        <ele>129.62</ele>
        <time>2020-12-29T09:42:03Z</time>
      </trkpt>
      <trkpt lat="50.772946961224079" lon="4.456345774233341">
        <ele>129.59999999999999</ele>
        <time>2020-12-29T09:42:04Z</time>
      </trkpt>
      <trkpt lat="50.77295333147049" lon="4.456386594101787">
        <ele>130.59</ele>
        <time>2020-12-29T09:42:05Z</time>
      </trkpt>
      <trkpt lat="50.772965317592025" lon="4.456417858600617">
        <ele>130.56999999999999</ele>
        <time>2020-12-29T09:42:06Z</time>
      </trkpt>
      <trkpt lat="50.772975292056799" lon="4.456462282687426">
        <ele>130.55000000000001</ele>
        <time>2020-12-29T09:42:07Z</time>
      </trkpt>
      <trkpt lat="50.772981243208051" lon="4.456501761451364">
        <ele>130.52000000000001</ele>
        <time>2020-12-29T09:42:08Z</time>
      </trkpt>
      <trkpt lat="50.772994989529252" lon="4.456537049263716">
        <ele>131.33000000000001</ele>
        <time>2020-12-29T09:42:09Z</time>
      </trkpt>
      <trkpt lat="50.773007981479168" lon="4.456575019285083">
        <ele>131.31</ele>
        <time>2020-12-29T09:42:10Z</time>
      </trkpt>
      <trkpt lat="50.77302667312324" lon="4.456611312925816">
        <ele>131.28</ele>
        <time>2020-12-29T09:42:11Z</time>
      </trkpt>
      <trkpt lat="50.773037737235427" lon="4.456658670678735">
        <ele>131.24000000000001</ele>
        <time>2020-12-29T09:42:12Z</time>
      </trkpt>
      <trkpt lat="50.773047460243106" lon="4.456684486940503">
        <ele>131.21000000000001</ele>
        <time>2020-12-29T09:42:13Z</time>
      </trkpt>
      <trkpt lat="50.773057686164975" lon="4.456732347607613">
        <ele>131.97</ele>
        <time>2020-12-29T09:42:14Z</time>
      </trkpt>
      <trkpt lat="50.773072438314557" lon="4.456777526065707">
        <ele>131.94</ele>
        <time>2020-12-29T09:42:15Z</time>
      </trkpt>
      <trkpt lat="50.773082077503204" lon="4.456813735887408">
        <ele>131.90000000000001</ele>
        <time>2020-12-29T09:42:16Z</time>
      </trkpt>
      <trkpt lat="50.773078724741936" lon="4.456838546320796">
        <ele>131.87</ele>
        <time>2020-12-29T09:42:17Z</time>
      </trkpt>
      <trkpt lat="50.773104541003704" lon="4.456899901852012">
        <ele>131.81999999999999</ele>
        <time>2020-12-29T09:42:18Z</time>
      </trkpt>
      <trkpt lat="50.773128429427743" lon="4.456950193271041">
        <ele>131.78999999999999</ele>
        <time>2020-12-29T09:42:19Z</time>
      </trkpt>
      <trkpt lat="50.773143265396357" lon="4.457007022574544">
        <ele>131.75</ele>
        <time>2020-12-29T09:42:20Z</time>
      </trkpt>
      <trkpt lat="50.773161202669144" lon="4.457051865756512">
        <ele>131.69999999999999</ele>
        <time>2020-12-29T09:42:21Z</time>
      </trkpt>
      <trkpt lat="50.773169500753284" lon="4.457098133862019">
        <ele>131.66999999999999</ele>
        <time>2020-12-29T09:42:22Z</time>
      </trkpt>
      <trkpt lat="50.773178720846772" lon="4.457128895446658">
        <ele>132.49000000000001</ele>
        <time>2020-12-29T09:42:23Z</time>
      </trkpt>
      <trkpt lat="50.773177044466138" lon="4.457206092774868">
        <ele>132.38999999999999</ele>
        <time>2020-12-29T09:42:25Z</time>
      </trkpt>
      <trkpt lat="50.773225743323565" lon="4.457587720826268">
        <ele>131.91999999999999</ele>
        <time>2020-12-29T09:42:37Z</time>
      </trkpt>
      <trkpt lat="50.773341413587332" lon="4.457977060228586">
        <ele>131.31</ele>
        <time>2020-12-29T09:42:55Z</time>
      </trkpt>
      <trkpt lat="50.773404194042087" lon="4.458046462386847">
        <ele>131.09999999999999</ele>
        <time>2020-12-29T09:43:02Z</time>
      </trkpt>
      <trkpt lat="50.773618770763278" lon="4.458113517612219">
        <ele>130.69999999999999</ele>
        <time>2020-12-29T09:43:19Z</time>
      </trkpt>
      <trkpt lat="50.773750701919198" lon="4.458165820688009">
        <ele>130.50999999999999</ele>
        <time>2020-12-29T09:43:28Z</time>
      </trkpt>
      <trkpt lat="50.773957232013345" lon="4.458093233406544">
        <ele>130.21000000000001</ele>
        <time>2020-12-29T09:43:43Z</time>
      </trkpt>
      <trkpt lat="50.774005679413676" lon="4.458068925887346">
        <ele>130.16999999999999</ele>
        <time>2020-12-29T09:43:45Z</time>
      </trkpt>
      <trkpt lat="50.774099892005324" lon="4.457861809059978">
        <ele>129.86000000000001</ele>
        <time>2020-12-29T09:44:01Z</time>
      </trkpt>
      <trkpt lat="50.774282868951559" lon="4.457683945074678">
        <ele>129.58000000000001</ele>
        <time>2020-12-29T09:44:14Z</time>
      </trkpt>
      <trkpt lat="50.774294268339872" lon="4.45766793563962">
        <ele>129.55000000000001</ele>
        <time>2020-12-29T09:44:15Z</time>
      </trkpt>
      <trkpt lat="50.774464169517159" lon="4.45744950324297">
        <ele>129.27000000000001</ele>
        <time>2020-12-29T09:44:29Z</time>
      </trkpt>
      <trkpt lat="50.774669023230672" lon="4.457137528806925">
        <ele>129.13</ele>
        <time>2020-12-29T09:44:39Z</time>
      </trkpt>
      <trkpt lat="50.77471143566072" lon="4.457073993980885">
        <ele>129.08000000000001</ele>
        <time>2020-12-29T09:44:41Z</time>
      </trkpt>
      <trkpt lat="50.774725265800953" lon="4.457048512995243">
        <ele>129.06</ele>
        <time>2020-12-29T09:44:42Z</time>
      </trkpt>
      <trkpt lat="50.774743035435677" lon="4.457020098343492">
        <ele>129.03</ele>
        <time>2020-12-29T09:44:43Z</time>
      </trkpt>
      <trkpt lat="50.774763654917479" lon="4.456987157464027">
        <ele>128.99000000000001</ele>
        <time>2020-12-29T09:44:44Z</time>
      </trkpt>
      <trkpt lat="50.77478377148509" lon="4.456958407536149">
        <ele>128.97999999999999</ele>
        <time>2020-12-29T09:44:45Z</time>
      </trkpt>
      <trkpt lat="50.77491176314652" lon="4.456791523844004">
        <ele>128.86000000000001</ele>
        <time>2020-12-29T09:44:51Z</time>
      </trkpt>
      <trkpt lat="50.775058697909117" lon="4.456619275733829">
        <ele>126.34999999999999</ele>
        <time>2020-12-29T09:44:57Z</time>
      </trkpt>
      <trkpt lat="50.775120640173554" lon="4.456548867747188">
        <ele>126.3</ele>
        <time>2020-12-29T09:45:00Z</time>
      </trkpt>
      <trkpt lat="50.775150815024972" lon="4.456509472802281">
        <ele>126.28</ele>
        <time>2020-12-29T09:45:02Z</time>
      </trkpt>
      <trkpt lat="50.775173362344503" lon="4.456490110605955">
        <ele>126.27</ele>
        <time>2020-12-29T09:45:03Z</time>
      </trkpt>
      <trkpt lat="50.775342341512442" lon="4.45626019500196">
        <ele>125.09</ele>
        <time>2020-12-29T09:45:14Z</time>
      </trkpt>
      <trkpt lat="50.775535963475704" lon="4.455946544185281">
        <ele>123.08</ele>
        <time>2020-12-29T09:45:29Z</time>
      </trkpt>
      <trkpt lat="50.775684490799904" lon="4.455630546435714">
        <ele>121.06999999999999</ele>
        <time>2020-12-29T09:45:46Z</time>
      </trkpt>
      <trkpt lat="50.775819104164839" lon="4.455323936417699">
        <ele>119.87</ele>
        <time>2020-12-29T09:46:03Z</time>
      </trkpt>
      <trkpt lat="50.775968888774514" lon="4.455120088532567">
        <ele>117.28</ele>
        <time>2020-12-29T09:46:21Z</time>
      </trkpt>
      <trkpt lat="50.776064861565828" lon="4.454977428540587">
        <ele>114.05</ele>
        <time>2020-12-29T09:46:33Z</time>
      </trkpt>
      <trkpt lat="50.776160582900047" lon="4.454846922308207">
        <ele>111.01000000000001</ele>
        <time>2020-12-29T09:46:47Z</time>
      </trkpt>
      <trkpt lat="50.77628237195313" lon="4.454611390829086">
        <ele>107.65000000000001</ele>
        <time>2020-12-29T09:47:04Z</time>
      </trkpt>
      <trkpt lat="50.776449423283339" lon="4.454343002289534">
        <ele>105.72</ele>
        <time>2020-12-29T09:47:22Z</time>
      </trkpt>
      <trkpt lat="50.776519998908043" lon="4.454413577914238">
        <ele>104.84</ele>
        <time>2020-12-29T09:47:36Z</time>
      </trkpt>
      <trkpt lat="50.776590993627906" lon="4.454652965068817">
        <ele>104.67</ele>
        <time>2020-12-29T09:47:50Z</time>
      </trkpt>
      <trkpt lat="50.776593843474984" lon="4.454677607864142">
        <ele>104.66</ele>
        <time>2020-12-29T09:47:51Z</time>
      </trkpt>
      <trkpt lat="50.776598369702697" lon="4.454703340306878">
        <ele>104.64</ele>
        <time>2020-12-29T09:47:52Z</time>
      </trkpt>
      <trkpt lat="50.776607589796185" lon="4.454735526815057">
        <ele>104.63</ele>
        <time>2020-12-29T09:47:53Z</time>
      </trkpt>
      <trkpt lat="50.776614714413881" lon="4.454766791313887">
        <ele>104.62</ele>
        <time>2020-12-29T09:47:54Z</time>
      </trkpt>
      <trkpt lat="50.776629718020558" lon="4.454802665859461">
        <ele>104.59999999999999</ele>
        <time>2020-12-29T09:47:55Z</time>
      </trkpt>
      <trkpt lat="50.776734491810203" lon="4.455283284187317">
        <ele>106.78</ele>
        <time>2020-12-29T09:48:05Z</time>
      </trkpt>
      <trkpt lat="50.776782939210534" lon="4.455761639401317">
        <ele>109.20999999999999</ele>
        <time>2020-12-29T09:48:15Z</time>
      </trkpt>
      <trkpt lat="50.776813952252269" lon="4.45623479783535">
        <ele>110.72</ele>
        <time>2020-12-29T09:48:25Z</time>
      </trkpt>
      <trkpt lat="50.776843875646591" lon="4.456351893022656">
        <ele>111.59999999999999</ele>
        <time>2020-12-29T09:48:28Z</time>
      </trkpt>
      <trkpt lat="50.77686826698482" lon="4.456376619637013">
        <ele>111.59</ele>
        <time>2020-12-29T09:48:29Z</time>
      </trkpt>
      <trkpt lat="50.777027020230889" lon="4.456510730087757">
        <ele>113.06</ele>
        <time>2020-12-29T09:48:38Z</time>
      </trkpt>
      <trkpt lat="50.777040347456932" lon="4.4565240573138">
        <ele>113.05</ele>
        <time>2020-12-29T09:48:39Z</time>
      </trkpt>
      <trkpt lat="50.777248637750745" lon="4.456676356494427">
        <ele>114.33</ele>
        <time>2020-12-29T09:48:54Z</time>
      </trkpt>
      <trkpt lat="50.777457682415843" lon="4.45680845528841">
        <ele>114.91</ele>
        <time>2020-12-29T09:49:10Z</time>
      </trkpt>
      <trkpt lat="50.777650801464915" lon="4.456948433071375">
        <ele>115.72</ele>
        <time>2020-12-29T09:49:24Z</time>
      </trkpt>
      <trkpt lat="50.777897983789444" lon="4.457123279571533">
        <ele>116.3</ele>
        <time>2020-12-29T09:49:42Z</time>
      </trkpt>
      <trkpt lat="50.777908880263567" lon="4.457131577655673">
        <ele>116.29000000000001</ele>
        <time>2020-12-29T09:49:43Z</time>
      </trkpt>
      <trkpt lat="50.7779192738235" lon="4.457137193530798">
        <ele>116.29000000000001</ele>
        <time>2020-12-29T09:49:44Z</time>
      </trkpt>
      <trkpt lat="50.777929583564401" lon="4.457143060863018">
        <ele>116.28</ele>
        <time>2020-12-29T09:49:45Z</time>
      </trkpt>
      <trkpt lat="50.777941402047873" lon="4.457149682566524">
        <ele>116.27</ele>
        <time>2020-12-29T09:49:46Z</time>
      </trkpt>
      <trkpt lat="50.77795397490263" lon="4.457157142460346">
        <ele>116.25</ele>
        <time>2020-12-29T09:49:47Z</time>
      </trkpt>
      <trkpt lat="50.778179783374071" lon="4.457288822159171">
        <ele>116.92</ele>
        <time>2020-12-29T09:50:04Z</time>
      </trkpt>
      <trkpt lat="50.778369717299938" lon="4.45742410607636">
        <ele>117.70999999999999</ele>
        <time>2020-12-29T09:50:20Z</time>
      </trkpt>
      <trkpt lat="50.778518998995423" lon="4.457468697801232">
        <ele>118.34</ele>
        <time>2020-12-29T09:50:34Z</time>
      </trkpt>
      <trkpt lat="50.778685212135315" lon="4.457266023382545">
        <ele>118.23</ele>
        <time>2020-12-29T09:50:48Z</time>
      </trkpt>
      <trkpt lat="50.778697030618787" lon="4.457252947613597">
        <ele>118.23</ele>
        <time>2020-12-29T09:50:49Z</time>
      </trkpt>
      <trkpt lat="50.778830302879214" lon="4.457108108326793">
        <ele>118.97</ele>
        <time>2020-12-29T09:51:01Z</time>
      </trkpt>
      <trkpt lat="50.778979836031795" lon="4.456923454999924">
        <ele>118.79000000000001</ele>
        <time>2020-12-29T09:51:15Z</time>
      </trkpt>
      <trkpt lat="50.779199190437794" lon="4.45673318579793">
        <ele>118.56</ele>
        <time>2020-12-29T09:51:29Z</time>
      </trkpt>
      <trkpt lat="50.779252918437123" lon="4.456643415614963">
        <ele>118.51000000000001</ele>
        <time>2020-12-29T09:51:34Z</time>
      </trkpt>
      <trkpt lat="50.779323661699891" lon="4.456566888839006">
        <ele>118.47</ele>
        <time>2020-12-29T09:51:40Z</time>
      </trkpt>
      <trkpt lat="50.779344951733947" lon="4.456548029556871">
        <ele>118.41</ele>
        <time>2020-12-29T09:51:42Z</time>
      </trkpt>
      <trkpt lat="50.779382335022092" lon="4.456488937139511">
        <ele>118.37</ele>
        <time>2020-12-29T09:51:47Z</time>
      </trkpt>
      <trkpt lat="50.779391303658485" lon="4.456477118656039">
        <ele>118.34999999999999</ele>
        <time>2020-12-29T09:51:48Z</time>
      </trkpt>
      <trkpt lat="50.779400691390038" lon="4.456460271030664">
        <ele>118.33</ele>
        <time>2020-12-29T09:51:49Z</time>
      </trkpt>
      <trkpt lat="50.779414772987366" lon="4.456447446718812">
        <ele>118.31</ele>
        <time>2020-12-29T09:51:50Z</time>
      </trkpt>
      <trkpt lat="50.779427429661155" lon="4.456431353464723">
        <ele>118.3</ele>
        <time>2020-12-29T09:51:51Z</time>
      </trkpt>
      <trkpt lat="50.77943648211658" lon="4.456417439505458">
        <ele>118.28</ele>
        <time>2020-12-29T09:51:52Z</time>
      </trkpt>
      <trkpt lat="50.779475625604391" lon="4.456349713727832">
        <ele>118.98999999999999</ele>
        <time>2020-12-29T09:51:57Z</time>
      </trkpt>
      <trkpt lat="50.779485013335943" lon="4.45633253082633">
        <ele>118.97</ele>
        <time>2020-12-29T09:51:58Z</time>
      </trkpt>
      <trkpt lat="50.779496245086193" lon="4.456315767019987">
        <ele>118.95999999999999</ele>
        <time>2020-12-29T09:51:59Z</time>
      </trkpt>
      <trkpt lat="50.77950881794095" lon="4.456297494471073">
        <ele>118.95</ele>
        <time>2020-12-29T09:52:00Z</time>
      </trkpt>
      <trkpt lat="50.779643096029758" lon="4.456096915528178">
        <ele>118.75</ele>
        <time>2020-12-29T09:52:13Z</time>
      </trkpt>
      <trkpt lat="50.779814003035426" lon="4.455833556130529">
        <ele>120.11</ele>
        <time>2020-12-29T09:52:26Z</time>
      </trkpt>
      <trkpt lat="50.779942078515887" lon="4.455636581405997">
        <ele>120.76000000000001</ele>
        <time>2020-12-29T09:52:39Z</time>
      </trkpt>
      <trkpt lat="50.780073590576649" lon="4.455399373546243">
        <ele>121.34</ele>
        <time>2020-12-29T09:52:52Z</time>
      </trkpt>
      <trkpt lat="50.78009563498199" lon="4.455374144017696">
        <ele>121.31999999999999</ele>
        <time>2020-12-29T09:52:54Z</time>
      </trkpt>
      <trkpt lat="50.780240474268794" lon="4.455133834853768">
        <ele>122.09</ele>
        <time>2020-12-29T09:53:07Z</time>
      </trkpt>
      <trkpt lat="50.780293196439743" lon="4.455041298642755">
        <ele>122.06</ele>
        <time>2020-12-29T09:53:12Z</time>
      </trkpt>
      <trkpt lat="50.780425127595663" lon="4.454859746620059">
        <ele>122.75</ele>
        <time>2020-12-29T09:53:24Z</time>
      </trkpt>
      <trkpt lat="50.780435856431723" lon="4.454839210957289">
        <ele>122.73999999999999</ele>
        <time>2020-12-29T09:53:25Z</time>
      </trkpt>
      <trkpt lat="50.78044650144875" lon="4.454824542626739">
        <ele>122.73999999999999</ele>
        <time>2020-12-29T09:53:26Z</time>
      </trkpt>
      <trkpt lat="50.780458068475127" lon="4.45481289178133">
        <ele>122.73</ele>
        <time>2020-12-29T09:53:27Z</time>
      </trkpt>
      <trkpt lat="50.780469216406345" lon="4.454803839325905">
        <ele>122.73</ele>
        <time>2020-12-29T09:53:28Z</time>
      </trkpt>
      <trkpt lat="50.780479358509183" lon="4.454793948680162">
        <ele>122.70999999999999</ele>
        <time>2020-12-29T09:53:29Z</time>
      </trkpt>
      <trkpt lat="50.78048950061202" lon="4.454780537635088">
        <ele>122.70999999999999</ele>
        <time>2020-12-29T09:53:30Z</time>
      </trkpt>
      <trkpt lat="50.780499894171953" lon="4.454762851819396">
        <ele>122.70999999999999</ele>
        <time>2020-12-29T09:53:31Z</time>
      </trkpt>
      <trkpt lat="50.780509281903505" lon="4.454745585098863">
        <ele>122.7</ele>
        <time>2020-12-29T09:53:32Z</time>
      </trkpt>
      <trkpt lat="50.780519591644406" lon="4.454731084406376">
        <ele>122.69</ele>
        <time>2020-12-29T09:53:33Z</time>
      </trkpt>
      <trkpt lat="50.780531745404005" lon="4.454718846827745">
        <ele>122.69</ele>
        <time>2020-12-29T09:53:34Z</time>
      </trkpt>
      <trkpt lat="50.780543982982635" lon="4.454704932868481">
        <ele>122.68000000000001</ele>
        <time>2020-12-29T09:53:35Z</time>
      </trkpt>
      <trkpt lat="50.780557561665773" lon="4.454691186547279">
        <ele>122.68000000000001</ele>
        <time>2020-12-29T09:53:36Z</time>
      </trkpt>
      <trkpt lat="50.78057105652988" lon="4.454677607864142">
        <ele>122.67</ele>
        <time>2020-12-29T09:53:37Z</time>
      </trkpt>
      <trkpt lat="50.780583545565605" lon="4.454661095514894">
        <ele>122.67</ele>
        <time>2020-12-29T09:53:38Z</time>
      </trkpt>
      <trkpt lat="50.780595866963267" lon="4.454643074423075">
        <ele>122.66</ele>
        <time>2020-12-29T09:53:39Z</time>
      </trkpt>
      <trkpt lat="50.780769288539886" lon="4.454418774694204">
        <ele>123.34</ele>
        <time>2020-12-29T09:53:55Z</time>
      </trkpt>
      <trkpt lat="50.780944051221013" lon="4.454176872968674">
        <ele>123.22</ele>
        <time>2020-12-29T09:54:11Z</time>
      </trkpt>
      <trkpt lat="50.781116131693125" lon="4.453982412815094">
        <ele>123.13</ele>
        <time>2020-12-29T09:54:26Z</time>
      </trkpt>
      <trkpt lat="50.781164411455393" lon="4.453881327062845">
        <ele>123.08</ele>
        <time>2020-12-29T09:54:31Z</time>
      </trkpt>
      <trkpt lat="50.781172541901469" lon="4.453864227980375">
        <ele>123.06999999999999</ele>
        <time>2020-12-29T09:54:32Z</time>
      </trkpt>
      <trkpt lat="50.781180756166577" lon="4.453847631812096">
        <ele>123.06</ele>
        <time>2020-12-29T09:54:33Z</time>
      </trkpt>
      <trkpt lat="50.781344287097454" lon="4.453628193587065">
        <ele>122.95</ele>
        <time>2020-12-29T09:54:47Z</time>
      </trkpt>
      <trkpt lat="50.781368259340525" lon="4.453615704551339">
        <ele>122.94</ele>
        <time>2020-12-29T09:54:49Z</time>
      </trkpt>
      <trkpt lat="50.78152977861464" lon="4.453397691249847">
        <ele>122.83</ele>
        <time>2020-12-29T09:55:04Z</time>
      </trkpt>
      <trkpt lat="50.781653327867389" lon="4.453200045973063">
        <ele>124.45999999999999</ele>
        <time>2020-12-29T09:55:16Z</time>
      </trkpt>
      <trkpt lat="50.781811913475394" lon="4.453026792034507">
        <ele>124.25</ele>
        <time>2020-12-29T09:55:30Z</time>
      </trkpt>
      <trkpt lat="50.781820714473724" lon="4.453011201694608">
        <ele>124.23999999999999</ele>
        <time>2020-12-29T09:55:31Z</time>
      </trkpt>
      <trkpt lat="50.781825575977564" lon="4.452994773164392">
        <ele>124.22</ele>
        <time>2020-12-29T09:55:32Z</time>
      </trkpt>
      <trkpt lat="50.781838232651353" lon="4.452980691567063">
        <ele>124.2</ele>
        <time>2020-12-29T09:55:33Z</time>
      </trkpt>
      <trkpt lat="50.781850470229983" lon="4.452969124540687">
        <ele>124.19</ele>
        <time>2020-12-29T09:55:34Z</time>
      </trkpt>
      <trkpt lat="50.781870000064373" lon="4.452928807586432">
        <ele>124.15000000000001</ele>
        <time>2020-12-29T09:55:37Z</time>
      </trkpt>
      <trkpt lat="50.781872849911451" lon="4.452906679362059">
        <ele>124.15000000000001</ele>
        <time>2020-12-29T09:55:38Z</time>
      </trkpt>
      <trkpt lat="50.781883578747511" lon="4.452888406813145">
        <ele>124.13</ele>
        <time>2020-12-29T09:55:39Z</time>
      </trkpt>
      <trkpt lat="50.781892295926809" lon="4.452867284417152">
        <ele>124.11</ele>
        <time>2020-12-29T09:55:40Z</time>
      </trkpt>
      <trkpt lat="50.781901013106108" lon="4.452847251668572">
        <ele>124.09999999999999</ele>
        <time>2020-12-29T09:55:41Z</time>
      </trkpt>
      <trkpt lat="50.781910987570882" lon="4.452825710177422">
        <ele>124.09</ele>
        <time>2020-12-29T09:55:42Z</time>
      </trkpt>
      <trkpt lat="50.781975444406271" lon="4.452725714072585">
        <ele>124</ele>
        <time>2020-12-29T09:55:48Z</time>
      </trkpt>
      <trkpt lat="50.781988352537155" lon="4.452720265835524">
        <ele>124</ele>
        <time>2020-12-29T09:55:49Z</time>
      </trkpt>
      <trkpt lat="50.782002350315452" lon="4.452722109854221">
        <ele>123.98</ele>
        <time>2020-12-29T09:55:50Z</time>
      </trkpt>
      <trkpt lat="50.782017186284065" lon="4.452725881710649">
        <ele>123.95999999999999</ele>
        <time>2020-12-29T09:55:51Z</time>
      </trkpt>
      <trkpt lat="50.782028837129474" lon="4.452733090147376">
        <ele>123.95999999999999</ele>
        <time>2020-12-29T09:55:52Z</time>
      </trkpt>
      <trkpt lat="50.782047361135483" lon="4.452739460393786">
        <ele>123.94</ele>
        <time>2020-12-29T09:55:53Z</time>
      </trkpt>
      <trkpt lat="50.782066052779555" lon="4.452745746821165">
        <ele>124.70999999999999</ele>
        <time>2020-12-29T09:55:54Z</time>
      </trkpt>
      <trkpt lat="50.782268727198243" lon="4.452854041010141">
        <ele>124.53</ele>
        <time>2020-12-29T09:56:08Z</time>
      </trkpt>
      <trkpt lat="50.782419098541141" lon="4.45298639126122">
        <ele>124.41</ele>
        <time>2020-12-29T09:56:21Z</time>
      </trkpt>
      <trkpt lat="50.782575756311417" lon="4.453092003241181">
        <ele>125.12</ele>
        <time>2020-12-29T09:56:34Z</time>
      </trkpt>
      <trkpt lat="50.782755464315414" lon="4.453213457018137">
        <ele>125.05</ele>
        <time>2020-12-29T09:56:48Z</time>
      </trkpt>
      <trkpt lat="50.78286862000823" lon="4.45329811424017">
        <ele>125.02</ele>
        <time>2020-12-29T09:56:57Z</time>
      </trkpt>
      <trkpt lat="50.783025110140443" lon="4.453452844172716">
        <ele>125.73999999999999</ele>
        <time>2020-12-29T09:57:10Z</time>
      </trkpt>
      <trkpt lat="50.783109683543444" lon="4.453522833064199">
        <ele>125.69</ele>
        <time>2020-12-29T09:57:17Z</time>
      </trkpt>
      <trkpt lat="50.783123932778835" lon="4.45352777838707">
        <ele>125.69</ele>
        <time>2020-12-29T09:57:18Z</time>
      </trkpt>
      <trkpt lat="50.783139439299703" lon="4.453532556071878">
        <ele>125.68000000000001</ele>
        <time>2020-12-29T09:57:19Z</time>
      </trkpt>
      <trkpt lat="50.783154191449285" lon="4.453542195260525">
        <ele>125.68000000000001</ele>
        <time>2020-12-29T09:57:20Z</time>
      </trkpt>
      <trkpt lat="50.783168943598866" lon="4.453550828620791">
        <ele>125.66</ele>
        <time>2020-12-29T09:57:21Z</time>
      </trkpt>
      <trkpt lat="50.783183360472322" lon="4.453557366505265">
        <ele>125.65000000000001</ele>
        <time>2020-12-29T09:57:22Z</time>
      </trkpt>
      <trkpt lat="50.783197274431586" lon="4.453561305999756">
        <ele>125.65000000000001</ele>
        <time>2020-12-29T09:57:23Z</time>
      </trkpt>
      <trkpt lat="50.783208757638931" lon="4.453565329313278">
        <ele>125.64</ele>
        <time>2020-12-29T09:57:24Z</time>
      </trkpt>
      <trkpt lat="50.78335233964026" lon="4.453684017062187">
        <ele>125.56</ele>
        <time>2020-12-29T09:57:38Z</time>
      </trkpt>
      <trkpt lat="50.783477062359452" lon="4.453790970146656">
        <ele>125.47</ele>
        <time>2020-12-29T09:57:49Z</time>
      </trkpt>
      <trkpt lat="50.783491730690002" lon="4.453800693154335">
        <ele>125.45999999999999</ele>
        <time>2020-12-29T09:57:50Z</time>
      </trkpt>
      <trkpt lat="50.78350480645895" lon="4.453810751438141">
        <ele>125.45</ele>
        <time>2020-12-29T09:57:51Z</time>
      </trkpt>
      <trkpt lat="50.783517882227898" lon="4.4538214802742">
        <ele>125.43000000000001</ele>
        <time>2020-12-29T09:57:52Z</time>
      </trkpt>
      <trkpt lat="50.78361863270402" lon="4.453988783061504">
        <ele>125.31999999999999</ele>
        <time>2020-12-29T09:58:04Z</time>
      </trkpt>
      <trkpt lat="50.783717455342412" lon="4.454181315377355">
        <ele>125.23999999999999</ele>
        <time>2020-12-29T09:58:12Z</time>
      </trkpt>
      <trkpt lat="50.783747378736734" lon="4.454226829111576">
        <ele>125.20999999999999</ele>
        <time>2020-12-29T09:58:15Z</time>
      </trkpt>
      <trkpt lat="50.783862210810184" lon="4.454480549320579">
        <ele>122.68000000000001</ele>
        <time>2020-12-29T09:58:32Z</time>
      </trkpt>
      <trkpt lat="50.783872436732054" lon="4.454521872103214">
        <ele>122.64</ele>
        <time>2020-12-29T09:58:34Z</time>
      </trkpt>
      <trkpt lat="50.783938402310014" lon="4.454726977273822">
        <ele>122.5</ele>
        <time>2020-12-29T09:58:43Z</time>
      </trkpt>
      <trkpt lat="50.7839494664222" lon="4.454745501279831">
        <ele>122.48999999999999</ele>
        <time>2020-12-29T09:58:44Z</time>
      </trkpt>
      <trkpt lat="50.783955752849579" lon="4.454769808799028">
        <ele>122.47</ele>
        <time>2020-12-29T09:58:45Z</time>
      </trkpt>
      <trkpt lat="50.784013671800494" lon="4.454925460740924">
        <ele>122.34</ele>
        <time>2020-12-29T09:58:53Z</time>
      </trkpt>
      <trkpt lat="50.784025993198156" lon="4.454946164041758">
        <ele>122.33</ele>
        <time>2020-12-29T09:58:54Z</time>
      </trkpt>
      <trkpt lat="50.784035045653582" lon="4.454965023323894">
        <ele>122.31</ele>
        <time>2020-12-29T09:58:55Z</time>
      </trkpt>
      <trkpt lat="50.784043176099658" lon="4.45497902110219">
        <ele>121.51000000000001</ele>
        <time>2020-12-29T09:58:56Z</time>
      </trkpt>
      <trkpt lat="50.784174185246229" lon="4.455201728269458">
        <ele>121.29000000000001</ele>
        <time>2020-12-29T09:59:09Z</time>
      </trkpt>
      <trkpt lat="50.784196564927697" lon="4.455264592543244">
        <ele>121.23999999999999</ele>
        <time>2020-12-29T09:59:12Z</time>
      </trkpt>
      <trkpt lat="50.784207629039884" lon="4.45528638549149">
        <ele>121.22</ele>
        <time>2020-12-29T09:59:13Z</time>
      </trkpt>
      <trkpt lat="50.784235708415508" lon="4.455308429896832">
        <ele>121.19</ele>
        <time>2020-12-29T09:59:15Z</time>
      </trkpt>
      <trkpt lat="50.784254064783454" lon="4.455315051600337">
        <ele>121.17</ele>
        <time>2020-12-29T09:59:16Z</time>
      </trkpt>
      <trkpt lat="50.784272337332368" lon="4.455324523150921">
        <ele>121.16</ele>
        <time>2020-12-29T09:59:17Z</time>
      </trkpt>
      <trkpt lat="50.784289017319679" lon="4.455338353291154">
        <ele>121.14</ele>
        <time>2020-12-29T09:59:18Z</time>
      </trkpt>
      <trkpt lat="50.784305026754737" lon="4.455350674688816">
        <ele>121.13</ele>
        <time>2020-12-29T09:59:19Z</time>
      </trkpt>
      <trkpt lat="50.784320197999477" lon="4.455363499000669">
        <ele>121.11</ele>
        <time>2020-12-29T09:59:20Z</time>
      </trkpt>
      <trkpt lat="50.784450117498636" lon="4.455475648865104">
        <ele>120.95</ele>
        <time>2020-12-29T09:59:31Z</time>
      </trkpt>
      <trkpt lat="50.784587496891618" lon="4.455638090148568">
        <ele>119.84999999999999</ele>
        <time>2020-12-29T09:59:45Z</time>
      </trkpt>
      <trkpt lat="50.784772988408804" lon="4.455893319100142">
        <ele>119.72</ele>
        <time>2020-12-29T09:59:57Z</time>
      </trkpt>
      <trkpt lat="50.784902991726995" lon="4.456208562478423">
        <ele>119.62</ele>
        <time>2020-12-29T10:00:08Z</time>
      </trkpt>
      <trkpt lat="50.784917240962386" lon="4.456249885261059">
        <ele>119.61</ele>
        <time>2020-12-29T10:00:10Z</time>
      </trkpt>
      <trkpt lat="50.784927802160382" lon="4.456271175295115">
        <ele>119.59999999999999</ele>
        <time>2020-12-29T10:00:11Z</time>
      </trkpt>
      <trkpt lat="50.784937273710966" lon="4.456295650452375">
        <ele>119.59</ele>
        <time>2020-12-29T10:00:12Z</time>
      </trkpt>
      <trkpt lat="50.784954540431499" lon="4.456330938264728">
        <ele>119.58</ele>
        <time>2020-12-29T10:00:14Z</time>
      </trkpt>
      <trkpt lat="50.784963592886925" lon="4.456354826688767">
        <ele>119.56999999999999</ele>
        <time>2020-12-29T10:00:15Z</time>
      </trkpt>
      <trkpt lat="50.784974070265889" lon="4.456385672092438">
        <ele>119.56</ele>
        <time>2020-12-29T10:00:16Z</time>
      </trkpt>
      <trkpt lat="50.784987565129995" lon="4.456415846943855">
        <ele>119.56</ele>
        <time>2020-12-29T10:00:17Z</time>
      </trkpt>
      <trkpt lat="50.785006424412131" lon="4.456449123099446">
        <ele>119.55</ele>
        <time>2020-12-29T10:00:18Z</time>
      </trkpt>
      <trkpt lat="50.785025116056204" lon="4.456478962674737">
        <ele>119.55</ele>
        <time>2020-12-29T10:00:19Z</time>
      </trkpt>
      <trkpt lat="50.785041628405452" lon="4.456506706774235">
        <ele>119.55</ele>
        <time>2020-12-29T10:00:20Z</time>
      </trkpt>
      <trkpt lat="50.785058978945017" lon="4.456540904939175">
        <ele>119.55</ele>
        <time>2020-12-29T10:00:21Z</time>
      </trkpt>
      <trkpt lat="50.785103654488921" lon="4.456604104489088">
        <ele>121.84999999999999</ele>
        <time>2020-12-29T10:00:23Z</time>
      </trkpt>
      <trkpt lat="50.785362822934985" lon="4.456756236031652">
        <ele>121.81999999999999</ele>
        <time>2020-12-29T10:00:33Z</time>
      </trkpt>
      <trkpt lat="50.7856141962111" lon="4.456726312637329">
        <ele>122.58</ele>
        <time>2020-12-29T10:00:43Z</time>
      </trkpt>
      <trkpt lat="50.785931954160333" lon="4.456765204668045">
        <ele>123.29000000000001</ele>
        <time>2020-12-29T10:00:54Z</time>
      </trkpt>
      <trkpt lat="50.786300841718912" lon="4.456992018967867">
        <ele>124.09999999999999</ele>
        <time>2020-12-29T10:01:06Z</time>
      </trkpt>
      <trkpt lat="50.786589179188013" lon="4.45732201449573">
        <ele>124.04000000000001</ele>
        <time>2020-12-29T10:01:17Z</time>
      </trkpt>
      <trkpt lat="50.786828985437751" lon="4.457645555958152">
        <ele>123.95999999999999</ele>
        <time>2020-12-29T10:01:27Z</time>
      </trkpt>
      <trkpt lat="50.787154706194997" lon="4.457849403843284">
        <ele>123.90000000000001</ele>
        <time>2020-12-29T10:01:38Z</time>
      </trkpt>
      <trkpt lat="50.787453018128872" lon="4.458162048831582">
        <ele>123.83</ele>
        <time>2020-12-29T10:01:48Z</time>
      </trkpt>
      <trkpt lat="50.787712605670094" lon="4.458525571972132">
        <ele>125.69</ele>
        <time>2020-12-29T10:01:59Z</time>
      </trkpt>
      <trkpt lat="50.787954172119498" lon="4.45890317671001">
        <ele>125.63</ele>
        <time>2020-12-29T10:02:09Z</time>
      </trkpt>
      <trkpt lat="50.788145614787936" lon="4.459249433130026">
        <ele>125.54000000000001</ele>
        <time>2020-12-29T10:02:18Z</time>
      </trkpt>
      <trkpt lat="50.78838374465704" lon="4.459847062826157">
        <ele>125.47</ele>
        <time>2020-12-29T10:02:30Z</time>
      </trkpt>
      <trkpt lat="50.788488099351525" lon="4.460237324237824">
        <ele>125.43000000000001</ele>
        <time>2020-12-29T10:02:39Z</time>
      </trkpt>
      <trkpt lat="50.788554232567549" lon="4.460736298933625">
        <ele>125.38</ele>
        <time>2020-12-29T10:02:48Z</time>
      </trkpt>
      <trkpt lat="50.788607792928815" lon="4.461175343021751">
        <ele>125.34</ele>
        <time>2020-12-29T10:02:57Z</time>
      </trkpt>
      <trkpt lat="50.788610894232988" lon="4.461233178153634">
        <ele>125.33</ele>
        <time>2020-12-29T10:02:59Z</time>
      </trkpt>
      <trkpt lat="50.78861977905035" lon="4.461379777640104">
        <ele>125.31</ele>
        <time>2020-12-29T10:03:04Z</time>
      </trkpt>
      <trkpt lat="50.788667052984238" lon="4.461679933592677">
        <ele>125.23</ele>
        <time>2020-12-29T10:03:17Z</time>
      </trkpt>
      <trkpt lat="50.788672501221299" lon="4.46170499548316">
        <ele>125.22</ele>
        <time>2020-12-29T10:03:18Z</time>
      </trkpt>
      <trkpt lat="50.788713153451681" lon="4.461810691282153">
        <ele>125.19</ele>
        <time>2020-12-29T10:03:23Z</time>
      </trkpt>
      <trkpt lat="50.788720194250345" lon="4.461832903325558">
        <ele>125.18000000000001</ele>
        <time>2020-12-29T10:03:24Z</time>
      </trkpt>
      <trkpt lat="50.788726983591914" lon="4.461858635768294">
        <ele>125.18000000000001</ele>
        <time>2020-12-29T10:03:25Z</time>
      </trkpt>
      <trkpt lat="50.788735952228308" lon="4.461881937459111">
        <ele>125.17</ele>
        <time>2020-12-29T10:03:26Z</time>
      </trkpt>
      <trkpt lat="50.788743076846004" lon="4.461905239149928">
        <ele>125.16</ele>
        <time>2020-12-29T10:03:27Z</time>
      </trkpt>
      <trkpt lat="50.788808288052678" lon="4.462169855833054">
        <ele>125.06</ele>
        <time>2020-12-29T10:03:41Z</time>
      </trkpt>
      <trkpt lat="50.788885820657015" lon="4.462455930188298">
        <ele>124.95999999999999</ele>
        <time>2020-12-29T10:03:54Z</time>
      </trkpt>
      <trkpt lat="50.788946002721786" lon="4.462627423927188">
        <ele>122.61</ele>
        <time>2020-12-29T10:04:04Z</time>
      </trkpt>
      <trkpt lat="50.789084639400244" lon="4.462901512160897">
        <ele>122.45999999999999</ele>
        <time>2020-12-29T10:04:20Z</time>
      </trkpt>
      <trkpt lat="50.789190167561173" lon="4.463077951222658">
        <ele>122.3</ele>
        <time>2020-12-29T10:04:36Z</time>
      </trkpt>
      <trkpt lat="50.789262587204576" lon="4.463184988126159">
        <ele>122.11</ele>
        <time>2020-12-29T10:04:54Z</time>
      </trkpt>
      <trkpt lat="50.789365265518427" lon="4.463416412472725">
        <ele>121.95999999999999</ele>
        <time>2020-12-29T10:05:11Z</time>
      </trkpt>
      <trkpt lat="50.789419244974852" lon="4.463538704439998">
        <ele>121.88</ele>
        <time>2020-12-29T10:05:19Z</time>
      </trkpt>
      <trkpt lat="50.789887038990855" lon="4.464437328279018">
        <ele>120.37</ele>
        <time>2020-12-29T10:06:12Z</time>
      </trkpt>
      <trkpt lat="50.789920734241605" lon="4.464457277208567">
        <ele>120.26000000000001</ele>
        <time>2020-12-29T10:06:18Z</time>
      </trkpt>
      <trkpt lat="50.789998434484005" lon="4.464490804821253">
        <ele>120.11</ele>
        <time>2020-12-29T10:06:26Z</time>
      </trkpt>
      <trkpt lat="50.790083175525069" lon="4.464505221694708">
        <ele>118.09</ele>
        <time>2020-12-29T10:08:05Z</time>
      </trkpt>
      <trkpt lat="50.789991645142436" lon="4.465038310736418">
        <ele>117.94</ele>
        <time>2020-12-29T10:08:15Z</time>
      </trkpt>
      <trkpt lat="50.789975635707378" lon="4.465119279921055">
        <ele>117.91</ele>
        <time>2020-12-29T10:08:17Z</time>
      </trkpt>
      <trkpt lat="50.789970858022571" lon="4.465145682916045">
        <ele>117.89</ele>
        <time>2020-12-29T10:08:18Z</time>
      </trkpt>
      <trkpt lat="50.789961805567145" lon="4.46516303345561">
        <ele>118.66</ele>
        <time>2020-12-29T10:08:19Z</time>
      </trkpt>
      <trkpt lat="50.789906904101372" lon="4.465446006506681">
        <ele>118.40000000000001</ele>
        <time>2020-12-29T10:08:36Z</time>
      </trkpt>
      <trkpt lat="50.789926266297698" lon="4.465524377301335">
        <ele>120.14</ele>
        <time>2020-12-29T10:08:41Z</time>
      </trkpt>
      <trkpt lat="50.789952082559466" lon="4.465574333444238">
        <ele>117.03</ele>
        <time>2020-12-29T10:08:44Z</time>
      </trkpt>
      <trkpt lat="50.78995912335813" lon="4.465580619871616">
        <ele>117.03</ele>
        <time>2020-12-29T10:08:45Z</time>
      </trkpt>
      <trkpt lat="50.790151990950108" lon="4.465865353122354">
        <ele>116.76000000000001</ele>
        <time>2020-12-29T10:09:08Z</time>
      </trkpt>
      <trkpt lat="50.790162216871977" lon="4.465874405577779">
        <ele>116.73999999999999</ele>
        <time>2020-12-29T10:09:09Z</time>
      </trkpt>
      <trkpt lat="50.790343014523387" lon="4.466050928458571">
        <ele>116.52</ele>
        <time>2020-12-29T10:09:28Z</time>
      </trkpt>
      <trkpt lat="50.790561195462942" lon="4.466290986165404">
        <ele>116.34</ele>
        <time>2020-12-29T10:09:46Z</time>
      </trkpt>
      <trkpt lat="50.790755990892649" lon="4.46648376993835">
        <ele>116.26000000000001</ele>
        <time>2020-12-29T10:10:01Z</time>
      </trkpt>
      <trkpt lat="50.790865877643228" lon="4.466595919802785">
        <ele>116.23</ele>
        <time>2020-12-29T10:10:10Z</time>
      </trkpt>
      <trkpt lat="50.791052207350731" lon="4.466764396056533">
        <ele>116.2</ele>
        <time>2020-12-29T10:10:25Z</time>
      </trkpt>
      <trkpt lat="50.791077688336372" lon="4.466793900355697">
        <ele>116.19</ele>
        <time>2020-12-29T10:10:27Z</time>
      </trkpt>
      <trkpt lat="50.791222779080272" lon="4.466912336647511">
        <ele>115.2</ele>
        <time>2020-12-29T10:10:40Z</time>
      </trkpt>
      <trkpt lat="50.791333001106977" lon="4.467061785981059">
        <ele>112.47</ele>
        <time>2020-12-29T10:10:53Z</time>
      </trkpt>
      <trkpt lat="50.79143232665956" lon="4.467135630548">
        <ele>110.73</ele>
        <time>2020-12-29T10:11:02Z</time>
      </trkpt>
      <trkpt lat="50.791523940861225" lon="4.46724358946085">
        <ele>109.09</ele>
        <time>2020-12-29T10:11:10Z</time>
      </trkpt>
      <trkpt lat="50.79154665581882" lon="4.467257335782051">
        <ele>109.09</ele>
        <time>2020-12-29T10:11:12Z</time>
      </trkpt>
      <trkpt lat="50.791702223941684" lon="4.467451460659504">
        <ele>106.15000000000001</ele>
        <time>2020-12-29T10:11:26Z</time>
      </trkpt>
      <trkpt lat="50.791851337999105" lon="4.467621864750981">
        <ele>105.38</ele>
        <time>2020-12-29T10:11:37Z</time>
      </trkpt>
      <trkpt lat="50.791966170072556" lon="4.467720352113247">
        <ele>105.38</ele>
        <time>2020-12-29T10:11:45Z</time>
      </trkpt>
      <trkpt lat="50.792130203917623" lon="4.467890253290534">
        <ele>105.36</ele>
        <time>2020-12-29T10:12:01Z</time>
      </trkpt>
      <trkpt lat="50.79224101267755" lon="4.468022687360644">
        <ele>105.29000000000001</ele>
        <time>2020-12-29T10:12:12Z</time>
      </trkpt>
      <trkpt lat="50.792257692664862" lon="4.468043809756637">
        <ele>105.28</ele>
        <time>2020-12-29T10:12:13Z</time>
      </trkpt>
      <trkpt lat="50.79226984642446" lon="4.468064429238439">
        <ele>105.28</ele>
        <time>2020-12-29T10:12:14Z</time>
      </trkpt>
      <trkpt lat="50.792281748726964" lon="4.468080354854465">
        <ele>105.27</ele>
        <time>2020-12-29T10:12:15Z</time>
      </trkpt>
      <trkpt lat="50.792293818667531" lon="4.468092676252127">
        <ele>105.27</ele>
        <time>2020-12-29T10:12:16Z</time>
      </trkpt>
      <trkpt lat="50.792305888608098" lon="4.46810700930655">
        <ele>105.27</ele>
        <time>2020-12-29T10:12:17Z</time>
      </trkpt>
      <trkpt lat="50.792317371815443" lon="4.468124192208052">
        <ele>105.25</ele>
        <time>2020-12-29T10:12:18Z</time>
      </trkpt>
      <trkpt lat="50.792327262461185" lon="4.468143051490188">
        <ele>105.26000000000001</ele>
        <time>2020-12-29T10:12:19Z</time>
      </trkpt>
      <trkpt lat="50.792336566373706" lon="4.468162832781673">
        <ele>105.25</ele>
        <time>2020-12-29T10:12:20Z</time>
      </trkpt>
      <trkpt lat="50.792356347665191" lon="4.468191415071487">
        <ele>105.25</ele>
        <time>2020-12-29T10:12:22Z</time>
      </trkpt>
      <trkpt lat="50.792502192780375" lon="4.468296691775322">
        <ele>107.63</ele>
        <time>2020-12-29T10:12:33Z</time>
      </trkpt>
      <trkpt lat="50.792513005435467" lon="4.468313539400697">
        <ele>107.63</ele>
        <time>2020-12-29T10:12:34Z</time>
      </trkpt>
      <trkpt lat="50.792524572461843" lon="4.468332231044769">
        <ele>107.62</ele>
        <time>2020-12-29T10:12:35Z</time>
      </trkpt>
      <trkpt lat="50.792584838345647" lon="4.468409596011043">
        <ele>108.39</ele>
        <time>2020-12-29T10:12:40Z</time>
      </trkpt>
      <trkpt lat="50.79259816557169" lon="4.468426862731576">
        <ele>108.38</ele>
        <time>2020-12-29T10:12:41Z</time>
      </trkpt>
      <trkpt lat="50.792664466425776" lon="4.468513196334243">
        <ele>109.11</ele>
        <time>2020-12-29T10:12:47Z</time>
      </trkpt>
      <trkpt lat="50.792677626013756" lon="4.468523925170302">
        <ele>109.09</ele>
        <time>2020-12-29T10:12:48Z</time>
      </trkpt>
      <trkpt lat="50.792718445882201" lon="4.468557788059115">
        <ele>109.06999999999999</ele>
        <time>2020-12-29T10:12:51Z</time>
      </trkpt>
      <trkpt lat="50.792841911315918" lon="4.468685695901513">
        <ele>111.59</ele>
        <time>2020-12-29T10:13:02Z</time>
      </trkpt>
      <trkpt lat="50.792871415615082" lon="4.468742776662111">
        <ele>111.54000000000001</ele>
        <time>2020-12-29T10:13:07Z</time>
      </trkpt>
      <trkpt lat="50.792879126966" lon="4.468753673136234">
        <ele>111.52</ele>
        <time>2020-12-29T10:13:08Z</time>
      </trkpt>
      <trkpt lat="50.793043412268162" lon="4.46891762316227">
        <ele>112.09</ele>
        <time>2020-12-29T10:13:22Z</time>
      </trkpt>
      <trkpt lat="50.793196046724916" lon="4.469088949263096">
        <ele>112.70999999999999</ele>
        <time>2020-12-29T10:13:35Z</time>
      </trkpt>
      <trkpt lat="50.793325379490852" lon="4.469223981723189">
        <ele>113.38</ele>
        <time>2020-12-29T10:13:45Z</time>
      </trkpt>
      <trkpt lat="50.793420346453786" lon="4.469339651986957">
        <ele>113.23</ele>
        <time>2020-12-29T10:13:53Z</time>
      </trkpt>
      <trkpt lat="50.793540459126234" lon="4.469502847641707">
        <ele>112.97</ele>
        <time>2020-12-29T10:14:07Z</time>
      </trkpt>
      <trkpt lat="50.79358178190887" lon="4.469522712752223">
        <ele>114.27</ele>
        <time>2020-12-29T10:14:12Z</time>
      </trkpt>
      <trkpt lat="50.793723436072469" lon="4.469679873436689">
        <ele>114.02</ele>
        <time>2020-12-29T10:14:24Z</time>
      </trkpt>
      <trkpt lat="50.79381194896996" lon="4.469764530658722">
        <ele>113.89</ele>
        <time>2020-12-29T10:14:30Z</time>
      </trkpt>
      <trkpt lat="50.793941365554929" lon="4.469758663326502">
        <ele>113.69</ele>
        <time>2020-12-29T10:14:40Z</time>
      </trkpt>
      <trkpt lat="50.793974390253425" lon="4.46975514292717">
        <ele>113.65000000000001</ele>
        <time>2020-12-29T10:14:42Z</time>
      </trkpt>
      <trkpt lat="50.793993165716529" lon="4.469754053279758">
        <ele>113.64</ele>
        <time>2020-12-29T10:14:43Z</time>
      </trkpt>
      <trkpt lat="50.794138591736555" lon="4.469689009711146">
        <ele>113.42</ele>
        <time>2020-12-29T10:14:55Z</time>
      </trkpt>
      <trkpt lat="50.794337075203657" lon="4.469586163759232">
        <ele>113.15000000000001</ele>
        <time>2020-12-29T10:15:12Z</time>
      </trkpt>
      <trkpt lat="50.794396167621017" lon="4.469539476558566">
        <ele>113.06999999999999</ele>
        <time>2020-12-29T10:15:17Z</time>
      </trkpt>
      <trkpt lat="50.794412847608328" lon="4.469508463516831">
        <ele>113.04000000000001</ele>
        <time>2020-12-29T10:15:19Z</time>
      </trkpt>
      <trkpt lat="50.794592387974262" lon="4.469407796859741">
        <ele>112.92</ele>
        <time>2020-12-29T10:15:29Z</time>
      </trkpt>
      <trkpt lat="50.794625747948885" lon="4.469378711655736">
        <ele>112.86</ele>
        <time>2020-12-29T10:15:32Z</time>
      </trkpt>
      <trkpt lat="50.794672016054392" lon="4.46934225037694">
        <ele>112.83</ele>
        <time>2020-12-29T10:15:36Z</time>
      </trkpt>
      <trkpt lat="50.794721972197294" lon="4.469302939251065">
        <ele>112.79000000000001</ele>
        <time>2020-12-29T10:15:40Z</time>
      </trkpt>
      <trkpt lat="50.794746950268745" lon="4.469282990321517">
        <ele>112.79000000000001</ele>
        <time>2020-12-29T10:15:42Z</time>
      </trkpt>
      <trkpt lat="50.794816603884101" lon="4.469256168231368">
        <ele>112.7</ele>
        <time>2020-12-29T10:15:46Z</time>
      </trkpt>
      <trkpt lat="50.794873768463731" lon="4.469201937317848">
        <ele>112.7</ele>
        <time>2020-12-29T10:15:50Z</time>
      </trkpt>
      <trkpt lat="50.794937806203961" lon="4.469170002266765">
        <ele>112.66</ele>
        <time>2020-12-29T10:15:55Z</time>
      </trkpt>
      <trkpt lat="50.794977871701121" lon="4.469155920669437">
        <ele>112.65000000000001</ele>
        <time>2020-12-29T10:15:59Z</time>
      </trkpt>
      <trkpt lat="50.795088429003954" lon="4.469085596501827">
        <ele>112.59</ele>
        <time>2020-12-29T10:16:08Z</time>
      </trkpt>
      <trkpt lat="50.795176355168223" lon="4.469038238748908">
        <ele>112.56</ele>
        <time>2020-12-29T10:16:14Z</time>
      </trkpt>
      <trkpt lat="50.795243326574564" lon="4.46897042915225">
        <ele>112.54000000000001</ele>
        <time>2020-12-29T10:16:20Z</time>
      </trkpt>
      <trkpt lat="50.795323960483074" lon="4.468895746394992">
        <ele>112.52</ele>
        <time>2020-12-29T10:16:27Z</time>
      </trkpt>
      <trkpt lat="50.795346843078732" lon="4.468879485502839">
        <ele>107.36</ele>
        <time>2020-12-29T10:16:29Z</time>
      </trkpt>
      <trkpt lat="50.795357404276729" lon="4.468873701989651">
        <ele>111.41</ele>
        <time>2020-12-29T10:16:30Z</time>
      </trkpt>
      <trkpt lat="50.795380203053355" lon="4.468861045315862">
        <ele>112.86</ele>
        <time>2020-12-29T10:16:32Z</time>
      </trkpt>
      <trkpt lat="50.795392105355859" lon="4.468838749453425">
        <ele>112.84999999999999</ele>
        <time>2020-12-29T10:16:34Z</time>
      </trkpt>
      <trkpt lat="50.795518085360527" lon="4.468741016462445">
        <ele>112.88</ele>
        <time>2020-12-29T10:16:45Z</time>
      </trkpt>
      <trkpt lat="50.795740121975541" lon="4.468607408925891">
        <ele>112.92</ele>
        <time>2020-12-29T10:17:00Z</time>
      </trkpt>
      <trkpt lat="50.795815559104085" lon="4.468564661219716">
        <ele>110.62</ele>
        <time>2020-12-29T10:17:06Z</time>
      </trkpt>
      <trkpt lat="50.795908095315099" lon="4.468487044796348">
        <ele>110.63</ele>
        <time>2020-12-29T10:17:14Z</time>
      </trkpt>
      <trkpt lat="50.795968025922775" lon="4.468441782519221">
        <ele>110.66</ele>
        <time>2020-12-29T10:17:18Z</time>
      </trkpt>
      <trkpt lat="50.79598730430007" lon="4.468425940722227">
        <ele>110.67</ele>
        <time>2020-12-29T10:17:19Z</time>
      </trkpt>
      <trkpt lat="50.796004487201571" lon="4.468416217714548">
        <ele>110.67</ele>
        <time>2020-12-29T10:17:20Z</time>
      </trkpt>
      <trkpt lat="50.796248987317085" lon="4.468259811401367">
        <ele>107.81</ele>
        <time>2020-12-29T10:17:29Z</time>
      </trkpt>
      <trkpt lat="50.796283185482025" lon="4.46824480779469">
        <ele>107.59999999999999</ele>
        <time>2020-12-29T10:17:30Z</time>
      </trkpt>
      <trkpt lat="50.796580910682678" lon="4.468058310449123">
        <ele>107.58</ele>
        <time>2020-12-29T10:17:40Z</time>
      </trkpt>
      <trkpt lat="50.796964885666966" lon="4.467863850295544">
        <ele>106.66</ele>
        <time>2020-12-29T10:17:51Z</time>
      </trkpt>
      <trkpt lat="50.797293037176132" lon="4.467737283557653">
        <ele>104.69</ele>
        <time>2020-12-29T10:18:01Z</time>
      </trkpt>
      <trkpt lat="50.797604508697987" lon="4.467653883621097">
        <ele>103.92</ele>
        <time>2020-12-29T10:18:10Z</time>
      </trkpt>
      <trkpt lat="50.797899886965752" lon="4.467520527541637">
        <ele>103.05</ele>
        <time>2020-12-29T10:18:19Z</time>
      </trkpt>
      <trkpt lat="50.798202138394117" lon="4.467408796772361">
        <ele>103.06999999999999</ele>
        <time>2020-12-29T10:18:27Z</time>
      </trkpt>
      <trkpt lat="50.798325687646866" lon="4.467362193390727">
        <ele>105.51000000000001</ele>
        <time>2020-12-29T10:18:30Z</time>
      </trkpt>
      <trkpt lat="50.798595501109958" lon="4.467222215607762">
        <ele>106.3</ele>
        <time>2020-12-29T10:18:39Z</time>
      </trkpt>
      <trkpt lat="50.798631375655532" lon="4.467213079333305">
        <ele>106.28</ele>
        <time>2020-12-29T10:18:41Z</time>
      </trkpt>
      <trkpt lat="50.798810329288244" lon="4.467147532850504">
        <ele>106.05</ele>
        <time>2020-12-29T10:18:55Z</time>
      </trkpt>
      <trkpt lat="50.798852909356356" lon="4.467127751559019">
        <ele>105.98</ele>
        <time>2020-12-29T10:19:17Z</time>
      </trkpt>
      <trkpt lat="50.798876965418458" lon="4.46710336022079">
        <ele>105.95999999999999</ele>
        <time>2020-12-29T10:19:27Z</time>
      </trkpt>
      <trkpt lat="50.798886939883232" lon="4.467095145955682">
        <ele>105.95</ele>
        <time>2020-12-29T10:19:28Z</time>
      </trkpt>
      <trkpt lat="50.798897668719292" lon="4.467085339128971">
        <ele>105.95</ele>
        <time>2020-12-29T10:19:29Z</time>
      </trkpt>
      <trkpt lat="50.799029767513275" lon="4.466992719098926">
        <ele>105.89</ele>
        <time>2020-12-29T10:19:41Z</time>
      </trkpt>
      <trkpt lat="50.799042005091906" lon="4.46698559448123">
        <ele>105.89</ele>
        <time>2020-12-29T10:19:42Z</time>
      </trkpt>
      <trkpt lat="50.799058936536312" lon="4.466986767947674">
        <ele>105.89</ele>
        <time>2020-12-29T10:19:43Z</time>
      </trkpt>
      <trkpt lat="50.79918441362679" lon="4.466922814026475">
        <ele>105.89</ele>
        <time>2020-12-29T10:19:54Z</time>
      </trkpt>
      <trkpt lat="50.799194471910596" lon="4.466908145695925">
        <ele>105.89</ele>
        <time>2020-12-29T10:19:55Z</time>
      </trkpt>
      <trkpt lat="50.799205955117941" lon="4.466896578669548">
        <ele>105.89</ele>
        <time>2020-12-29T10:19:56Z</time>
      </trkpt>
      <trkpt lat="50.799244595691562" lon="4.466850142925978">
        <ele>105.90000000000001</ele>
        <time>2020-12-29T10:20:00Z</time>
      </trkpt>
      <trkpt lat="50.799262616783381" lon="4.466836815699935">
        <ele>105.89</ele>
        <time>2020-12-29T10:20:02Z</time>
      </trkpt>
      <trkpt lat="50.799290528520942" lon="4.466830613091588">
        <ele>105.89</ele>
        <time>2020-12-29T10:20:04Z</time>
      </trkpt>
      <trkpt lat="50.79943411052227" lon="4.466750649735332">
        <ele>105.90000000000001</ele>
        <time>2020-12-29T10:20:16Z</time>
      </trkpt>
      <trkpt lat="50.799587247893214" lon="4.46666456758976">
        <ele>105.90000000000001</ele>
        <time>2020-12-29T10:20:27Z</time>
      </trkpt>
      <trkpt lat="50.799601580947638" lon="4.466651240363717">
        <ele>105.89</ele>
        <time>2020-12-29T10:20:28Z</time>
      </trkpt>
      <trkpt lat="50.799779193475842" lon="4.466506317257881">
        <ele>105.93000000000001</ele>
        <time>2020-12-29T10:20:42Z</time>
      </trkpt>
      <trkpt lat="50.799837782979012" lon="4.466504892334342">
        <ele>103.66</ele>
        <time>2020-12-29T10:20:47Z</time>
      </trkpt>
      <trkpt lat="50.799908861517906" lon="4.466460552066565">
        <ele>103.64</ele>
        <time>2020-12-29T10:20:53Z</time>
      </trkpt>
      <trkpt lat="50.799919422715902" lon="4.466449907049537">
        <ele>103.65000000000001</ele>
        <time>2020-12-29T10:20:54Z</time>
      </trkpt>
      <trkpt lat="50.800059149041772" lon="4.466316383332014">
        <ele>102.84999999999999</ele>
        <time>2020-12-29T10:21:07Z</time>
      </trkpt>
      <trkpt lat="50.800072308629751" lon="4.466298697516322">
        <ele>102.84999999999999</ele>
        <time>2020-12-29T10:21:08Z</time>
      </trkpt>
      <trkpt lat="50.800183787941933" lon="4.466157462447882">
        <ele>101.97</ele>
        <time>2020-12-29T10:21:18Z</time>
      </trkpt>
      <trkpt lat="50.800317395478487" lon="4.465945651754737">
        <ele>101.09</ele>
        <time>2020-12-29T10:21:32Z</time>
      </trkpt>
      <trkpt lat="50.800443375483155" lon="4.465702325105667">
        <ele>98.269999999999996</ele>
        <time>2020-12-29T10:21:45Z</time>
      </trkpt>
      <trkpt lat="50.80044605769217" lon="4.465684304013848">
        <ele>98.260000000000005</ele>
        <time>2020-12-29T10:21:46Z</time>
      </trkpt>
      <trkpt lat="50.800453182309866" lon="4.465667204931378">
        <ele>97.420000000000002</ele>
        <time>2020-12-29T10:21:47Z</time>
      </trkpt>
      <trkpt lat="50.800459971651435" lon="4.465647507458925">
        <ele>97.409999999999997</ele>
        <time>2020-12-29T10:21:48Z</time>
      </trkpt>
      <trkpt lat="50.800467850640416" lon="4.465628983452916">
        <ele>97.400000000000006</ele>
        <time>2020-12-29T10:21:49Z</time>
      </trkpt>
      <trkpt lat="50.800527781248093" lon="4.46550065651536">
        <ele>96.609999999999999</ele>
        <time>2020-12-29T10:21:56Z</time>
      </trkpt>
      <trkpt lat="50.800536246970296" lon="4.465479869395495">
        <ele>96.609999999999999</ele>
        <time>2020-12-29T10:21:57Z</time>
      </trkpt>
      <trkpt lat="50.800531469285488" lon="4.465365875512362">
        <ele>95.019999999999996</ele>
        <time>2020-12-29T10:22:03Z</time>
      </trkpt>
      <trkpt lat="50.800528451800346" lon="4.465349027886987">
        <ele>94.879999999999995</ele>
        <time>2020-12-29T10:22:04Z</time>
      </trkpt>
      <trkpt lat="50.800500372424722" lon="4.465172588825226">
        <ele>93.310000000000002</ele>
        <time>2020-12-29T10:22:42Z</time>
      </trkpt>
      <trkpt lat="50.800500372424722" lon="4.465172588825226">
        <ele>95.900000000000006</ele>
        <time>2020-12-29T10:22:44Z</time>
      </trkpt>
      <trkpt lat="50.800771526992321" lon="4.464144967496395">
        <ele>95.870000000000005</ele>
        <time>2020-12-29T10:22:48Z</time>
      </trkpt>
      <trkpt lat="50.800765156745911" lon="4.464106410741806">
        <ele>91.109999999999999</ele>
        <time>2020-12-29T10:22:49Z</time>
      </trkpt>
      <trkpt lat="50.800778986886144" lon="4.4641447160393">
        <ele>94.239999999999995</ele>
        <time>2020-12-29T10:22:50Z</time>
      </trkpt>
      <trkpt lat="50.800798600539565" lon="4.464021166786552">
        <ele>90.010000000000005</ele>
        <time>2020-12-29T10:22:57Z</time>
      </trkpt>
      <trkpt lat="50.800803797319531" lon="4.464008091017604">
        <ele>93.459999999999994</ele>
        <time>2020-12-29T10:22:58Z</time>
      </trkpt>
      <trkpt lat="50.800808658823371" lon="4.463984873145819">
        <ele>94.480000000000004</ele>
        <time>2020-12-29T10:23:00Z</time>
      </trkpt>
      <trkpt lat="50.800794325768948" lon="4.463763004168868">
        <ele>94.519999999999996</ele>
        <time>2020-12-29T10:23:17Z</time>
      </trkpt>
      <trkpt lat="50.800747638568282" lon="4.463666696101427">
        <ele>91.909999999999997</ele>
        <time>2020-12-29T10:23:25Z</time>
      </trkpt>
      <trkpt lat="50.800730036571622" lon="4.463513139635325">
        <ele>91.829999999999998</ele>
        <time>2020-12-29T10:23:33Z</time>
      </trkpt>
      <trkpt lat="50.800647558644414" lon="4.46326470002532">
        <ele>89.409999999999997</ele>
        <time>2020-12-29T10:23:51Z</time>
      </trkpt>
      <trkpt lat="50.800638673827052" lon="4.463243912905455">
        <ele>88.450000000000003</ele>
        <time>2020-12-29T10:23:52Z</time>
      </trkpt>
      <trkpt lat="50.80062635242939" lon="4.463227987289429">
        <ele>88.430000000000007</ele>
        <time>2020-12-29T10:23:53Z</time>
      </trkpt>
      <trkpt lat="50.800608666613698" lon="4.463199656456709">
        <ele>88.439999999999998</ele>
        <time>2020-12-29T10:23:54Z</time>
      </trkpt>
      <trkpt lat="50.800436502322555" lon="4.463044088333845">
        <ele>87.590000000000003</ele>
        <time>2020-12-29T10:24:08Z</time>
      </trkpt>
      <trkpt lat="50.800220752134919" lon="4.462823309004307">
        <ele>81.129999999999995</ele>
        <time>2020-12-29T10:24:25Z</time>
      </trkpt>
      <trkpt lat="50.800209855660796" lon="4.462811406701803">
        <ele>85.629999999999995</ele>
        <time>2020-12-29T10:24:26Z</time>
      </trkpt>
      <trkpt lat="50.800074404105544" lon="4.46270571090281">
        <ele>85.599999999999994</ele>
        <time>2020-12-29T10:24:33Z</time>
      </trkpt>
      <trkpt lat="50.800053784623742" lon="4.462693808600307">
        <ele>85.609999999999999</ele>
        <time>2020-12-29T10:24:34Z</time>
      </trkpt>
      <trkpt lat="50.800032913684845" lon="4.462686767801642">
        <ele>85.609999999999999</ele>
        <time>2020-12-29T10:24:35Z</time>
      </trkpt>
      <trkpt lat="50.800013467669487" lon="4.462680146098137">
        <ele>83.299999999999997</ele>
        <time>2020-12-29T10:24:37Z</time>
      </trkpt>
      <trkpt lat="50.799992345273495" lon="4.462675536051393">
        <ele>83.310000000000002</ele>
        <time>2020-12-29T10:24:38Z</time>
      </trkpt>
      <trkpt lat="50.799934258684516" lon="4.462607307359576">
        <ele>83.290000000000006</ele>
        <time>2020-12-29T10:24:42Z</time>
      </trkpt>
      <trkpt lat="50.799815151840448" lon="4.462388874962926">
        <ele>82.180000000000007</ele>
        <time>2020-12-29T10:24:54Z</time>
      </trkpt>
      <trkpt lat="50.799790676683187" lon="4.462329279631376">
        <ele>82.170000000000002</ele>
        <time>2020-12-29T10:24:56Z</time>
      </trkpt>
      <trkpt lat="50.799780869856477" lon="4.462296841666102">
        <ele>82.170000000000002</ele>
        <time>2020-12-29T10:24:57Z</time>
      </trkpt>
      <trkpt lat="50.799771817401052" lon="4.462274294346571">
        <ele>82.159999999999997</ele>
        <time>2020-12-29T10:24:58Z</time>
      </trkpt>
      <trkpt lat="50.799753880128264" lon="4.462239006534219">
        <ele>82.109999999999999</ele>
        <time>2020-12-29T10:25:00Z</time>
      </trkpt>
      <trkpt lat="50.799744995310903" lon="4.462217381224036">
        <ele>82.120000000000005</ele>
        <time>2020-12-29T10:25:01Z</time>
      </trkpt>
      <trkpt lat="50.79973803833127" lon="4.462190056219697">
        <ele>82.079999999999998</ele>
        <time>2020-12-29T10:25:02Z</time>
      </trkpt>
      <trkpt lat="50.799731919541955" lon="4.462166419252753">
        <ele>82.069999999999993</ele>
        <time>2020-12-29T10:25:03Z</time>
      </trkpt>
      <trkpt lat="50.799723789095879" lon="4.462142111733556">
        <ele>82.069999999999993</ele>
        <time>2020-12-29T10:25:04Z</time>
      </trkpt>
      <trkpt lat="50.799712724983692" lon="4.462119229137898">
        <ele>81.200000000000003</ele>
        <time>2020-12-29T10:25:05Z</time>
      </trkpt>
      <trkpt lat="50.799637623131275" lon="4.461918314918876">
        <ele>79.870000000000005</ele>
        <time>2020-12-29T10:25:14Z</time>
      </trkpt>
      <trkpt lat="50.799597641453147" lon="4.461823934689164">
        <ele>77.870000000000005</ele>
        <time>2020-12-29T10:25:19Z</time>
      </trkpt>
      <trkpt lat="50.799554977566004" lon="4.461716478690505">
        <ele>80.599999999999994</ele>
        <time>2020-12-29T10:25:24Z</time>
      </trkpt>
      <trkpt lat="50.799504350870848" lon="4.461551439017057">
        <ele>80.540000000000006</ele>
        <time>2020-12-29T10:25:34Z</time>
      </trkpt>
      <trkpt lat="50.799473337829113" lon="4.461466949433088">
        <ele>80.540000000000006</ele>
        <time>2020-12-29T10:25:38Z</time>
      </trkpt>
      <trkpt lat="50.799466799944639" lon="4.461444318294525">
        <ele>80.519999999999996</ele>
        <time>2020-12-29T10:25:39Z</time>
      </trkpt>
      <trkpt lat="50.799394296482205" lon="4.461298640817404">
        <ele>78.090000000000003</ele>
        <time>2020-12-29T10:25:46Z</time>
      </trkpt>
      <trkpt lat="50.799370324239135" lon="4.461170649155974">
        <ele>78.629999999999995</ele>
        <time>2020-12-29T10:25:53Z</time>
      </trkpt>
      <trkpt lat="50.799371749162674" lon="4.461149359121919">
        <ele>78.620000000000005</ele>
        <time>2020-12-29T10:25:54Z</time>
      </trkpt>
      <trkpt lat="50.799385914579034" lon="4.461119268089533">
        <ele>78.579999999999998</ele>
        <time>2020-12-29T10:25:56Z</time>
      </trkpt>
      <trkpt lat="50.799396224319935" lon="4.46110007353127">
        <ele>78.560000000000002</ele>
        <time>2020-12-29T10:25:57Z</time>
      </trkpt>
      <trkpt lat="50.799401504918933" lon="4.461072832345963">
        <ele>78.569999999999993</ele>
        <time>2020-12-29T10:25:58Z</time>
      </trkpt>
      <trkpt lat="50.799405863508582" lon="4.461046513170004">
        <ele>78.620000000000005</ele>
        <time>2020-12-29T10:25:59Z</time>
      </trkpt>
      <trkpt lat="50.799403432756662" lon="4.461008291691542">
        <ele>78.560000000000002</ele>
        <time>2020-12-29T10:26:00Z</time>
      </trkpt>
      <trkpt lat="50.799405947327614" lon="4.460977697744966">
        <ele>78.540000000000006</ele>
        <time>2020-12-29T10:26:01Z</time>
      </trkpt>
      <trkpt lat="50.799412569031119" lon="4.460949534550309">
        <ele>78.540000000000006</ele>
        <time>2020-12-29T10:26:02Z</time>
      </trkpt>
      <trkpt lat="50.799422040581703" lon="4.46092564612627">
        <ele>78.540000000000006</ele>
        <time>2020-12-29T10:26:03Z</time>
      </trkpt>
      <trkpt lat="50.799432769417763" lon="4.460902009159327">
        <ele>76.239999999999995</ele>
        <time>2020-12-29T10:26:04Z</time>
      </trkpt>
      <trkpt lat="50.799443414434791" lon="4.46088214404881">
        <ele>76.219999999999999</ele>
        <time>2020-12-29T10:26:05Z</time>
      </trkpt>
      <trkpt lat="50.799451796337962" lon="4.460859093815088">
        <ele>76.239999999999995</ele>
        <time>2020-12-29T10:26:06Z</time>
      </trkpt>
      <trkpt lat="50.799461100250483" lon="4.460838809609413">
        <ele>76.230000000000004</ele>
        <time>2020-12-29T10:26:07Z</time>
      </trkpt>
      <trkpt lat="50.799464117735624" lon="4.460804611444473">
        <ele>76.219999999999999</ele>
        <time>2020-12-29T10:26:08Z</time>
      </trkpt>
      <trkpt lat="50.799473002552986" lon="4.460781728848815">
        <ele>76.189999999999998</ele>
        <time>2020-12-29T10:26:09Z</time>
      </trkpt>
      <trkpt lat="50.799480210989714" lon="4.460763037204742">
        <ele>76.219999999999999</ele>
        <time>2020-12-29T10:26:10Z</time>
      </trkpt>
      <trkpt lat="50.799488928169012" lon="4.460739651694894">
        <ele>76.200000000000003</ele>
        <time>2020-12-29T10:26:11Z</time>
      </trkpt>
      <trkpt lat="50.79949714243412" lon="4.460715763270855">
        <ele>76.209999999999994</ele>
        <time>2020-12-29T10:26:12Z</time>
      </trkpt>
      <trkpt lat="50.799504015594721" lon="4.460696233436465">
        <ele>76.209999999999994</ele>
        <time>2020-12-29T10:26:13Z</time>
      </trkpt>
      <trkpt lat="50.799510721117258" lon="4.460677374154329">
        <ele>76.200000000000003</ele>
        <time>2020-12-29T10:26:14Z</time>
      </trkpt>
      <trkpt lat="50.799516756087542" lon="4.460658095777035">
        <ele>76.200000000000003</ele>
        <time>2020-12-29T10:26:15Z</time>
      </trkpt>
      <trkpt lat="50.799526395276189" lon="4.460637979209423">
        <ele>76.189999999999998</ele>
        <time>2020-12-29T10:26:16Z</time>
      </trkpt>
      <trkpt lat="50.799533519893885" lon="4.460614677518606">
        <ele>76.200000000000003</ele>
        <time>2020-12-29T10:26:17Z</time>
      </trkpt>
      <trkpt lat="50.799541817978024" lon="4.460597243160009">
        <ele>76.180000000000007</ele>
        <time>2020-12-29T10:26:18Z</time>
      </trkpt>
      <trkpt lat="50.799550954252481" lon="4.460579976439476">
        <ele>76.170000000000002</ele>
        <time>2020-12-29T10:26:19Z</time>
      </trkpt>
      <trkpt lat="50.799587415531278" lon="4.460563967004418">
        <ele>75.379999999999995</ele>
        <time>2020-12-29T10:26:25Z</time>
      </trkpt>
      <trkpt lat="50.799749689176679" lon="4.460762869566679">
        <ele>77.680000000000007</ele>
        <time>2020-12-29T10:26:39Z</time>
      </trkpt>
      <trkpt lat="50.799961416050792" lon="4.46090460754931">
        <ele>80.510000000000005</ele>
        <time>2020-12-29T10:26:58Z</time>
      </trkpt>
      <trkpt lat="50.800132742151618" lon="4.46077074855566">
        <ele>83.540000000000006</ele>
        <time>2020-12-29T10:27:05Z</time>
      </trkpt>
      <trkpt lat="50.800150679424405" lon="4.460746608674526">
        <ele>83.519999999999996</ele>
        <time>2020-12-29T10:27:06Z</time>
      </trkpt>
      <trkpt lat="50.8002701215446" lon="4.460538234561682">
        <ele>85.909999999999997</ele>
        <time>2020-12-29T10:27:13Z</time>
      </trkpt>
      <trkpt lat="50.800295602530241" lon="4.460514094680548">
        <ele>85.870000000000005</ele>
        <time>2020-12-29T10:27:14Z</time>
      </trkpt>
      <trkpt lat="50.800424013286829" lon="4.460406051948667">
        <ele>87.700000000000003</ele>
        <time>2020-12-29T10:27:20Z</time>
      </trkpt>
      <trkpt lat="50.800454439595342" lon="4.460405465215445">
        <ele>88.480000000000004</ele>
        <time>2020-12-29T10:27:21Z</time>
      </trkpt>
      <trkpt lat="50.800821734592319" lon="4.459891235455871">
        <ele>89.659999999999997</ele>
        <time>2020-12-29T10:27:40Z</time>
      </trkpt>
      <trkpt lat="50.800937740132213" lon="4.459518743678927">
        <ele>89.5</ele>
        <time>2020-12-29T10:27:47Z</time>
      </trkpt>
      <trkpt lat="50.801067491993308" lon="4.459050111472607">
        <ele>92.359999999999999</ele>
        <time>2020-12-29T10:27:57Z</time>
      </trkpt>
      <trkpt lat="50.801165727898479" lon="4.458656497299671">
        <ele>94.989999999999995</ele>
        <time>2020-12-29T10:28:07Z</time>
      </trkpt>
      <trkpt lat="50.801178887486458" lon="4.458630597218871">
        <ele>94.969999999999999</ele>
        <time>2020-12-29T10:28:08Z</time>
      </trkpt>
      <trkpt lat="50.801215097308159" lon="4.458565972745419">
        <ele>94.75</ele>
        <time>2020-12-29T10:28:11Z</time>
      </trkpt>
      <trkpt lat="50.801284248009324" lon="4.458309821784496">
        <ele>94.590000000000003</ele>
        <time>2020-12-29T10:28:25Z</time>
      </trkpt>
      <trkpt lat="50.801489185541868" lon="4.458064399659634">
        <ele>94.540000000000006</ele>
        <time>2020-12-29T10:28:41Z</time>
      </trkpt>
      <trkpt lat="50.801553977653384" lon="4.458054341375828">
        <ele>94.560000000000002</ele>
        <time>2020-12-29T10:28:44Z</time>
      </trkpt>
      <trkpt lat="50.801856312900782" lon="4.457899443805218">
        <ele>95.340000000000003</ele>
        <time>2020-12-29T10:29:09Z</time>
      </trkpt>
      <trkpt lat="50.801962930709124" lon="4.457795340567827">
        <ele>95.269999999999996</ele>
        <time>2020-12-29T10:29:16Z</time>
      </trkpt>
      <trkpt lat="50.801984220743179" lon="4.457783941179514">
        <ele>95.269999999999996</ele>
        <time>2020-12-29T10:29:17Z</time>
      </trkpt>
      <trkpt lat="50.802000146359205" lon="4.457769943401218">
        <ele>95.25</ele>
        <time>2020-12-29T10:29:18Z</time>
      </trkpt>
      <trkpt lat="50.802021604031324" lon="4.45775100030005">
        <ele>95.25</ele>
        <time>2020-12-29T10:29:19Z</time>
      </trkpt>
      <trkpt lat="50.802162084728479" lon="4.457446904852986">
        <ele>91.079999999999998</ele>
        <time>2020-12-29T10:29:40Z</time>
      </trkpt>
      <trkpt lat="50.802206676453352" lon="4.457351434975863">
        <ele>91.109999999999999</ele>
        <time>2020-12-29T10:29:44Z</time>
      </trkpt>
      <trkpt lat="50.802281862124801" lon="4.457162506878376">
        <ele>90.120000000000005</ele>
        <time>2020-12-29T10:29:52Z</time>
      </trkpt>
      <trkpt lat="50.80229259096086" lon="4.45714021101594">
        <ele>90.140000000000001</ele>
        <time>2020-12-29T10:29:53Z</time>
      </trkpt>
      <trkpt lat="50.802302984520793" lon="4.457093356177211">
        <ele>89.359999999999999</ele>
        <time>2020-12-29T10:29:55Z</time>
      </trkpt>
      <trkpt lat="50.802318239584565" lon="4.457055721431971">
        <ele>89.379999999999995</ele>
        <time>2020-12-29T10:29:57Z</time>
      </trkpt>
      <trkpt lat="50.802328800782561" lon="4.45703661069274">
        <ele>89.390000000000001</ele>
        <time>2020-12-29T10:29:58Z</time>
      </trkpt>
      <trkpt lat="50.802341960370541" lon="4.457016326487064">
        <ele>89.390000000000001</ele>
        <time>2020-12-29T10:29:59Z</time>
      </trkpt>
      <trkpt lat="50.802357131615281" lon="4.456990761682391">
        <ele>89.400000000000006</ele>
        <time>2020-12-29T10:30:00Z</time>
      </trkpt>
      <trkpt lat="50.802363250404596" lon="4.45696528069675">
        <ele>89.400000000000006</ele>
        <time>2020-12-29T10:30:01Z</time>
      </trkpt>
      <trkpt lat="50.802430892363191" lon="4.456792613491416">
        <ele>89.530000000000001</ele>
        <time>2020-12-29T10:30:16Z</time>
      </trkpt>
      <trkpt lat="50.80240692012012" lon="4.456688761711121">
        <ele>90.400000000000006</ele>
        <time>2020-12-29T10:30:37Z</time>
      </trkpt>
      <trkpt lat="50.802146662026644" lon="4.456317108124495">
        <ele>88.189999999999998</ele>
        <time>2020-12-29T10:32:20Z</time>
      </trkpt>
      <trkpt lat="50.802139369770885" lon="4.456292130053043">
        <ele>82.420000000000002</ele>
        <time>2020-12-29T10:32:21Z</time>
      </trkpt>
      <trkpt lat="50.802120929583907" lon="4.456278551369906">
        <ele>93.810000000000002</ele>
        <time>2020-12-29T10:32:22Z</time>
      </trkpt>
      <trkpt lat="50.802110033109784" lon="4.456265475600958">
        <ele>93.810000000000002</ele>
        <time>2020-12-29T10:32:23Z</time>
      </trkpt>
      <trkpt lat="50.802102321758866" lon="4.45625139400363">
        <ele>88.799999999999997</ele>
        <time>2020-12-29T10:32:24Z</time>
      </trkpt>
      <trkpt lat="50.802081283181906" lon="4.456216944381595">
        <ele>87.760000000000005</ele>
        <time>2020-12-29T10:32:26Z</time>
      </trkpt>
      <trkpt lat="50.801969636231661" lon="4.456028938293457">
        <ele>87.810000000000002</ele>
        <time>2020-12-29T10:32:38Z</time>
      </trkpt>
      <trkpt lat="50.801911801099777" lon="4.455939000472426">
        <ele>87.060000000000002</ele>
        <time>2020-12-29T10:32:46Z</time>
      </trkpt>
      <trkpt lat="50.801899395883083" lon="4.455923577770591">
        <ele>87.049999999999997</ele>
        <time>2020-12-29T10:32:47Z</time>
      </trkpt>
      <trkpt lat="50.801860336214304" lon="4.455871442332864">
        <ele>87.060000000000002</ele>
        <time>2020-12-29T10:32:50Z</time>
      </trkpt>
      <trkpt lat="50.80181322991848" lon="4.45578376762569">
        <ele>87.049999999999997</ele>
        <time>2020-12-29T10:32:56Z</time>
      </trkpt>
      <trkpt lat="50.801805267110467" lon="4.455729369074106">
        <ele>86.230000000000004</ele>
        <time>2020-12-29T10:32:58Z</time>
      </trkpt>
      <trkpt lat="50.801793951541185" lon="4.4557124376297">
        <ele>88.810000000000002</ele>
        <time>2020-12-29T10:32:59Z</time>
      </trkpt>
      <trkpt lat="50.80178146250546" lon="4.455692991614342">
        <ele>88.790000000000006</ele>
        <time>2020-12-29T10:33:00Z</time>
      </trkpt>
      <trkpt lat="50.80176243558526" lon="4.455662732943893">
        <ele>88.780000000000001</ele>
        <time>2020-12-29T10:33:01Z</time>
      </trkpt>
      <trkpt lat="50.80174433067441" lon="4.455626020208001">
        <ele>86.030000000000001</ele>
        <time>2020-12-29T10:33:02Z</time>
      </trkpt>
      <trkpt lat="50.801722621545196" lon="4.455577824264765">
        <ele>86.049999999999997</ele>
        <time>2020-12-29T10:33:03Z</time>
      </trkpt>
      <trkpt lat="50.801701666787267" lon="4.455535663291812">
        <ele>86.079999999999998</ele>
        <time>2020-12-29T10:33:04Z</time>
      </trkpt>
      <trkpt lat="50.801681634038687" lon="4.455505404621363">
        <ele>86.049999999999997</ele>
        <time>2020-12-29T10:33:05Z</time>
      </trkpt>
      <trkpt lat="50.801665121689439" lon="4.455477157607675">
        <ele>86.099999999999994</ele>
        <time>2020-12-29T10:33:06Z</time>
      </trkpt>
      <trkpt lat="50.801542242988944" lon="4.455294013023377">
        <ele>86.030000000000001</ele>
        <time>2020-12-29T10:33:14Z</time>
      </trkpt>
      <trkpt lat="50.801502261310816" lon="4.455219833180308">
        <ele>86.010000000000005</ele>
        <time>2020-12-29T10:33:35Z</time>
      </trkpt>
      <trkpt lat="50.801489939913154" lon="4.455146826803684">
        <ele>84.920000000000002</ele>
        <time>2020-12-29T10:34:02Z</time>
      </trkpt>
      <trkpt lat="50.801489688456059" lon="4.455143054947257">
        <ele>87.629999999999995</ele>
        <time>2020-12-29T10:34:05Z</time>
      </trkpt>
      <trkpt lat="50.801490610465407" lon="4.455163171514869">
        <ele>87.620000000000005</ele>
        <time>2020-12-29T10:34:09Z</time>
      </trkpt>
      <trkpt lat="50.801469488069415" lon="4.455079939216375">
        <ele>87.599999999999994</ele>
        <time>2020-12-29T10:34:26Z</time>
      </trkpt>
      <trkpt lat="50.801366725936532" lon="4.455006346106529">
        <ele>87.629999999999995</ele>
        <time>2020-12-29T10:34:40Z</time>
      </trkpt>
      <trkpt lat="50.801353231072426" lon="4.454994359984994">
        <ele>87.620000000000005</ele>
        <time>2020-12-29T10:34:41Z</time>
      </trkpt>
      <trkpt lat="50.801340658217669" lon="4.454974913969636">
        <ele>87.620000000000005</ele>
        <time>2020-12-29T10:34:42Z</time>
      </trkpt>
      <trkpt lat="50.801324900239706" lon="4.454951696097851">
        <ele>87.629999999999995</ele>
        <time>2020-12-29T10:34:43Z</time>
      </trkpt>
      <trkpt lat="50.801309645175934" lon="4.454926634207368">
        <ele>87.620000000000005</ele>
        <time>2020-12-29T10:34:44Z</time>
      </trkpt>
      <trkpt lat="50.801293384283781" lon="4.454911295324564">
        <ele>85.359999999999999</ele>
        <time>2020-12-29T10:34:45Z</time>
      </trkpt>
      <trkpt lat="50.801287433132529" lon="4.454547939822078">
        <ele>85.040000000000006</ele>
        <time>2020-12-29T10:36:43Z</time>
      </trkpt>
      <trkpt lat="50.801279721781611" lon="4.454499073326588">
        <ele>85.019999999999996</ele>
        <time>2020-12-29T10:36:45Z</time>
      </trkpt>
      <trkpt lat="50.801276620477438" lon="4.454477867111564">
        <ele>84.989999999999995</ele>
        <time>2020-12-29T10:36:46Z</time>
      </trkpt>
      <trkpt lat="50.801303861662745" lon="4.454192630946636">
        <ele>83.989999999999995</ele>
        <time>2020-12-29T10:36:58Z</time>
      </trkpt>
      <trkpt lat="50.8013148419559" lon="4.4541668985039">
        <ele>83.969999999999999</ele>
        <time>2020-12-29T10:36:59Z</time>
      </trkpt>
      <trkpt lat="50.801324229687452" lon="4.45413026958704">
        <ele>83.959999999999994</ele>
        <time>2020-12-29T10:37:00Z</time>
      </trkpt>
      <trkpt lat="50.801333701238036" lon="4.454090874642134">
        <ele>83.939999999999998</ele>
        <time>2020-12-29T10:37:01Z</time>
      </trkpt>
      <trkpt lat="50.801340909674764" lon="4.454051898792386">
        <ele>83.939999999999998</ele>
        <time>2020-12-29T10:37:02Z</time>
      </trkpt>
      <trkpt lat="50.801348788663745" lon="4.454015269875526">
        <ele>83.930000000000007</ele>
        <time>2020-12-29T10:37:03Z</time>
      </trkpt>
      <trkpt lat="50.801356751471758" lon="4.453976545482874">
        <ele>83.909999999999997</ele>
        <time>2020-12-29T10:37:04Z</time>
      </trkpt>
      <trkpt lat="50.801230100914836" lon="4.452597470954061">
        <ele>78.890000000000001</ele>
        <time>2020-12-29T10:37:35Z</time>
      </trkpt>
      <trkpt lat="50.801091464236379" lon="4.452223051339388">
        <ele>77.849999999999994</ele>
        <time>2020-12-29T10:37:44Z</time>
      </trkpt>
      <trkpt lat="50.801035137847066" lon="4.451746875420213">
        <ele>74.959999999999994</ele>
        <time>2020-12-29T10:37:54Z</time>
      </trkpt>
      <trkpt lat="50.801024325191975" lon="4.451258042827249">
        <ele>72.989999999999995</ele>
        <time>2020-12-29T10:38:04Z</time>
      </trkpt>
      <trkpt lat="50.800992054864764" lon="4.45100205950439">
        <ele>72.069999999999993</ele>
        <time>2020-12-29T10:38:16Z</time>
      </trkpt>
      <trkpt lat="50.800909912213683" lon="4.450700730085373">
        <ele>73.730000000000004</ele>
        <time>2020-12-29T10:40:42Z</time>
      </trkpt>
      <trkpt lat="50.800908906385303" lon="4.450483974069357">
        <ele>71.359999999999999</ele>
        <time>2020-12-29T10:40:54Z</time>
      </trkpt>
      <trkpt lat="50.800927262753248" lon="4.450410464778543">
        <ele>70.049999999999997</ele>
        <time>2020-12-29T10:40:58Z</time>
      </trkpt>
      <trkpt lat="50.800927514210343" lon="4.45039227604866">
        <ele>70.049999999999997</ele>
        <time>2020-12-29T10:40:59Z</time>
      </trkpt>
      <trkpt lat="50.800949390977621" lon="4.450137130916119">
        <ele>70.459999999999994</ele>
        <time>2020-12-29T10:41:13Z</time>
      </trkpt>
      <trkpt lat="50.800954168662429" lon="4.449880477041006">
        <ele>68.180000000000007</ele>
        <time>2020-12-29T10:41:26Z</time>
      </trkpt>
      <trkpt lat="50.80096690915525" lon="4.449765393510461">
        <ele>62.549999999999997</ele>
        <time>2020-12-29T10:41:33Z</time>
      </trkpt>
      <trkpt lat="50.800970010459423" lon="4.449749635532498">
        <ele>66.189999999999998</ele>
        <time>2020-12-29T10:41:34Z</time>
      </trkpt>
      <trkpt lat="50.800999347120523" lon="4.449414191767573">
        <ele>66.170000000000002</ele>
        <time>2020-12-29T10:41:55Z</time>
      </trkpt>
      <trkpt lat="50.801000855863094" lon="4.449367169290781">
        <ele>63.719999999999999</ele>
        <time>2020-12-29T10:41:58Z</time>
      </trkpt>
      <trkpt lat="50.800986438989639" lon="4.44916675798595">
        <ele>60.960000000000001</ele>
        <time>2020-12-29T10:42:09Z</time>
      </trkpt>
      <trkpt lat="50.800990965217352" lon="4.449131973087788">
        <ele>59.719999999999999</ele>
        <time>2020-12-29T10:42:11Z</time>
      </trkpt>
      <trkpt lat="50.801072688773274" lon="4.448938015848398">
        <ele>59.649999999999999</ele>
        <time>2020-12-29T10:42:23Z</time>
      </trkpt>
      <trkpt lat="50.801197160035372" lon="4.448596034198999">
        <ele>57.840000000000003</ele>
        <time>2020-12-29T10:42:40Z</time>
      </trkpt>
      <trkpt lat="50.801355829462409" lon="4.448195965960622">
        <ele>53.140000000000001</ele>
        <time>2020-12-29T10:42:59Z</time>
      </trkpt>
      <trkpt lat="50.801348704844713" lon="4.447926236316562">
        <ele>57.229999999999997</ele>
        <time>2020-12-29T10:43:12Z</time>
      </trkpt>
      <trkpt lat="50.801368486136198" lon="4.447873178869486">
        <ele>54.829999999999998</ele>
        <time>2020-12-29T10:43:14Z</time>
      </trkpt>
      <trkpt lat="50.801389859989285" lon="4.447794808074832">
        <ele>54.789999999999999</ele>
        <time>2020-12-29T10:43:17Z</time>
      </trkpt>
      <trkpt lat="50.801433697342873" lon="4.447680898010731">
        <ele>54.719999999999999</ele>
        <time>2020-12-29T10:43:24Z</time>
      </trkpt>
      <trkpt lat="50.801571412011981" lon="4.447518959641457">
        <ele>54.619999999999997</ele>
        <time>2020-12-29T10:43:36Z</time>
      </trkpt>
      <trkpt lat="50.8016153331846" lon="4.447359368205071">
        <ele>54.579999999999998</ele>
        <time>2020-12-29T10:43:43Z</time>
      </trkpt>
      <trkpt lat="50.801800657063723" lon="4.447090476751328">
        <ele>54.509999999999998</ele>
        <time>2020-12-29T10:43:58Z</time>
      </trkpt>
      <trkpt lat="50.802064519375563" lon="4.446342894807458">
        <ele>54.399999999999999</ele>
        <time>2020-12-29T10:44:41Z</time>
      </trkpt>
      <trkpt lat="50.802029902115464" lon="4.446269050240517">
        <ele>54.399999999999999</ele>
        <time>2020-12-29T10:44:45Z</time>
      </trkpt>
      <trkpt lat="50.802007438614964" lon="4.446215992793441">
        <ele>54.399999999999999</ele>
        <time>2020-12-29T10:44:47Z</time>
      </trkpt>
      <trkpt lat="50.801987322047353" lon="4.446121947839856">
        <ele>54.399999999999999</ele>
        <time>2020-12-29T10:44:51Z</time>
      </trkpt>
      <trkpt lat="50.801961002871394" lon="4.446056401357055">
        <ele>54.390000000000001</ele>
        <time>2020-12-29T10:44:54Z</time>
      </trkpt>
      <trkpt lat="50.801931163296103" lon="4.445941066369414">
        <ele>54.399999999999999</ele>
        <time>2020-12-29T10:45:00Z</time>
      </trkpt>
      <trkpt lat="50.801908364519477" lon="4.44588758982718">
        <ele>59.450000000000003</ele>
        <time>2020-12-29T10:45:03Z</time>
      </trkpt>
      <trkpt lat="50.801900904625654" lon="4.44586462341249">
        <ele>57.130000000000003</ele>
        <time>2020-12-29T10:45:04Z</time>
      </trkpt>
      <trkpt lat="50.801877016201615" lon="4.445821456611157">
        <ele>56.039999999999999</ele>
        <time>2020-12-29T10:45:06Z</time>
      </trkpt>
      <trkpt lat="50.801850026473403" lon="4.44576496258378">
        <ele>56.049999999999997</ele>
        <time>2020-12-29T10:45:09Z</time>
      </trkpt>
      <trkpt lat="50.80176536925137" lon="4.44563546217978">
        <ele>56.07</ele>
        <time>2020-12-29T10:45:17Z</time>
      </trkpt>
      <trkpt lat="50.80167886801064" lon="4.445530101656914">
        <ele>56.090000000000003</ele>
        <time>2020-12-29T10:45:23Z</time>
      </trkpt>
      <trkpt lat="50.801654644310474" lon="4.445482827723026">
        <ele>56.100000000000001</ele>
        <time>2020-12-29T10:45:25Z</time>
      </trkpt>
      <trkpt lat="50.801491616293788" lon="4.445229861885309">
        <ele>56.159999999999997</ele>
        <time>2020-12-29T10:45:41Z</time>
      </trkpt>
      <trkpt lat="50.801354069262743" lon="4.44506423547864">
        <ele>56.210000000000001</ele>
        <time>2020-12-29T10:45:50Z</time>
      </trkpt>
      <trkpt lat="50.801229095086455" lon="4.44488201290369">
        <ele>56.270000000000003</ele>
        <time>2020-12-29T10:46:01Z</time>
      </trkpt>
      <trkpt lat="50.801130104809999" lon="4.444736754521728">
        <ele>56.310000000000002</ele>
        <time>2020-12-29T10:46:09Z</time>
      </trkpt>
      <trkpt lat="50.801051314920187" lon="4.444614462554455">
        <ele>56.329999999999998</ele>
        <time>2020-12-29T10:46:14Z</time>
      </trkpt>
      <trkpt lat="50.80103388056159" lon="4.444588730111718">
        <ele>56.329999999999998</ele>
        <time>2020-12-29T10:46:15Z</time>
      </trkpt>
      <trkpt lat="50.801017703488469" lon="4.444566853344441">
        <ele>56.340000000000003</ele>
        <time>2020-12-29T10:46:16Z</time>
      </trkpt>
      <trkpt lat="50.800944697111845" lon="4.44450625218451">
        <ele>58.649999999999999</ele>
        <time>2020-12-29T10:46:23Z</time>
      </trkpt>
      <trkpt lat="50.800825757905841" lon="4.444388067349792">
        <ele>58.670000000000002</ele>
        <time>2020-12-29T10:46:31Z</time>
      </trkpt>
      <trkpt lat="50.800809916108847" lon="4.444369543343782">
        <ele>58.670000000000002</ele>
        <time>2020-12-29T10:46:32Z</time>
      </trkpt>
      <trkpt lat="50.800789212808013" lon="4.444345403462648">
        <ele>58.670000000000002</ele>
        <time>2020-12-29T10:46:33Z</time>
      </trkpt>
      <trkpt lat="50.800705142319202" lon="4.444246580824256">
        <ele>60.219999999999999</ele>
        <time>2020-12-29T10:46:40Z</time>
      </trkpt>
      <trkpt lat="50.800486709922552" lon="4.444090845063329">
        <ele>60.280000000000001</ele>
        <time>2020-12-29T10:46:54Z</time>
      </trkpt>
      <trkpt lat="50.800337931141257" lon="4.443941060453653">
        <ele>60.310000000000002</ele>
        <time>2020-12-29T10:47:06Z</time>
      </trkpt>
      <trkpt lat="50.800316808745265" lon="4.443929577246308">
        <ele>60.310000000000002</ele>
        <time>2020-12-29T10:47:07Z</time>
      </trkpt>
      <trkpt lat="50.800302056595683" lon="4.44391205906868">
        <ele>60.310000000000002</ele>
        <time>2020-12-29T10:47:08Z</time>
      </trkpt>
      <trkpt lat="50.800280766561627" lon="4.443895546719432">
        <ele>60.32</ele>
        <time>2020-12-29T10:47:09Z</time>
      </trkpt>
      <trkpt lat="50.800267523154616" lon="4.44387149065733">
        <ele>60.32</ele>
        <time>2020-12-29T10:47:10Z</time>
      </trkpt>
      <trkpt lat="50.800254950299859" lon="4.443838465958834">
        <ele>60.32</ele>
        <time>2020-12-29T10:47:11Z</time>
      </trkpt>
      <trkpt lat="50.800161492079496" lon="4.443684825673699">
        <ele>63.950000000000003</ele>
        <time>2020-12-29T10:47:15Z</time>
      </trkpt>
      <trkpt lat="50.800113631412387" lon="4.443595474585891">
        <ele>65.140000000000001</ele>
        <time>2020-12-29T10:47:17Z</time>
      </trkpt>
      <trkpt lat="50.800078175961971" lon="4.443534286692739">
        <ele>66.5</ele>
        <time>2020-12-29T10:47:19Z</time>
      </trkpt>
      <trkpt lat="50.799960745498538" lon="4.443382155150175">
        <ele>68.430000000000007</ele>
        <time>2020-12-29T10:47:27Z</time>
      </trkpt>
      <trkpt lat="50.799701241776347" lon="4.443083759397268">
        <ele>71.700000000000003</ele>
        <time>2020-12-29T10:47:43Z</time>
      </trkpt>
      <trkpt lat="50.799696547910571" lon="4.443056015297771">
        <ele>72.75</ele>
        <time>2020-12-29T10:47:44Z</time>
      </trkpt>
      <trkpt lat="50.79965740442276" lon="4.442904051393271">
        <ele>73.680000000000007</ele>
        <time>2020-12-29T10:47:49Z</time>
      </trkpt>
      <trkpt lat="50.799638964235783" lon="4.442788632586598">
        <ele>73.680000000000007</ele>
        <time>2020-12-29T10:47:52Z</time>
      </trkpt>
      <trkpt lat="50.79963393509388" lon="4.442717889323831">
        <ele>73.680000000000007</ele>
        <time>2020-12-29T10:47:53Z</time>
      </trkpt>
      <trkpt lat="50.799623960629106" lon="4.442645972594619">
        <ele>73.650000000000006</ele>
        <time>2020-12-29T10:47:54Z</time>
      </trkpt>
      <trkpt lat="50.799610214307904" lon="4.442573804408312">
        <ele>74.579999999999998</ele>
        <time>2020-12-29T10:47:55Z</time>
      </trkpt>
      <trkpt lat="50.799563359469175" lon="4.442330226302147">
        <ele>75.329999999999998</ele>
        <time>2020-12-29T10:47:59Z</time>
      </trkpt>
      <trkpt lat="50.799547685310245" lon="4.4422722235322">
        <ele>75.299999999999997</ele>
        <time>2020-12-29T10:48:00Z</time>
      </trkpt>
      <trkpt lat="50.799541482701898" lon="4.442222602665424">
        <ele>75.290000000000006</ele>
        <time>2020-12-29T10:48:01Z</time>
      </trkpt>
      <trkpt lat="50.799532011151314" lon="4.442172730341554">
        <ele>75.269999999999996</ele>
        <time>2020-12-29T10:48:02Z</time>
      </trkpt>
      <trkpt lat="50.799528993666172" lon="4.442115146666765">
        <ele>75.280000000000001</ele>
        <time>2020-12-29T10:48:03Z</time>
      </trkpt>
      <trkpt lat="50.799527065828443" lon="4.442057143896818">
        <ele>75.269999999999996</ele>
        <time>2020-12-29T10:48:04Z</time>
      </trkpt>
      <trkpt lat="50.799525221809745" lon="4.442005846649408">
        <ele>75.25</ele>
        <time>2020-12-29T10:48:05Z</time>
      </trkpt>
      <trkpt lat="50.799425896257162" lon="4.441386424005032">
        <ele>75.180000000000007</ele>
        <time>2020-12-29T10:48:14Z</time>
      </trkpt>
      <trkpt lat="50.799360349774361" lon="4.440978309139609">
        <ele>75.980000000000004</ele>
        <time>2020-12-29T10:48:20Z</time>
      </trkpt>
      <trkpt lat="50.79934811219573" lon="4.440923910588026">
        <ele>75.959999999999994</ele>
        <time>2020-12-29T10:48:21Z</time>
      </trkpt>
      <trkpt lat="50.799344088882208" lon="4.440876552835107">
        <ele>75.969999999999999</ele>
        <time>2020-12-29T10:48:22Z</time>
      </trkpt>
      <trkpt lat="50.799322044476867" lon="4.440524093806744">
        <ele>75.900000000000006</ele>
        <time>2020-12-29T10:48:32Z</time>
      </trkpt>
      <trkpt lat="50.799307208508253" lon="4.440134167671204">
        <ele>72.849999999999994</ele>
        <time>2020-12-29T10:48:46Z</time>
      </trkpt>
      <trkpt lat="50.799308381974697" lon="4.440111285075545">
        <ele>78.040000000000006</ele>
        <time>2020-12-29T10:48:47Z</time>
      </trkpt>
      <trkpt lat="50.799305699765682" lon="4.440085971727967">
        <ele>78.040000000000006</ele>
        <time>2020-12-29T10:48:48Z</time>
      </trkpt>
      <trkpt lat="50.799295892938972" lon="4.439964350312948">
        <ele>75.620000000000005</ele>
        <time>2020-12-29T10:48:51Z</time>
      </trkpt>
      <trkpt lat="50.799361607059836" lon="4.439507536590099">
        <ele>77.359999999999999</ele>
        <time>2020-12-29T10:49:07Z</time>
      </trkpt>
      <trkpt lat="50.799363451078534" lon="4.439421622082591">
        <ele>77.349999999999994</ele>
        <time>2020-12-29T10:49:10Z</time>
      </trkpt>
      <trkpt lat="50.799367977306247" lon="4.439398488029838">
        <ele>78.129999999999995</ele>
        <time>2020-12-29T10:49:11Z</time>
      </trkpt>
      <trkpt lat="50.79937401227653" lon="4.439332522451878">
        <ele>78.120000000000005</ele>
        <time>2020-12-29T10:49:13Z</time>
      </trkpt>
      <trkpt lat="50.799361690878868" lon="4.439078299328685">
        <ele>78.049999999999997</ele>
        <time>2020-12-29T10:49:25Z</time>
      </trkpt>
      <trkpt lat="50.799356661736965" lon="4.438919043168426">
        <ele>78</ele>
        <time>2020-12-29T10:49:32Z</time>
      </trkpt>
      <trkpt lat="50.799310812726617" lon="4.438561471179128">
        <ele>77.930000000000007</ele>
        <time>2020-12-29T10:49:48Z</time>
      </trkpt>
      <trkpt lat="50.799274519085884" lon="4.438470611348748">
        <ele>77.920000000000002</ele>
        <time>2020-12-29T10:49:52Z</time>
      </trkpt>
      <trkpt lat="50.799260437488556" lon="4.4384472258389">
        <ele>77.909999999999997</ele>
        <time>2020-12-29T10:49:53Z</time>
      </trkpt>
      <trkpt lat="50.799248786643147" lon="4.438418727368116">
        <ele>77.909999999999997</ele>
        <time>2020-12-29T10:49:54Z</time>
      </trkpt>
      <trkpt lat="50.799231939017773" lon="4.438394671306014">
        <ele>77.909999999999997</ele>
        <time>2020-12-29T10:49:55Z</time>
      </trkpt>
      <trkpt lat="50.799137223511934" lon="4.438209347426891">
        <ele>77.879999999999995</ele>
        <time>2020-12-29T10:50:07Z</time>
      </trkpt>
      <trkpt lat="50.798895489424467" lon="4.43784330971539">
        <ele>77.930000000000007</ele>
        <time>2020-12-29T10:50:23Z</time>
      </trkpt>
      <trkpt lat="50.79871435649693" lon="4.437622195109725">
        <ele>78.909999999999997</ele>
        <time>2020-12-29T10:50:34Z</time>
      </trkpt>
      <trkpt lat="50.798591142520308" lon="4.437503339722753">
        <ele>79.829999999999998</ele>
        <time>2020-12-29T10:50:43Z</time>
      </trkpt>
      <trkpt lat="50.798573791980743" lon="4.437486911192536">
        <ele>79.849999999999994</ele>
        <time>2020-12-29T10:50:44Z</time>
      </trkpt>
      <trkpt lat="50.798559710383415" lon="4.437469057738781">
        <ele>79.859999999999999</ele>
        <time>2020-12-29T10:50:45Z</time>
      </trkpt>
      <trkpt lat="50.79842803068459" lon="4.437315836548805">
        <ele>79.989999999999995</ele>
        <time>2020-12-29T10:50:55Z</time>
      </trkpt>
      <trkpt lat="50.79832635819912" lon="4.437152221798897">
        <ele>80.200000000000003</ele>
        <time>2020-12-29T10:51:06Z</time>
      </trkpt>
      <trkpt lat="50.798184536397457" lon="4.436924569308758">
        <ele>80.540000000000006</ele>
        <time>2020-12-29T10:51:22Z</time>
      </trkpt>
      <trkpt lat="50.798104824498296" lon="4.436840666458011">
        <ele>82.859999999999999</ele>
        <time>2020-12-29T10:51:29Z</time>
      </trkpt>
      <trkpt lat="50.798065848648548" lon="4.436774449422956">
        <ele>82.909999999999997</ele>
        <time>2020-12-29T10:51:32Z</time>
      </trkpt>
      <trkpt lat="50.798048581928015" lon="4.436734970659018">
        <ele>82.959999999999994</ele>
        <time>2020-12-29T10:51:34Z</time>
      </trkpt>
      <trkpt lat="50.798037266358733" lon="4.43671602755785">
        <ele>82.980000000000004</ele>
        <time>2020-12-29T10:51:35Z</time>
      </trkpt>
      <trkpt lat="50.798018993809819" lon="4.436704209074378">
        <ele>83</ele>
        <time>2020-12-29T10:51:36Z</time>
      </trkpt>
      <trkpt lat="50.798001307994127" lon="4.436697419732809">
        <ele>83.019999999999996</ele>
        <time>2020-12-29T10:51:37Z</time>
      </trkpt>
      <trkpt lat="50.797989908605814" lon="4.436686104163528">
        <ele>83.040000000000006</ele>
        <time>2020-12-29T10:51:38Z</time>
      </trkpt>
      <trkpt lat="50.797977838665247" lon="4.436675626784563">
        <ele>83.060000000000002</ele>
        <time>2020-12-29T10:51:39Z</time>
      </trkpt>
      <trkpt lat="50.797964679077268" lon="4.436659952625632">
        <ele>83.079999999999998</ele>
        <time>2020-12-29T10:51:40Z</time>
      </trkpt>
      <trkpt lat="50.797949256375432" lon="4.436646038666368">
        <ele>83.099999999999994</ele>
        <time>2020-12-29T10:51:41Z</time>
      </trkpt>
      <trkpt lat="50.797935174778104" lon="4.436631286516786">
        <ele>83.120000000000005</ele>
        <time>2020-12-29T10:51:42Z</time>
      </trkpt>
      <trkpt lat="50.797923523932695" lon="4.436615779995918">
        <ele>83.140000000000001</ele>
        <time>2020-12-29T10:51:43Z</time>
      </trkpt>
      <trkpt lat="50.797870885580778" lon="4.436568254604936">
        <ele>83.209999999999994</ele>
        <time>2020-12-29T10:51:47Z</time>
      </trkpt>
      <trkpt lat="50.797842303290963" lon="4.436543779447675">
        <ele>83.25</ele>
        <time>2020-12-29T10:51:49Z</time>
      </trkpt>
      <trkpt lat="50.797829227522016" lon="4.436526093631983">
        <ele>83.269999999999996</ele>
        <time>2020-12-29T10:51:50Z</time>
      </trkpt>
      <trkpt lat="50.797814978286624" lon="4.436509497463703">
        <ele>83.290000000000006</ele>
        <time>2020-12-29T10:51:51Z</time>
      </trkpt>
      <trkpt lat="50.797730404883623" lon="4.436433808878064">
        <ele>81.129999999999995</ele>
        <time>2020-12-29T10:51:57Z</time>
      </trkpt>
      <trkpt lat="50.797642478719354" lon="4.436311852186918">
        <ele>81.299999999999997</ele>
        <time>2020-12-29T10:52:07Z</time>
      </trkpt>
      <trkpt lat="50.797579782083631" lon="4.436029298231006">
        <ele>78.010000000000005</ele>
        <time>2020-12-29T10:52:21Z</time>
      </trkpt>
      <trkpt lat="50.79756704159081" lon="4.435890577733517">
        <ele>78.109999999999999</ele>
        <time>2020-12-29T10:52:26Z</time>
      </trkpt>
      <trkpt lat="50.79756218008697" lon="4.435848332941532">
        <ele>78.109999999999999</ele>
        <time>2020-12-29T10:52:27Z</time>
      </trkpt>
      <trkpt lat="50.797557737678289" lon="4.435779685154557">
        <ele>78.150000000000006</ele>
        <time>2020-12-29T10:52:28Z</time>
      </trkpt>
      <trkpt lat="50.797558659687638" lon="4.435724867507815">
        <ele>78.140000000000001</ele>
        <time>2020-12-29T10:52:29Z</time>
      </trkpt>
      <trkpt lat="50.797552037984133" lon="4.43568455055356">
        <ele>81.239999999999995</ele>
        <time>2020-12-29T10:52:30Z</time>
      </trkpt>
      <trkpt lat="50.797551115974784" lon="4.435642054304481">
        <ele>81.260000000000005</ele>
        <time>2020-12-29T10:52:31Z</time>
      </trkpt>
      <trkpt lat="50.797545248642564" lon="4.435599558055401">
        <ele>82.629999999999995</ele>
        <time>2020-12-29T10:52:32Z</time>
      </trkpt>
      <trkpt lat="50.797545667737722" lon="4.435550859197974">
        <ele>82.640000000000001</ele>
        <time>2020-12-29T10:52:33Z</time>
      </trkpt>
      <trkpt lat="50.797548685222864" lon="4.435498723760247">
        <ele>82.659999999999997</ele>
        <time>2020-12-29T10:52:34Z</time>
      </trkpt>
      <trkpt lat="50.797554468736053" lon="4.435453545302153">
        <ele>82.670000000000002</ele>
        <time>2020-12-29T10:52:35Z</time>
      </trkpt>
      <trkpt lat="50.797563269734383" lon="4.435418257489801">
        <ele>82.680000000000007</ele>
        <time>2020-12-29T10:52:36Z</time>
      </trkpt>
      <trkpt lat="50.797567544505" lon="4.435390345752239">
        <ele>82.689999999999998</ele>
        <time>2020-12-29T10:52:37Z</time>
      </trkpt>
      <trkpt lat="50.797563940286636" lon="4.435357404872775">
        <ele>82.700000000000003</ele>
        <time>2020-12-29T10:52:38Z</time>
      </trkpt>
      <trkpt lat="50.797560084611177" lon="4.435313232243061">
        <ele>82.730000000000004</ele>
        <time>2020-12-29T10:52:39Z</time>
      </trkpt>
      <trkpt lat="50.797563772648573" lon="4.435278279706836">
        <ele>83.489999999999995</ele>
        <time>2020-12-29T10:52:40Z</time>
      </trkpt>
      <trkpt lat="50.797565868124366" lon="4.435238046571612">
        <ele>83.5</ele>
        <time>2020-12-29T10:52:41Z</time>
      </trkpt>
      <trkpt lat="50.797571064904332" lon="4.435205860063434">
        <ele>83.5</ele>
        <time>2020-12-29T10:52:42Z</time>
      </trkpt>
      <trkpt lat="50.797586655244231" lon="4.435177696868777">
        <ele>83.510000000000005</ele>
        <time>2020-12-29T10:52:43Z</time>
      </trkpt>
      <trkpt lat="50.797604760155082" lon="4.435143163427711">
        <ele>83.510000000000005</ele>
        <time>2020-12-29T10:52:44Z</time>
      </trkpt>
      <trkpt lat="50.797683130949736" lon="4.434723984450102">
        <ele>84.609999999999999</ele>
        <time>2020-12-29T10:52:53Z</time>
      </trkpt>
      <trkpt lat="50.79770727083087" lon="4.434644775465131">
        <ele>84.599999999999994</ele>
        <time>2020-12-29T10:52:55Z</time>
      </trkpt>
      <trkpt lat="50.797712299972773" lon="4.434595238417387">
        <ele>84.599999999999994</ele>
        <time>2020-12-29T10:52:56Z</time>
      </trkpt>
      <trkpt lat="50.797721100971103" lon="4.434558022767305">
        <ele>84.590000000000003</ele>
        <time>2020-12-29T10:52:57Z</time>
      </trkpt>
      <trkpt lat="50.79770534299314" lon="4.433319848030806">
        <ele>86.129999999999995</ele>
        <time>2020-12-29T10:53:20Z</time>
      </trkpt>
      <trkpt lat="50.797670055180788" lon="4.433144079521298">
        <ele>86.090000000000003</ele>
        <time>2020-12-29T10:53:24Z</time>
      </trkpt>
      <trkpt lat="50.797659661620855" lon="4.43310309201479">
        <ele>86.069999999999993</ele>
        <time>2020-12-29T10:53:25Z</time>
      </trkpt>
      <trkpt lat="50.797646669670939" lon="4.433061182498932">
        <ele>86.060000000000002</ele>
        <time>2020-12-29T10:53:26Z</time>
      </trkpt>
      <trkpt lat="50.797630408778787" lon="4.433021955192089">
        <ele>86.060000000000002</ele>
        <time>2020-12-29T10:53:27Z</time>
      </trkpt>
      <trkpt lat="50.797614399343729" lon="4.432983482256532">
        <ele>86.040000000000006</ele>
        <time>2020-12-29T10:53:28Z</time>
      </trkpt>
      <trkpt lat="50.797564359381795" lon="4.432776952162385">
        <ele>85.989999999999995</ele>
        <time>2020-12-29T10:53:33Z</time>
      </trkpt>
      <trkpt lat="50.797539129853249" lon="4.43272590637207">
        <ele>85.989999999999995</ele>
        <time>2020-12-29T10:53:34Z</time>
      </trkpt>
      <trkpt lat="50.797518091276288" lon="4.432693216949701">
        <ele>85.969999999999999</ele>
        <time>2020-12-29T10:53:35Z</time>
      </trkpt>
      <trkpt lat="50.797493951395154" lon="4.432668490335345">
        <ele>85.959999999999994</ele>
        <time>2020-12-29T10:53:36Z</time>
      </trkpt>
      <trkpt lat="50.797472912818193" lon="4.432637477293611">
        <ele>85.950000000000003</ele>
        <time>2020-12-29T10:53:37Z</time>
      </trkpt>
      <trkpt lat="50.797316422685981" lon="4.43242097273469">
        <ele>85.900000000000006</ele>
        <time>2020-12-29T10:53:44Z</time>
      </trkpt>
      <trkpt lat="50.797281889244914" lon="4.43237017840147">
        <ele>85.900000000000006</ele>
        <time>2020-12-29T10:53:45Z</time>
      </trkpt>
      <trkpt lat="50.797098744660616" lon="4.432073291391134">
        <ele>87.900000000000006</ele>
        <time>2020-12-29T10:53:54Z</time>
      </trkpt>
      <trkpt lat="50.797004448249936" lon="4.431761484593153">
        <ele>85.590000000000003</ele>
        <time>2020-12-29T10:54:01Z</time>
      </trkpt>
      <trkpt lat="50.796789871528745" lon="4.43130006082356">
        <ele>84.590000000000003</ele>
        <time>2020-12-29T10:54:11Z</time>
      </trkpt>
      <trkpt lat="50.796767743304372" lon="4.431233340874314">
        <ele>82.640000000000001</ele>
        <time>2020-12-29T10:54:13Z</time>
      </trkpt>
      <trkpt lat="50.796754751354456" lon="4.431193443015218">
        <ele>82.629999999999995</ele>
        <time>2020-12-29T10:54:14Z</time>
      </trkpt>
      <trkpt lat="50.796741424128413" lon="4.431160502135754">
        <ele>82.629999999999995</ele>
        <time>2020-12-29T10:54:15Z</time>
      </trkpt>
      <trkpt lat="50.796729689463973" lon="4.431122280657291">
        <ele>82.650000000000006</ele>
        <time>2020-12-29T10:54:16Z</time>
      </trkpt>
      <trkpt lat="50.796721978113055" lon="4.431084981188178">
        <ele>75.659999999999997</ele>
        <time>2020-12-29T10:54:17Z</time>
      </trkpt>
      <trkpt lat="50.796712590381503" lon="4.431051453575492">
        <ele>85.319999999999993</ele>
        <time>2020-12-29T10:54:18Z</time>
      </trkpt>
      <trkpt lat="50.796703286468983" lon="4.431017255410552">
        <ele>85.349999999999994</ele>
        <time>2020-12-29T10:54:19Z</time>
      </trkpt>
      <trkpt lat="50.796702532097697" lon="4.430987248197198">
        <ele>85.340000000000003</ele>
        <time>2020-12-29T10:54:20Z</time>
      </trkpt>
      <trkpt lat="50.796657940372825" lon="4.430505707859993">
        <ele>85.340000000000003</ele>
        <time>2020-12-29T10:54:30Z</time>
      </trkpt>
      <trkpt lat="50.796563979238272" lon="4.430230613797903">
        <ele>82.790000000000006</ele>
        <time>2020-12-29T10:54:35Z</time>
      </trkpt>
      <trkpt lat="50.796427270397544" lon="4.429664667695761">
        <ele>82.760000000000005</ele>
        <time>2020-12-29T10:54:46Z</time>
      </trkpt>
      <trkpt lat="50.796283604577184" lon="4.429311957210302">
        <ele>81.859999999999999</ele>
        <time>2020-12-29T10:54:59Z</time>
      </trkpt>
      <trkpt lat="50.796270947903395" lon="4.429302988573909">
        <ele>81.859999999999999</ele>
        <time>2020-12-29T10:55:00Z</time>
      </trkpt>
      <trkpt lat="50.796224512159824" lon="4.429230652749538">
        <ele>81.840000000000003</ele>
        <time>2020-12-29T10:55:05Z</time>
      </trkpt>
      <trkpt lat="50.796122252941132" lon="4.428994785994291">
        <ele>76.219999999999999</ele>
        <time>2020-12-29T10:55:16Z</time>
      </trkpt>
      <trkpt lat="50.796122085303068" lon="4.428986990824342">
        <ele>83.120000000000005</ele>
        <time>2020-12-29T10:55:17Z</time>
      </trkpt>
      <trkpt lat="50.796117726713419" lon="4.429003922268748">
        <ele>83.109999999999999</ele>
        <time>2020-12-29T10:55:28Z</time>
      </trkpt>
      <trkpt lat="50.79611680470407" lon="4.42902110517025">
        <ele>83.109999999999999</ele>
        <time>2020-12-29T10:55:29Z</time>
      </trkpt>
      <trkpt lat="50.795996943488717" lon="4.428950864821672">
        <ele>83.079999999999998</ele>
        <time>2020-12-29T10:56:25Z</time>
      </trkpt>
      <trkpt lat="50.795988226309419" lon="4.428935023024678">
        <ele>83.150000000000006</ele>
        <time>2020-12-29T10:56:26Z</time>
      </trkpt>
      <trkpt lat="50.795974731445313" lon="4.428915996104479">
        <ele>83.150000000000006</ele>
        <time>2020-12-29T10:56:27Z</time>
      </trkpt>
      <trkpt lat="50.795966014266014" lon="4.428894622251391">
        <ele>80.810000000000002</ele>
        <time>2020-12-29T10:56:28Z</time>
      </trkpt>
      <trkpt lat="50.795957632362843" lon="4.428873332217336">
        <ele>80.819999999999993</ele>
        <time>2020-12-29T10:56:29Z</time>
      </trkpt>
      <trkpt lat="50.795868029817939" lon="4.4287249725312">
        <ele>80.859999999999999</ele>
        <time>2020-12-29T10:56:39Z</time>
      </trkpt>
      <trkpt lat="50.795754538848996" lon="4.428592119365931">
        <ele>77.939999999999998</ele>
        <time>2020-12-29T10:56:52Z</time>
      </trkpt>
      <trkpt lat="50.795735763385892" lon="4.428568063303828">
        <ele>80.530000000000001</ele>
        <time>2020-12-29T10:56:55Z</time>
      </trkpt>
      <trkpt lat="50.79554264433682" lon="4.428295232355595">
        <ele>80.730000000000004</ele>
        <time>2020-12-29T10:57:12Z</time>
      </trkpt>
      <trkpt lat="50.795525126159191" lon="4.428277462720871">
        <ele>80.730000000000004</ele>
        <time>2020-12-29T10:57:13Z</time>
      </trkpt>
      <trkpt lat="50.795488245785236" lon="4.428235637024045">
        <ele>80.75</ele>
        <time>2020-12-29T10:57:15Z</time>
      </trkpt>
      <trkpt lat="50.795319098979235" lon="4.428019132465124">
        <ele>80.870000000000005</ele>
        <time>2020-12-29T10:57:29Z</time>
      </trkpt>
      <trkpt lat="50.795178785920143" lon="4.427852416411042">
        <ele>80.989999999999995</ele>
        <time>2020-12-29T10:57:40Z</time>
      </trkpt>
      <trkpt lat="50.79503302462399" lon="4.427660806104541">
        <ele>81.069999999999993</ele>
        <time>2020-12-29T10:57:52Z</time>
      </trkpt>
      <trkpt lat="50.7948839943856" lon="4.427506579086185">
        <ele>81.209999999999994</ele>
        <time>2020-12-29T10:58:07Z</time>
      </trkpt>
      <trkpt lat="50.794796068221331" lon="4.427413791418076">
        <ele>81.319999999999993</ele>
        <time>2020-12-29T10:58:14Z</time>
      </trkpt>
      <trkpt lat="50.794643266126513" lon="4.427444217726588">
        <ele>81.340000000000003</ele>
        <time>2020-12-29T10:58:30Z</time>
      </trkpt>
      <trkpt lat="50.794631615281105" lon="4.427474224939942">
        <ele>83.219999999999999</ele>
        <time>2020-12-29T10:58:32Z</time>
      </trkpt>
      <trkpt lat="50.79461770132184" lon="4.427504483610392">
        <ele>80.319999999999993</ele>
        <time>2020-12-29T10:58:34Z</time>
      </trkpt>
      <trkpt lat="50.79453949816525" lon="4.427684191614389">
        <ele>78.599999999999994</ele>
        <time>2020-12-29T10:58:46Z</time>
      </trkpt>
      <trkpt lat="50.794446542859077" lon="4.427894996479154">
        <ele>78.629999999999995</ele>
        <time>2020-12-29T10:58:55Z</time>
      </trkpt>
      <trkpt lat="50.794358784332871" lon="4.428179310634732">
        <ele>78.689999999999998</ele>
        <time>2020-12-29T10:59:10Z</time>
      </trkpt>
      <trkpt lat="50.794249568134546" lon="4.4284797180444">
        <ele>78.719999999999999</ele>
        <time>2020-12-29T10:59:24Z</time>
      </trkpt>
      <trkpt lat="50.794213358312845" lon="4.428531434386969">
        <ele>80.980000000000004</ele>
        <time>2020-12-29T10:59:27Z</time>
      </trkpt>
      <trkpt lat="50.794194750487804" lon="4.428543169051409">
        <ele>80.980000000000004</ele>
        <time>2020-12-29T10:59:28Z</time>
      </trkpt>
      <trkpt lat="50.794180668890476" lon="4.428555825725198">
        <ele>81.040000000000006</ele>
        <time>2020-12-29T10:59:29Z</time>
      </trkpt>
      <trkpt lat="50.794074218720198" lon="4.428751962259412">
        <ele>80.989999999999995</ele>
        <time>2020-12-29T10:59:42Z</time>
      </trkpt>
      <trkpt lat="50.79397757537663" lon="4.42897567525506">
        <ele>81.010000000000005</ele>
        <time>2020-12-29T10:59:57Z</time>
      </trkpt>
      <trkpt lat="50.793867437168956" lon="4.429298546165228">
        <ele>81.879999999999995</ele>
        <time>2020-12-29T11:00:13Z</time>
      </trkpt>
      <trkpt lat="50.793778588995337" lon="4.429620243608952">
        <ele>81.849999999999994</ele>
        <time>2020-12-29T11:00:29Z</time>
      </trkpt>
      <trkpt lat="50.793675575405359" lon="4.4299147836864">
        <ele>81.870000000000005</ele>
        <time>2020-12-29T11:00:42Z</time>
      </trkpt>
      <trkpt lat="50.793661829084158" lon="4.429954178631306">
        <ele>81.890000000000001</ele>
        <time>2020-12-29T11:00:44Z</time>
      </trkpt>
      <trkpt lat="50.793639030307531" lon="4.430058281868696">
        <ele>81.900000000000006</ele>
        <time>2020-12-29T11:00:53Z</time>
      </trkpt>
      <trkpt lat="50.793488575145602" lon="4.430432198569179">
        <ele>82.700000000000003</ele>
        <time>2020-12-29T11:01:13Z</time>
      </trkpt>
      <trkpt lat="50.793377766385674" lon="4.43076747469604">
        <ele>83.829999999999998</ele>
        <time>2020-12-29T11:01:31Z</time>
      </trkpt>
      <trkpt lat="50.793216247111559" lon="4.431088585406542">
        <ele>83.790000000000006</ele>
        <time>2020-12-29T11:01:47Z</time>
      </trkpt>
      <trkpt lat="50.793169056996703" lon="4.431242225691676">
        <ele>83.769999999999996</ele>
        <time>2020-12-29T11:01:53Z</time>
      </trkpt>
      <trkpt lat="50.793158076703548" lon="4.431270975619555">
        <ele>83.780000000000001</ele>
        <time>2020-12-29T11:01:54Z</time>
      </trkpt>
      <trkpt lat="50.793130835518241" lon="4.431361919268966">
        <ele>85.540000000000006</ele>
        <time>2020-12-29T11:01:58Z</time>
      </trkpt>
      <trkpt lat="50.793121280148625" lon="4.431381784379482">
        <ele>85.530000000000001</ele>
        <time>2020-12-29T11:01:59Z</time>
      </trkpt>
      <trkpt lat="50.793062774464488" lon="4.431526623666287">
        <ele>86.480000000000004</ele>
        <time>2020-12-29T11:02:08Z</time>
      </trkpt>
      <trkpt lat="50.793054392561316" lon="4.431553864851594">
        <ele>86.489999999999995</ele>
        <time>2020-12-29T11:02:09Z</time>
      </trkpt>
      <trkpt lat="50.792967891320586" lon="4.431725945323706">
        <ele>88.200000000000003</ele>
        <time>2020-12-29T11:02:19Z</time>
      </trkpt>
      <trkpt lat="50.792934279888868" lon="4.431783193722367">
        <ele>88.180000000000007</ele>
        <time>2020-12-29T11:02:22Z</time>
      </trkpt>
      <trkpt lat="50.792923215776682" lon="4.431810854002833">
        <ele>89.150000000000006</ele>
        <time>2020-12-29T11:02:23Z</time>
      </trkpt>
      <trkpt lat="50.792859764769673" lon="4.431910179555416">
        <ele>89.159999999999997</ele>
        <time>2020-12-29T11:02:28Z</time>
      </trkpt>
      <trkpt lat="50.792839983478189" lon="4.431927362456918">
        <ele>90.010000000000005</ele>
        <time>2020-12-29T11:02:29Z</time>
      </trkpt>
      <trkpt lat="50.79282489605248" lon="4.431942366063595">
        <ele>90</ele>
        <time>2020-12-29T11:02:30Z</time>
      </trkpt>
      <trkpt lat="50.79281902872026" lon="4.431958710774779">
        <ele>90.010000000000005</ele>
        <time>2020-12-29T11:02:31Z</time>
      </trkpt>
      <trkpt lat="50.79272816888988" lon="4.432136071845889">
        <ele>91.790000000000006</ele>
        <time>2020-12-29T11:02:44Z</time>
      </trkpt>
      <trkpt lat="50.792711153626442" lon="4.432213185355067">
        <ele>92.819999999999993</ele>
        <time>2020-12-29T11:02:48Z</time>
      </trkpt>
      <trkpt lat="50.792706040665507" lon="4.432238917797804">
        <ele>93.599999999999994</ele>
        <time>2020-12-29T11:02:49Z</time>
      </trkpt>
      <trkpt lat="50.792695563286543" lon="4.43226364441216">
        <ele>93.609999999999999</ele>
        <time>2020-12-29T11:02:50Z</time>
      </trkpt>
      <trkpt lat="50.792590957134962" lon="4.432459278032184">
        <ele>94.390000000000001</ele>
        <time>2020-12-29T11:03:02Z</time>
      </trkpt>
      <trkpt lat="50.792516190558672" lon="4.432577630504966">
        <ele>96.340000000000003</ele>
        <time>2020-12-29T11:03:12Z</time>
      </trkpt>
      <trkpt lat="50.792431952431798" lon="4.432696821168065">
        <ele>98.129999999999995</ele>
        <time>2020-12-29T11:03:21Z</time>
      </trkpt>
      <trkpt lat="50.792425582185388" lon="4.432713417336345">
        <ele>98.150000000000006</ele>
        <time>2020-12-29T11:03:22Z</time>
      </trkpt>
      <trkpt lat="50.792410830035806" lon="4.432742670178413">
        <ele>99.280000000000001</ele>
        <time>2020-12-29T11:03:24Z</time>
      </trkpt>
      <trkpt lat="50.792399765923619" lon="4.432755578309298">
        <ele>96.159999999999997</ele>
        <time>2020-12-29T11:03:25Z</time>
      </trkpt>
      <trkpt lat="50.792273115366697" lon="4.432976525276899">
        <ele>98.659999999999997</ele>
        <time>2020-12-29T11:03:38Z</time>
      </trkpt>
      <trkpt lat="50.792182004079223" lon="4.43319202400744">
        <ele>99.5</ele>
        <time>2020-12-29T11:03:51Z</time>
      </trkpt>
      <trkpt lat="50.792054515331984" lon="4.433372486382723">
        <ele>99.469999999999999</ele>
        <time>2020-12-29T11:04:03Z</time>
      </trkpt>
      <trkpt lat="50.79201478511095" lon="4.433445828035474">
        <ele>99.459999999999994</ele>
        <time>2020-12-29T11:04:06Z</time>
      </trkpt>
      <trkpt lat="50.792002212256193" lon="4.433460664004087">
        <ele>99.469999999999999</ele>
        <time>2020-12-29T11:04:07Z</time>
      </trkpt>
      <trkpt lat="50.791971534490585" lon="4.433505842462182">
        <ele>99.459999999999994</ele>
        <time>2020-12-29T11:04:10Z</time>
      </trkpt>
      <trkpt lat="50.791960638016462" lon="4.433520762249827">
        <ele>99.459999999999994</ele>
        <time>2020-12-29T11:04:11Z</time>
      </trkpt>
      <trkpt lat="50.791874723508954" lon="4.433588655665517">
        <ele>99.439999999999998</ele>
        <time>2020-12-29T11:04:19Z</time>
      </trkpt>
      <trkpt lat="50.791833903640509" lon="4.433622434735298">
        <ele>99.409999999999997</ele>
        <time>2020-12-29T11:04:22Z</time>
      </trkpt>
      <trkpt lat="50.791740780696273" lon="4.433695776388049">
        <ele>96.950000000000003</ele>
        <time>2020-12-29T11:04:30Z</time>
      </trkpt>
      <trkpt lat="50.791713707149029" lon="4.433708768337965">
        <ele>96.140000000000001</ele>
        <time>2020-12-29T11:04:33Z</time>
      </trkpt>
      <trkpt lat="50.791700463742018" lon="4.433713378384709">
        <ele>96.170000000000002</ele>
        <time>2020-12-29T11:04:34Z</time>
      </trkpt>
      <trkpt lat="50.791659811511636" lon="4.433752605691552">
        <ele>95.230000000000004</ele>
        <time>2020-12-29T11:04:40Z</time>
      </trkpt>
      <trkpt lat="50.791651010513306" lon="4.433759395033121">
        <ele>95.25</ele>
        <time>2020-12-29T11:04:41Z</time>
      </trkpt>
      <trkpt lat="50.791613208130002" lon="4.433795688673854">
        <ele>94.5</ele>
        <time>2020-12-29T11:04:45Z</time>
      </trkpt>
      <trkpt lat="50.79154028557241" lon="4.433955866843462">
        <ele>93.609999999999999</ele>
        <time>2020-12-29T11:04:56Z</time>
      </trkpt>
      <trkpt lat="50.791376754641533" lon="4.434174047783017">
        <ele>91.459999999999994</ele>
        <time>2020-12-29T11:05:09Z</time>
      </trkpt>
      <trkpt lat="50.791365522891283" lon="4.434186117723584">
        <ele>91.459999999999994</ele>
        <time>2020-12-29T11:05:10Z</time>
      </trkpt>
      <trkpt lat="50.791322188451886" lon="4.434236409142613">
        <ele>94.060000000000002</ele>
        <time>2020-12-29T11:05:14Z</time>
      </trkpt>
      <trkpt lat="50.791294779628515" lon="4.434260381385684">
        <ele>94.030000000000001</ele>
        <time>2020-12-29T11:05:16Z</time>
      </trkpt>
      <trkpt lat="50.791282039135695" lon="4.434267254546285">
        <ele>93.989999999999995</ele>
        <time>2020-12-29T11:05:17Z</time>
      </trkpt>
      <trkpt lat="50.791195202618837" lon="4.434331208467484">
        <ele>91.640000000000001</ele>
        <time>2020-12-29T11:05:24Z</time>
      </trkpt>
      <trkpt lat="50.791147593408823" lon="4.434430869296193">
        <ele>91.579999999999998</ele>
        <time>2020-12-29T11:05:27Z</time>
      </trkpt>
      <trkpt lat="50.791099984198809" lon="4.434458529576659">
        <ele>91.609999999999999</ele>
        <time>2020-12-29T11:05:31Z</time>
      </trkpt>
      <trkpt lat="50.791068384423852" lon="4.434488704428077">
        <ele>90.769999999999996</ele>
        <time>2020-12-29T11:05:34Z</time>
      </trkpt>
      <trkpt lat="50.791057236492634" lon="4.4345064740628">
        <ele>90.769999999999996</ele>
        <time>2020-12-29T11:05:35Z</time>
      </trkpt>
      <trkpt lat="50.791046256199479" lon="4.434521729126573">
        <ele>90.780000000000001</ele>
        <time>2020-12-29T11:05:36Z</time>
      </trkpt>
      <trkpt lat="50.791037539020181" lon="4.434534637257457">
        <ele>90.780000000000001</ele>
        <time>2020-12-29T11:05:37Z</time>
      </trkpt>
      <trkpt lat="50.791025636717677" lon="4.434550143778324">
        <ele>90.799999999999997</ele>
        <time>2020-12-29T11:05:38Z</time>
      </trkpt>
      <trkpt lat="50.790942320600152" lon="4.434693474322557">
        <ele>90.859999999999999</ele>
        <time>2020-12-29T11:05:48Z</time>
      </trkpt>
      <trkpt lat="50.790934106335044" lon="4.434709399938583">
        <ele>90.870000000000005</ele>
        <time>2020-12-29T11:05:49Z</time>
      </trkpt>
      <trkpt lat="50.790924970060587" lon="4.434726163744927">
        <ele>90.870000000000005</ele>
        <time>2020-12-29T11:05:50Z</time>
      </trkpt>
      <trkpt lat="50.790914325043559" lon="4.434740664437413">
        <ele>90.879999999999995</ele>
        <time>2020-12-29T11:05:51Z</time>
      </trkpt>
      <trkpt lat="50.79090460203588" lon="4.434756422415376">
        <ele>86.549999999999997</ele>
        <time>2020-12-29T11:05:52Z</time>
      </trkpt>
      <trkpt lat="50.790896220132709" lon="4.434771426022053">
        <ele>93.040000000000006</ele>
        <time>2020-12-29T11:05:53Z</time>
      </trkpt>
      <trkpt lat="50.790888424962759" lon="4.434788608923554">
        <ele>93.040000000000006</ele>
        <time>2020-12-29T11:05:54Z</time>
      </trkpt>
      <trkpt lat="50.79086059704423" lon="4.434847366064787">
        <ele>89.739999999999995</ele>
        <time>2020-12-29T11:05:58Z</time>
      </trkpt>
      <trkpt lat="50.790740065276623" lon="4.435051297768951">
        <ele>92.120000000000005</ele>
        <time>2020-12-29T11:06:07Z</time>
      </trkpt>
      <trkpt lat="50.790728582069278" lon="4.435072587803006">
        <ele>92.109999999999999</ele>
        <time>2020-12-29T11:06:08Z</time>
      </trkpt>
      <trkpt lat="50.790589526295662" lon="4.435244500637054">
        <ele>92.159999999999997</ele>
        <time>2020-12-29T11:06:21Z</time>
      </trkpt>
      <trkpt lat="50.790378302335739" lon="4.435578687116504">
        <ele>92.170000000000002</ele>
        <time>2020-12-29T11:06:39Z</time>
      </trkpt>
      <trkpt lat="50.790088288486004" lon="4.436105154454708">
        <ele>92.950000000000003</ele>
        <time>2020-12-29T11:07:09Z</time>
      </trkpt>
      <trkpt lat="50.789967840537429" lon="4.436333142220974">
        <ele>92.900000000000006</ele>
        <time>2020-12-29T11:07:22Z</time>
      </trkpt>
      <trkpt lat="50.789701212197542" lon="4.436655007302761">
        <ele>93.730000000000004</ele>
        <time>2020-12-29T11:07:47Z</time>
      </trkpt>
      <trkpt lat="50.789565425366163" lon="4.436825243756175">
        <ele>95.459999999999994</ele>
        <time>2020-12-29T11:07:59Z</time>
      </trkpt>
      <trkpt lat="50.789391165599227" lon="4.437012998387218">
        <ele>97.019999999999996</ele>
        <time>2020-12-29T11:08:13Z</time>
      </trkpt>
      <trkpt lat="50.789314555004239" lon="4.43712942302227">
        <ele>97.980000000000004</ele>
        <time>2020-12-29T11:08:20Z</time>
      </trkpt>
      <trkpt lat="50.789302736520767" lon="4.437136631458998">
        <ele>97.980000000000004</ele>
        <time>2020-12-29T11:08:21Z</time>
      </trkpt>
      <trkpt lat="50.789293767884374" lon="4.437148114666343">
        <ele>97.969999999999999</ele>
        <time>2020-12-29T11:08:22Z</time>
      </trkpt>
      <trkpt lat="50.789280943572521" lon="4.437156077474356">
        <ele>97.969999999999999</ele>
        <time>2020-12-29T11:08:23Z</time>
      </trkpt>
      <trkpt lat="50.789268789812922" lon="4.437162699177861">
        <ele>97.969999999999999</ele>
        <time>2020-12-29T11:08:24Z</time>
      </trkpt>
      <trkpt lat="50.789255378767848" lon="4.43718264810741">
        <ele>98.920000000000002</ele>
        <time>2020-12-29T11:08:25Z</time>
      </trkpt>
      <trkpt lat="50.789204835891724" lon="4.437242578715086">
        <ele>100.63</ele>
        <time>2020-12-29T11:08:30Z</time>
      </trkpt>
      <trkpt lat="50.789108024910092" lon="4.437413401901722">
        <ele>100.51000000000001</ele>
        <time>2020-12-29T11:08:41Z</time>
      </trkpt>
      <trkpt lat="50.789092183113098" lon="4.437427064403892">
        <ele>100.52</ele>
        <time>2020-12-29T11:08:42Z</time>
      </trkpt>
      <trkpt lat="50.789023535326123" lon="4.437563354149461">
        <ele>100.48999999999999</ele>
        <time>2020-12-29T11:08:50Z</time>
      </trkpt>
      <trkpt lat="50.789014650508761" lon="4.437577351927757">
        <ele>100.48999999999999</ele>
        <time>2020-12-29T11:08:51Z</time>
      </trkpt>
      <trkpt lat="50.789004508405924" lon="4.437596295028925">
        <ele>100.48999999999999</ele>
        <time>2020-12-29T11:08:52Z</time>
      </trkpt>
      <trkpt lat="50.788805270567536" lon="4.437959315255284">
        <ele>100.43000000000001</ele>
        <time>2020-12-29T11:09:15Z</time>
      </trkpt>
      <trkpt lat="50.788687923923135" lon="4.438108177855611">
        <ele>100.47</ele>
        <time>2020-12-29T11:09:24Z</time>
      </trkpt>
      <trkpt lat="50.78845264390111" lon="4.438402969390154">
        <ele>101.39</ele>
        <time>2020-12-29T11:09:46Z</time>
      </trkpt>
      <trkpt lat="50.788444429636002" lon="4.438429120928049">
        <ele>101.40000000000001</ele>
        <time>2020-12-29T11:09:47Z</time>
      </trkpt>
      <trkpt lat="50.788437556475401" lon="4.438454769551754">
        <ele>101.41</ele>
        <time>2020-12-29T11:09:48Z</time>
      </trkpt>
      <trkpt lat="50.788430850952864" lon="4.438476478680968">
        <ele>101.42</ele>
        <time>2020-12-29T11:09:49Z</time>
      </trkpt>
      <trkpt lat="50.788426240906119" lon="4.438501875847578">
        <ele>101.41</ele>
        <time>2020-12-29T11:09:50Z</time>
      </trkpt>
      <trkpt lat="50.788418864831328" lon="4.438526099547744">
        <ele>101.43000000000001</ele>
        <time>2020-12-29T11:09:51Z</time>
      </trkpt>
      <trkpt lat="50.788409728556871" lon="4.438551580533385">
        <ele>101.44</ele>
        <time>2020-12-29T11:09:52Z</time>
      </trkpt>
      <trkpt lat="50.788357676938176" lon="4.438798930495977">
        <ele>101.51000000000001</ele>
        <time>2020-12-29T11:10:02Z</time>
      </trkpt>
      <trkpt lat="50.788346361368895" lon="4.438822316005826">
        <ele>101.52</ele>
        <time>2020-12-29T11:10:03Z</time>
      </trkpt>
      <trkpt lat="50.788223315030336" lon="4.439002275466919">
        <ele>101.63</ele>
        <time>2020-12-29T11:10:16Z</time>
      </trkpt>
      <trkpt lat="50.788149973377585" lon="4.439091961830854">
        <ele>101.7</ele>
        <time>2020-12-29T11:10:24Z</time>
      </trkpt>
      <trkpt lat="50.78813748434186" lon="4.439103696495295">
        <ele>101.7</ele>
        <time>2020-12-29T11:10:25Z</time>
      </trkpt>
      <trkpt lat="50.788125414401293" lon="4.439118281006813">
        <ele>101.70999999999999</ele>
        <time>2020-12-29T11:10:26Z</time>
      </trkpt>
      <trkpt lat="50.788105465471745" lon="4.439164716750383">
        <ele>99.400000000000006</ele>
        <time>2020-12-29T11:10:29Z</time>
      </trkpt>
      <trkpt lat="50.788072692230344" lon="4.439210565760732">
        <ele>98.590000000000003</ele>
        <time>2020-12-29T11:10:33Z</time>
      </trkpt>
      <trkpt lat="50.787942437455058" lon="4.439371582120657">
        <ele>96.920000000000002</ele>
        <time>2020-12-29T11:10:45Z</time>
      </trkpt>
      <trkpt lat="50.78791762702167" lon="4.43942204117775">
        <ele>96.180000000000007</ele>
        <time>2020-12-29T11:10:47Z</time>
      </trkpt>
      <trkpt lat="50.787896923720837" lon="4.439502842724323">
        <ele>94.829999999999998</ele>
        <time>2020-12-29T11:10:50Z</time>
      </trkpt>
      <trkpt lat="50.787885440513492" lon="4.439525557681918">
        <ele>94.840000000000003</ele>
        <time>2020-12-29T11:10:51Z</time>
      </trkpt>
      <trkpt lat="50.787847051396966" lon="4.439559252932668">
        <ele>94.829999999999998</ele>
        <time>2020-12-29T11:10:55Z</time>
      </trkpt>
      <trkpt lat="50.787829868495464" lon="4.439577274024487">
        <ele>94.829999999999998</ele>
        <time>2020-12-29T11:10:56Z</time>
      </trkpt>
      <trkpt lat="50.787767423316836" lon="4.439671486616135">
        <ele>94.890000000000001</ele>
        <time>2020-12-29T11:11:01Z</time>
      </trkpt>
      <trkpt lat="50.787749402225018" lon="4.439699314534664">
        <ele>94.920000000000002</ele>
        <time>2020-12-29T11:11:02Z</time>
      </trkpt>
      <trkpt lat="50.787680083885789" lon="4.439798640087247">
        <ele>95</ele>
        <time>2020-12-29T11:11:07Z</time>
      </trkpt>
      <trkpt lat="50.787612861022353" lon="4.439907437190414">
        <ele>97.430000000000007</ele>
        <time>2020-12-29T11:11:13Z</time>
      </trkpt>
      <trkpt lat="50.787527281790972" lon="4.44006510078907">
        <ele>93.099999999999994</ele>
        <time>2020-12-29T11:11:23Z</time>
      </trkpt>
      <trkpt lat="50.787525270134211" lon="4.440072057768703">
        <ele>98.140000000000001</ele>
        <time>2020-12-29T11:11:24Z</time>
      </trkpt>
      <trkpt lat="50.787426363676786" lon="4.440289819613099">
        <ele>95.640000000000001</ele>
        <time>2020-12-29T11:11:34Z</time>
      </trkpt>
      <trkpt lat="50.787387974560261" lon="4.44047556258738">
        <ele>95.579999999999998</ele>
        <time>2020-12-29T11:11:41Z</time>
      </trkpt>
      <trkpt lat="50.787388226017356" lon="4.440500540658832">
        <ele>95.590000000000003</ele>
        <time>2020-12-29T11:11:42Z</time>
      </trkpt>
      <trkpt lat="50.787249337881804" lon="4.440825674682856">
        <ele>95.620000000000005</ele>
        <time>2020-12-29T11:11:58Z</time>
      </trkpt>
      <trkpt lat="50.787089075893164" lon="4.441072102636099">
        <ele>97.790000000000006</ele>
        <time>2020-12-29T11:12:12Z</time>
      </trkpt>
      <trkpt lat="50.787030234932899" lon="4.441181654110551">
        <ele>97.739999999999995</ele>
        <time>2020-12-29T11:12:20Z</time>
      </trkpt>
      <trkpt lat="50.78702537342906" lon="4.441194562241435">
        <ele>97.739999999999995</ele>
        <time>2020-12-29T11:12:21Z</time>
      </trkpt>
      <trkpt lat="50.786967622116208" lon="4.441289026290178">
        <ele>97.680000000000007</ele>
        <time>2020-12-29T11:12:28Z</time>
      </trkpt>
      <trkpt lat="50.786960078403354" lon="4.441313333809376">
        <ele>97.680000000000007</ele>
        <time>2020-12-29T11:12:29Z</time>
      </trkpt>
      <trkpt lat="50.786947840824723" lon="4.441351303830743">
        <ele>97.670000000000002</ele>
        <time>2020-12-29T11:12:31Z</time>
      </trkpt>
      <trkpt lat="50.786937447264791" lon="4.441372342407703">
        <ele>97.670000000000002</ele>
        <time>2020-12-29T11:12:32Z</time>
      </trkpt>
      <trkpt lat="50.786835690960288" lon="4.441498490050435">
        <ele>97.609999999999999</ele>
        <time>2020-12-29T11:12:41Z</time>
      </trkpt>
      <trkpt lat="50.786825297400355" lon="4.441528916358948">
        <ele>97.590000000000003</ele>
        <time>2020-12-29T11:12:42Z</time>
      </trkpt>
      <trkpt lat="50.786786740645766" lon="4.44155833683908">
        <ele>94.230000000000004</ele>
        <time>2020-12-29T11:12:45Z</time>
      </trkpt>
      <trkpt lat="50.786720607429743" lon="4.441677108407021">
        <ele>96.909999999999997</ele>
        <time>2020-12-29T11:12:51Z</time>
      </trkpt>
      <trkpt lat="50.78667014837265" lon="4.441864863038063">
        <ele>94.540000000000006</ele>
        <time>2020-12-29T11:12:58Z</time>
      </trkpt>
      <trkpt lat="50.786601416766644" lon="4.44198933430016">
        <ele>92.840000000000003</ele>
        <time>2020-12-29T11:13:06Z</time>
      </trkpt>
      <trkpt lat="50.786588508635759" lon="4.441992519423366">
        <ele>92.829999999999998</ele>
        <time>2020-12-29T11:13:07Z</time>
      </trkpt>
      <trkpt lat="50.786485746502876" lon="4.44222922436893">
        <ele>91.980000000000004</ele>
        <time>2020-12-29T11:13:19Z</time>
      </trkpt>
      <trkpt lat="50.786418942734599" lon="4.442423097789288">
        <ele>94.349999999999994</ele>
        <time>2020-12-29T11:13:25Z</time>
      </trkpt>
      <trkpt lat="50.786405531689525" lon="4.442472551018">
        <ele>95.519999999999996</ele>
        <time>2020-12-29T11:13:27Z</time>
      </trkpt>
      <trkpt lat="50.786381559446454" lon="4.442551173269749">
        <ele>97.480000000000004</ele>
        <time>2020-12-29T11:13:30Z</time>
      </trkpt>
      <trkpt lat="50.786376865580678" lon="4.442592328414321">
        <ele>97.510000000000005</ele>
        <time>2020-12-29T11:13:31Z</time>
      </trkpt>
      <trkpt lat="50.786374183371663" lon="4.442633064463735">
        <ele>97.480000000000004</ele>
        <time>2020-12-29T11:13:32Z</time>
      </trkpt>
      <trkpt lat="50.786372339352965" lon="4.442676985636354">
        <ele>98.650000000000006</ele>
        <time>2020-12-29T11:13:33Z</time>
      </trkpt>
      <trkpt lat="50.78636814840138" lon="4.442732390016317">
        <ele>98.609999999999999</ele>
        <time>2020-12-29T11:13:34Z</time>
      </trkpt>
      <trkpt lat="50.786348367109895" lon="4.443055596202612">
        <ele>98.459999999999994</ele>
        <time>2020-12-29T11:13:43Z</time>
      </trkpt>
      <trkpt lat="50.786124570295215" lon="4.443506123498082">
        <ele>99.010000000000005</ele>
        <time>2020-12-29T11:13:55Z</time>
      </trkpt>
      <trkpt lat="50.785916028544307" lon="4.443900240585208">
        <ele>98.879999999999995</ele>
        <time>2020-12-29T11:14:06Z</time>
      </trkpt>
      <trkpt lat="50.78583849593997" lon="4.44413585588336">
        <ele>98.819999999999993</ele>
        <time>2020-12-29T11:14:11Z</time>
      </trkpt>
      <trkpt lat="50.78582332469523" lon="4.44419838488102">
        <ele>98.799999999999997</ele>
        <time>2020-12-29T11:14:12Z</time>
      </trkpt>
      <trkpt lat="50.785614363849163" lon="4.444568948820233">
        <ele>98.709999999999994</ele>
        <time>2020-12-29T11:14:24Z</time>
      </trkpt>
      <trkpt lat="50.785551248118281" lon="4.444663664326072">
        <ele>98.650000000000006</ele>
        <time>2020-12-29T11:14:30Z</time>
      </trkpt>
      <trkpt lat="50.785457957535982" lon="4.444907074794173">
        <ele>95.340000000000003</ele>
        <time>2020-12-29T11:14:38Z</time>
      </trkpt>
      <trkpt lat="50.785450078547001" lon="4.44492744281888">
        <ele>98.769999999999996</ele>
        <time>2020-12-29T11:14:39Z</time>
      </trkpt>
      <trkpt lat="50.785402720794082" lon="4.445025846362114">
        <ele>96.310000000000002</ele>
        <time>2020-12-29T11:14:45Z</time>
      </trkpt>
      <trkpt lat="50.785391656681895" lon="4.445039760321379">
        <ele>96.290000000000006</ele>
        <time>2020-12-29T11:14:46Z</time>
      </trkpt>
      <trkpt lat="50.78538310714066" lon="4.445059457793832">
        <ele>96.260000000000005</ele>
        <time>2020-12-29T11:14:47Z</time>
      </trkpt>
      <trkpt lat="50.785376317799091" lon="4.445082591846585">
        <ele>96.269999999999996</ele>
        <time>2020-12-29T11:14:48Z</time>
      </trkpt>
      <trkpt lat="50.785144390538335" lon="4.445418957620859">
        <ele>94.329999999999998</ele>
        <time>2020-12-29T11:15:09Z</time>
      </trkpt>
      <trkpt lat="50.785133242607117" lon="4.445421053096652">
        <ele>93.370000000000005</ele>
        <time>2020-12-29T11:15:10Z</time>
      </trkpt>
      <trkpt lat="50.785121424123645" lon="4.445421975106001">
        <ele>93.370000000000005</ele>
        <time>2020-12-29T11:15:11Z</time>
      </trkpt>
      <trkpt lat="50.785108599811792" lon="4.445438571274281">
        <ele>93.359999999999999</ele>
        <time>2020-12-29T11:15:12Z</time>
      </trkpt>
      <trkpt lat="50.785092422738671" lon="4.44545122794807">
        <ele>93.359999999999999</ele>
        <time>2020-12-29T11:15:13Z</time>
      </trkpt>
      <trkpt lat="50.78507917933166" lon="4.445458352565765">
        <ele>93.349999999999994</ele>
        <time>2020-12-29T11:15:14Z</time>
      </trkpt>
      <trkpt lat="50.785053195431828" lon="4.445486096665263">
        <ele>93.329999999999998</ele>
        <time>2020-12-29T11:15:16Z</time>
      </trkpt>
      <trkpt lat="50.78503810800612" lon="4.445494897663593">
        <ele>91.379999999999995</ele>
        <time>2020-12-29T11:15:17Z</time>
      </trkpt>
      <trkpt lat="50.785026792436838" lon="4.445510907098651">
        <ele>95.019999999999996</ele>
        <time>2020-12-29T11:15:18Z</time>
      </trkpt>
      <trkpt lat="50.785015895962715" lon="4.445519289001823">
        <ele>95.019999999999996</ele>
        <time>2020-12-29T11:15:19Z</time>
      </trkpt>
      <trkpt lat="50.784824369475245" lon="4.44556949660182">
        <ele>94.950000000000003</ele>
        <time>2020-12-29T11:15:33Z</time>
      </trkpt>
      <trkpt lat="50.784655474126339" lon="4.445508476346731">
        <ele>95.609999999999999</ele>
        <time>2020-12-29T11:15:45Z</time>
      </trkpt>
      <trkpt lat="50.784633597359061" lon="4.445389956235886">
        <ele>91.620000000000005</ele>
        <time>2020-12-29T11:15:53Z</time>
      </trkpt>
      <trkpt lat="50.784641392529011" lon="4.445354249328375">
        <ele>98.439999999999998</ele>
        <time>2020-12-29T11:15:55Z</time>
      </trkpt>
      <trkpt lat="50.784637536853552" lon="4.445335473865271">
        <ele>98.420000000000002</ele>
        <time>2020-12-29T11:15:56Z</time>
      </trkpt>
      <trkpt lat="50.784633429720998" lon="4.445313345640898">
        <ele>95.810000000000002</ele>
        <time>2020-12-29T11:15:57Z</time>
      </trkpt>
      <trkpt lat="50.784627562388778" lon="4.445291049778462">
        <ele>95.780000000000001</ele>
        <time>2020-12-29T11:15:58Z</time>
      </trkpt>
      <trkpt lat="50.784625299274921" lon="4.445267580449581">
        <ele>95.75</ele>
        <time>2020-12-29T11:15:59Z</time>
      </trkpt>
      <trkpt lat="50.784635273739696" lon="4.444869607686997">
        <ele>94.689999999999998</ele>
        <time>2020-12-29T11:16:19Z</time>
      </trkpt>
      <trkpt lat="50.784572493284941" lon="4.443803261965513">
        <ele>96.209999999999994</ele>
        <time>2020-12-29T11:17:05Z</time>
      </trkpt>
      <trkpt lat="50.784577270969748" lon="4.44377233274281">
        <ele>96.189999999999998</ele>
        <time>2020-12-29T11:17:06Z</time>
      </trkpt>
      <trkpt lat="50.784579534083605" lon="4.443744253367186">
        <ele>96.189999999999998</ele>
        <time>2020-12-29T11:17:07Z</time>
      </trkpt>
      <trkpt lat="50.784579114988446" lon="4.443712737411261">
        <ele>96.180000000000007</ele>
        <time>2020-12-29T11:17:08Z</time>
      </trkpt>
      <trkpt lat="50.784618174657226" lon="4.442683774977922">
        <ele>102.64</ele>
        <time>2020-12-29T11:17:31Z</time>
      </trkpt>
      <trkpt lat="50.784620521590114" lon="4.442625269293785">
        <ele>102.62</ele>
        <time>2020-12-29T11:17:32Z</time>
      </trkpt>
      <trkpt lat="50.78461054712534" lon="4.442518148571253">
        <ele>99.719999999999999</ele>
        <time>2020-12-29T11:17:34Z</time>
      </trkpt>
      <trkpt lat="50.784605266526341" lon="4.44246425293386">
        <ele>99.670000000000002</ele>
        <time>2020-12-29T11:17:35Z</time>
      </trkpt>
      <trkpt lat="50.784600069746375" lon="4.442402729764581">
        <ele>106.06999999999999</ele>
        <time>2020-12-29T11:17:36Z</time>
      </trkpt>
      <trkpt lat="50.784608451649547" lon="4.442334333434701">
        <ele>102.38</ele>
        <time>2020-12-29T11:17:37Z</time>
      </trkpt>
      <trkpt lat="50.784614570438862" lon="4.442272977903485">
        <ele>102.31</ele>
        <time>2020-12-29T11:17:38Z</time>
      </trkpt>
      <trkpt lat="50.784614821895957" lon="4.442217741161585">
        <ele>102.28</ele>
        <time>2020-12-29T11:17:39Z</time>
      </trkpt>
      <trkpt lat="50.78461792320013" lon="4.442166863009334">
        <ele>102.25</ele>
        <time>2020-12-29T11:17:40Z</time>
      </trkpt>
      <trkpt lat="50.784620102494955" lon="4.4421168230474">
        <ele>102.22</ele>
        <time>2020-12-29T11:17:41Z</time>
      </trkpt>
      <trkpt lat="50.78464281745255" lon="4.441881123930216">
        <ele>102.13</ele>
        <time>2020-12-29T11:17:45Z</time>
      </trkpt>
      <trkpt lat="50.784644242376089" lon="4.441818008199334">
        <ele>102.09999999999999</ele>
        <time>2020-12-29T11:17:46Z</time>
      </trkpt>
      <trkpt lat="50.784644074738026" lon="4.441766375675798">
        <ele>102.08</ele>
        <time>2020-12-29T11:17:47Z</time>
      </trkpt>
      <trkpt lat="50.784629071131349" lon="4.441715497523546">
        <ele>102.06</ele>
        <time>2020-12-29T11:17:48Z</time>
      </trkpt>
      <trkpt lat="50.784624796360731" lon="4.441666882485151">
        <ele>102.05</ele>
        <time>2020-12-29T11:17:49Z</time>
      </trkpt>
      <trkpt lat="50.784624461084604" lon="4.441255163401365">
        <ele>104.12</ele>
        <time>2020-12-29T11:17:58Z</time>
      </trkpt>
      <trkpt lat="50.784621108323336" lon="4.44123194552958">
        <ele>100.14</ele>
        <time>2020-12-29T11:17:59Z</time>
      </trkpt>
      <trkpt lat="50.784618426114321" lon="4.441205123439431">
        <ele>105.63</ele>
        <time>2020-12-29T11:18:00Z</time>
      </trkpt>
      <trkpt lat="50.784619599580765" lon="4.44112884812057">
        <ele>103.14</ele>
        <time>2020-12-29T11:18:03Z</time>
      </trkpt>
      <trkpt lat="50.784620605409145" lon="4.441074281930924">
        <ele>102.26000000000001</ele>
        <time>2020-12-29T11:18:05Z</time>
      </trkpt>
      <trkpt lat="50.784586658701301" lon="4.440842606127262">
        <ele>100.95</ele>
        <time>2020-12-29T11:18:15Z</time>
      </trkpt>
      <trkpt lat="50.784570146352053" lon="4.4408009480685">
        <ele>100</ele>
        <time>2020-12-29T11:18:17Z</time>
      </trkpt>
      <trkpt lat="50.784543408080935" lon="4.440723583102226">
        <ele>98.379999999999995</ele>
        <time>2020-12-29T11:18:20Z</time>
      </trkpt>
      <trkpt lat="50.784487584605813" lon="4.440053198486567">
        <ele>100.11</ele>
        <time>2020-12-29T11:18:47Z</time>
      </trkpt>
      <trkpt lat="50.784486327320337" lon="4.440035177394748">
        <ele>100.09999999999999</ele>
        <time>2020-12-29T11:18:48Z</time>
      </trkpt>
      <trkpt lat="50.7844761852175" lon="4.43984616547823">
        <ele>100.61</ele>
        <time>2020-12-29T11:18:58Z</time>
      </trkpt>
      <trkpt lat="50.784474927932024" lon="4.439820684492588">
        <ele>100.59</ele>
        <time>2020-12-29T11:18:59Z</time>
      </trkpt>
      <trkpt lat="50.784475347027183" lon="4.439725214615464">
        <ele>100.38</ele>
        <time>2020-12-29T11:19:03Z</time>
      </trkpt>
      <trkpt lat="50.784474508836865" lon="4.439675258472562">
        <ele>102.26000000000001</ele>
        <time>2020-12-29T11:19:05Z</time>
      </trkpt>
      <trkpt lat="50.784468054771423" lon="4.439608035609126">
        <ele>102.23999999999999</ele>
        <time>2020-12-29T11:19:08Z</time>
      </trkpt>
      <trkpt lat="50.784441903233528" lon="4.439333947375417">
        <ele>101.73</ele>
        <time>2020-12-29T11:19:21Z</time>
      </trkpt>
      <trkpt lat="50.784395048394799" lon="4.439255828037858">
        <ele>101.58</ele>
        <time>2020-12-29T11:19:25Z</time>
      </trkpt>
      <trkpt lat="50.784328663721681" lon="4.439129931852222">
        <ele>100.43000000000001</ele>
        <time>2020-12-29T11:19:32Z</time>
      </trkpt>
      <trkpt lat="50.78432128764689" lon="4.439114676788449">
        <ele>103</ele>
        <time>2020-12-29T11:19:34Z</time>
      </trkpt>
      <trkpt lat="50.784214418381453" lon="4.438914936035872">
        <ele>102.33</ele>
        <time>2020-12-29T11:19:51Z</time>
      </trkpt>
      <trkpt lat="50.784089947119355" lon="4.438762804493308">
        <ele>101.91</ele>
        <time>2020-12-29T11:20:04Z</time>
      </trkpt>
      <trkpt lat="50.783887607976794" lon="4.438618468120694">
        <ele>101.59999999999999</ele>
        <time>2020-12-29T11:20:18Z</time>
      </trkpt>
      <trkpt lat="50.783730866387486" lon="4.438561806455255">
        <ele>101.43000000000001</ele>
        <time>2020-12-29T11:20:29Z</time>
      </trkpt>
      <trkpt lat="50.783542525023222" lon="4.43844529800117">
        <ele>101.29000000000001</ele>
        <time>2020-12-29T11:20:41Z</time>
      </trkpt>
      <trkpt lat="50.783351669088006" lon="4.438279001042247">
        <ele>101.22</ele>
        <time>2020-12-29T11:20:58Z</time>
      </trkpt>
      <trkpt lat="50.783337084576488" lon="4.438267853111029">
        <ele>101.22</ele>
        <time>2020-12-29T11:20:59Z</time>
      </trkpt>
      <trkpt lat="50.783233400434256" lon="4.438177412375808">
        <ele>101.20999999999999</ele>
        <time>2020-12-29T11:21:09Z</time>
      </trkpt>
      <trkpt lat="50.783131560310721" lon="4.438087390735745">
        <ele>101.23</ele>
        <time>2020-12-29T11:21:17Z</time>
      </trkpt>
      <trkpt lat="50.783111108466983" lon="4.43805537186563">
        <ele>101.23</ele>
        <time>2020-12-29T11:21:19Z</time>
      </trkpt>
      <trkpt lat="50.782966772094369" lon="4.437937941402197">
        <ele>101.29000000000001</ele>
        <time>2020-12-29T11:21:33Z</time>
      </trkpt>
      <trkpt lat="50.782942548394203" lon="4.43794934079051">
        <ele>101.31</ele>
        <time>2020-12-29T11:21:37Z</time>
      </trkpt>
      <trkpt lat="50.782801816239953" lon="4.437816655263305">
        <ele>101.44</ele>
        <time>2020-12-29T11:21:58Z</time>
      </trkpt>
      <trkpt lat="50.782765354961157" lon="4.437780696898699">
        <ele>101.45999999999999</ele>
        <time>2020-12-29T11:22:01Z</time>
      </trkpt>
      <trkpt lat="50.782749177888036" lon="4.437768291682005">
        <ele>101.47</ele>
        <time>2020-12-29T11:22:02Z</time>
      </trkpt>
      <trkpt lat="50.782735934481025" lon="4.437757479026914">
        <ele>101.47</ele>
        <time>2020-12-29T11:22:03Z</time>
      </trkpt>
      <trkpt lat="50.78270978294313" lon="4.437744989991188">
        <ele>101.48999999999999</ele>
        <time>2020-12-29T11:22:05Z</time>
      </trkpt>
      <trkpt lat="50.782694611698389" lon="4.437739038839936">
        <ele>101.48999999999999</ele>
        <time>2020-12-29T11:22:06Z</time>
      </trkpt>
      <trkpt lat="50.782683379948139" lon="4.437728393822908">
        <ele>101.5</ele>
        <time>2020-12-29T11:22:07Z</time>
      </trkpt>
      <trkpt lat="50.782672315835953" lon="4.437721855938435">
        <ele>101.5</ele>
        <time>2020-12-29T11:22:08Z</time>
      </trkpt>
      <trkpt lat="50.782658904790878" lon="4.437717664986849">
        <ele>101.51000000000001</ele>
        <time>2020-12-29T11:22:09Z</time>
      </trkpt>
      <trkpt lat="50.782533176243305" lon="4.437659746035934">
        <ele>101.56</ele>
        <time>2020-12-29T11:22:22Z</time>
      </trkpt>
      <trkpt lat="50.78240929171443" lon="4.437562851235271">
        <ele>101.66</ele>
        <time>2020-12-29T11:22:36Z</time>
      </trkpt>
      <trkpt lat="50.782395210117102" lon="4.437547763809562">
        <ele>97.780000000000001</ele>
        <time>2020-12-29T11:22:38Z</time>
      </trkpt>
      <trkpt lat="50.782389594241977" lon="4.437541980296373">
        <ele>103.16</ele>
        <time>2020-12-29T11:22:39Z</time>
      </trkpt>
      <trkpt lat="50.782379955053329" lon="4.437537118792534">
        <ele>103.17</ele>
        <time>2020-12-29T11:22:40Z</time>
      </trkpt>
      <trkpt lat="50.782344751060009" lon="4.437517421320081">
        <ele>103.18000000000001</ele>
        <time>2020-12-29T11:22:42Z</time>
      </trkpt>
      <trkpt lat="50.7821552362293" lon="4.437384903430939">
        <ele>103.31</ele>
        <time>2020-12-29T11:22:58Z</time>
      </trkpt>
      <trkpt lat="50.781986592337489" lon="4.437265126034617">
        <ele>103.40000000000001</ele>
        <time>2020-12-29T11:23:10Z</time>
      </trkpt>
      <trkpt lat="50.781923811882734" lon="4.43722078576684">
        <ele>98.549999999999997</ele>
        <time>2020-12-29T11:23:15Z</time>
      </trkpt>
      <trkpt lat="50.781911071389914" lon="4.437217600643635">
        <ele>102.36</ele>
        <time>2020-12-29T11:23:16Z</time>
      </trkpt>
      <trkpt lat="50.781821720302105" lon="4.43716311827302">
        <ele>99.090000000000003</ele>
        <time>2020-12-29T11:23:24Z</time>
      </trkpt>
      <trkpt lat="50.781810153275728" lon="4.437161609530449">
        <ele>103.43000000000001</ele>
        <time>2020-12-29T11:23:25Z</time>
      </trkpt>
      <trkpt lat="50.781690124422312" lon="4.437076281756163">
        <ele>103.53</ele>
        <time>2020-12-29T11:23:39Z</time>
      </trkpt>
      <trkpt lat="50.781610580161214" lon="4.436993887647986">
        <ele>103.56</ele>
        <time>2020-12-29T11:23:46Z</time>
      </trkpt>
      <trkpt lat="50.781501028686762" lon="4.436939153820276">
        <ele>103.59</ele>
        <time>2020-12-29T11:23:54Z</time>
      </trkpt>
      <trkpt lat="50.781487366184592" lon="4.436943009495735">
        <ele>103.59999999999999</ele>
        <time>2020-12-29T11:23:55Z</time>
      </trkpt>
      <trkpt lat="50.781435649842024" lon="4.43697108887136">
        <ele>98.849999999999994</ele>
        <time>2020-12-29T11:23:59Z</time>
      </trkpt>
      <trkpt lat="50.78142081387341" lon="4.436982152983546">
        <ele>104.3</ele>
        <time>2020-12-29T11:24:00Z</time>
      </trkpt>
      <trkpt lat="50.78122878447175" lon="4.437251379713416">
        <ele>104.39</ele>
        <time>2020-12-29T11:24:20Z</time>
      </trkpt>
      <trkpt lat="50.781091069802642" lon="4.437474254518747">
        <ele>104.44</ele>
        <time>2020-12-29T11:24:35Z</time>
      </trkpt>
      <trkpt lat="50.780885377898812" lon="4.43788236938417">
        <ele>104.48</ele>
        <time>2020-12-29T11:24:58Z</time>
      </trkpt>
      <trkpt lat="50.780879007652402" lon="4.437869628891349">
        <ele>104.47</ele>
        <time>2020-12-29T11:25:01Z</time>
      </trkpt>
      <trkpt lat="50.78058673068881" lon="4.437102852389216">
        <ele>104.47</ele>
        <time>2020-12-29T11:25:27Z</time>
      </trkpt>
      <trkpt lat="50.780421104282141" lon="4.436743939295411">
        <ele>104.45999999999999</ele>
        <time>2020-12-29T11:25:37Z</time>
      </trkpt>
      <trkpt lat="50.780207784846425" lon="4.436325849965215">
        <ele>104.39</ele>
        <time>2020-12-29T11:25:48Z</time>
      </trkpt>
      <trkpt lat="50.780086079612374" lon="4.436125522479415">
        <ele>104.31</ele>
        <time>2020-12-29T11:25:59Z</time>
      </trkpt>
      <trkpt lat="50.779946940019727" lon="4.435767866671085">
        <ele>101.83</ele>
        <time>2020-12-29T11:26:06Z</time>
      </trkpt>
      <trkpt lat="50.779924560338259" lon="4.435722772032023">
        <ele>101.81999999999999</ele>
        <time>2020-12-29T11:26:07Z</time>
      </trkpt>
      <trkpt lat="50.779905533418059" lon="4.43567474372685">
        <ele>100.98999999999999</ele>
        <time>2020-12-29T11:26:08Z</time>
      </trkpt>
      <trkpt lat="50.779857924208045" lon="4.435607101768255">
        <ele>100.94</ele>
        <time>2020-12-29T11:26:09Z</time>
      </trkpt>
      <trkpt lat="50.779824145138264" lon="4.435549098998308">
        <ele>100.95</ele>
        <time>2020-12-29T11:26:10Z</time>
      </trkpt>
      <trkpt lat="50.779653238132596" lon="4.435223881155253">
        <ele>100.84999999999999</ele>
        <time>2020-12-29T11:26:19Z</time>
      </trkpt>
      <trkpt lat="50.779515858739614" lon="4.435034450143576">
        <ele>96.989999999999995</ele>
        <time>2020-12-29T11:26:25Z</time>
      </trkpt>
      <trkpt lat="50.7794907130301" lon="4.435003772377968">
        <ele>101.33</ele>
        <time>2020-12-29T11:26:26Z</time>
      </trkpt>
      <trkpt lat="50.779479313641787" lon="4.434968149289489">
        <ele>101.31999999999999</ele>
        <time>2020-12-29T11:26:27Z</time>
      </trkpt>
      <trkpt lat="50.779330367222428" lon="4.434772096574307">
        <ele>98.959999999999994</ele>
        <time>2020-12-29T11:26:33Z</time>
      </trkpt>
      <trkpt lat="50.77914479188621" lon="4.434458948671818">
        <ele>97.25</ele>
        <time>2020-12-29T11:26:41Z</time>
      </trkpt>
      <trkpt lat="50.779066001996398" lon="4.4342284463346">
        <ele>96.269999999999996</ele>
        <time>2020-12-29T11:26:47Z</time>
      </trkpt>
      <trkpt lat="50.779050579294562" lon="4.434187291190028">
        <ele>96.269999999999996</ele>
        <time>2020-12-29T11:26:48Z</time>
      </trkpt>
      <trkpt lat="50.779032809659839" lon="4.434143621474505">
        <ele>96.25</ele>
        <time>2020-12-29T11:26:49Z</time>
      </trkpt>
      <trkpt lat="50.77900699339807" lon="4.434098359197378">
        <ele>95.409999999999997</ele>
        <time>2020-12-29T11:26:50Z</time>
      </trkpt>
      <trkpt lat="50.778979836031795" lon="4.434059131890535">
        <ele>95.370000000000005</ele>
        <time>2020-12-29T11:26:51Z</time>
      </trkpt>
      <trkpt lat="50.778966173529625" lon="4.434030801057816">
        <ele>95.379999999999995</ele>
        <time>2020-12-29T11:26:52Z</time>
      </trkpt>
      <trkpt lat="50.778941866010427" lon="4.433996435254812">
        <ele>94.609999999999999</ele>
        <time>2020-12-29T11:26:53Z</time>
      </trkpt>
      <trkpt lat="50.778923677280545" lon="4.433960560709238">
        <ele>94.590000000000003</ele>
        <time>2020-12-29T11:26:54Z</time>
      </trkpt>
      <trkpt lat="50.778910685330629" lon="4.433914795517921">
        <ele>94.579999999999998</ele>
        <time>2020-12-29T11:26:55Z</time>
      </trkpt>
      <trkpt lat="50.778890987858176" lon="4.433876909315586">
        <ele>94.560000000000002</ele>
        <time>2020-12-29T11:26:56Z</time>
      </trkpt>
      <trkpt lat="50.778870955109596" lon="4.433841956779361">
        <ele>94.519999999999996</ele>
        <time>2020-12-29T11:26:57Z</time>
      </trkpt>
      <trkpt lat="50.778856370598078" lon="4.433813123032451">
        <ele>93.469999999999999</ele>
        <time>2020-12-29T11:26:58Z</time>
      </trkpt>
      <trkpt lat="50.778835751116276" lon="4.433778086677194">
        <ele>93.400000000000006</ele>
        <time>2020-12-29T11:26:59Z</time>
      </trkpt>
      <trkpt lat="50.778816556558013" lon="4.433747995644808">
        <ele>92.629999999999995</ele>
        <time>2020-12-29T11:27:00Z</time>
      </trkpt>
      <trkpt lat="50.778794009238482" lon="4.43371438421309">
        <ele>92.629999999999995</ele>
        <time>2020-12-29T11:27:01Z</time>
      </trkpt>
      <trkpt lat="50.778468875214458" lon="4.433150114491582">
        <ele>91.489999999999995</ele>
        <time>2020-12-29T11:27:25Z</time>
      </trkpt>
      <trkpt lat="50.778439706191421" lon="4.433131171390414">
        <ele>91.370000000000005</ele>
        <time>2020-12-29T11:27:42Z</time>
      </trkpt>
      <trkpt lat="50.778414560481906" lon="4.433125220239162">
        <ele>90.560000000000002</ele>
        <time>2020-12-29T11:27:56Z</time>
      </trkpt>
      <trkpt lat="50.778378015384078" lon="4.433127818629146">
        <ele>90.549999999999997</ele>
        <time>2020-12-29T11:27:59Z</time>
      </trkpt>
      <trkpt lat="50.778366615995765" lon="4.433121029287577">
        <ele>90.549999999999997</ele>
        <time>2020-12-29T11:28:00Z</time>
      </trkpt>
      <trkpt lat="50.778351780027151" lon="4.433083729818463">
        <ele>89.25</ele>
        <time>2020-12-29T11:28:02Z</time>
      </trkpt>
      <trkpt lat="50.778339123353362" lon="4.433051878586412">
        <ele>89.230000000000004</ele>
        <time>2020-12-29T11:28:03Z</time>
      </trkpt>
      <trkpt lat="50.778324119746685" lon="4.43302002735436">
        <ele>89.239999999999995</ele>
        <time>2020-12-29T11:28:04Z</time>
      </trkpt>
      <trkpt lat="50.778313977643847" lon="4.432983146980405">
        <ele>89.239999999999995</ele>
        <time>2020-12-29T11:28:06Z</time>
      </trkpt>
      <trkpt lat="50.778300231322646" lon="4.432903099805117">
        <ele>89.260000000000005</ele>
        <time>2020-12-29T11:28:10Z</time>
      </trkpt>
      <trkpt lat="50.778295705094934" lon="4.432878876104951">
        <ele>88.400000000000006</ele>
        <time>2020-12-29T11:28:11Z</time>
      </trkpt>
      <trkpt lat="50.778291765600443" lon="4.43285976536572">
        <ele>91.709999999999994</ele>
        <time>2020-12-29T11:28:12Z</time>
      </trkpt>
      <trkpt lat="50.778287155553699" lon="4.432841576635838">
        <ele>91.689999999999998</ele>
        <time>2020-12-29T11:28:13Z</time>
      </trkpt>
      <trkpt lat="50.778293274343014" lon="4.432812072336674">
        <ele>91.670000000000002</ele>
        <time>2020-12-29T11:28:15Z</time>
      </trkpt>
      <trkpt lat="50.778300566598773" lon="4.432790447026491">
        <ele>91.680000000000007</ele>
        <time>2020-12-29T11:28:16Z</time>
      </trkpt>
      <trkpt lat="50.778290005400777" lon="4.432668490335345">
        <ele>89.170000000000002</ele>
        <time>2020-12-29T11:28:23Z</time>
      </trkpt>
      <trkpt lat="50.778249856084585" lon="4.432439161464572">
        <ele>89.209999999999994</ele>
        <time>2020-12-29T11:28:34Z</time>
      </trkpt>
      <trkpt lat="50.778228566050529" lon="4.432238414883614">
        <ele>87.010000000000005</ele>
        <time>2020-12-29T11:28:44Z</time>
      </trkpt>
      <trkpt lat="50.778155559673905" lon="4.431982012465596">
        <ele>87</ele>
        <time>2020-12-29T11:28:56Z</time>
      </trkpt>
      <trkpt lat="50.778147513046861" lon="4.431958878412843">
        <ele>86.989999999999995</ele>
        <time>2020-12-29T11:28:57Z</time>
      </trkpt>
      <trkpt lat="50.77814407646656" lon="4.431933481246233">
        <ele>87</ele>
        <time>2020-12-29T11:28:58Z</time>
      </trkpt>
      <trkpt lat="50.778125301003456" lon="4.431628128513694">
        <ele>86.099999999999994</ele>
        <time>2020-12-29T11:29:11Z</time>
      </trkpt>
      <trkpt lat="50.777884908020496" lon="4.430398503318429">
        <ele>81.709999999999994</ele>
        <time>2020-12-29T11:30:10Z</time>
      </trkpt>
      <trkpt lat="50.777825228869915" lon="4.430051157251">
        <ele>80.040000000000006</ele>
        <time>2020-12-29T11:30:28Z</time>
      </trkpt>
      <trkpt lat="50.777713749557734" lon="4.429819565266371">
        <ele>78.950000000000003</ele>
        <time>2020-12-29T11:30:41Z</time>
      </trkpt>
      <trkpt lat="50.777700087055564" lon="4.429817469790578">
        <ele>78.950000000000003</ele>
        <time>2020-12-29T11:30:42Z</time>
      </trkpt>
      <trkpt lat="50.777528425678611" lon="4.429813781753182">
        <ele>77.430000000000007</ele>
        <time>2020-12-29T11:30:54Z</time>
      </trkpt>
      <trkpt lat="50.777449468150735" lon="4.42983222194016">
        <ele>77.420000000000002</ele>
        <time>2020-12-29T11:30:59Z</time>
      </trkpt>
      <trkpt lat="50.777432788163424" lon="4.429832054302096">
        <ele>77.430000000000007</ele>
        <time>2020-12-29T11:31:00Z</time>
      </trkpt>
      <trkpt lat="50.777412336319685" lon="4.429830126464367">
        <ele>77.430000000000007</ele>
        <time>2020-12-29T11:31:01Z</time>
      </trkpt>
      <trkpt lat="50.777306724339724" lon="4.429867342114449">
        <ele>77.409999999999997</ele>
        <time>2020-12-29T11:31:07Z</time>
      </trkpt>
      <trkpt lat="50.777288032695651" lon="4.429873209446669">
        <ele>77.439999999999998</ele>
        <time>2020-12-29T11:31:08Z</time>
      </trkpt>
      <trkpt lat="50.777266910299659" lon="4.429878406226635">
        <ele>77.439999999999998</ele>
        <time>2020-12-29T11:31:09Z</time>
      </trkpt>
      <trkpt lat="50.777196167036891" lon="4.429908497259021">
        <ele>76.700000000000003</ele>
        <time>2020-12-29T11:31:13Z</time>
      </trkpt>
      <trkpt lat="50.777088291943073" lon="4.429778074845672">
        <ele>75.909999999999997</ele>
        <time>2020-12-29T11:31:27Z</time>
      </trkpt>
      <trkpt lat="50.776929371058941" lon="4.429340288043022">
        <ele>75.950000000000003</ele>
        <time>2020-12-29T11:31:46Z</time>
      </trkpt>
      <trkpt lat="50.776826273649931" lon="4.429139457643032">
        <ele>75.930000000000007</ele>
        <time>2020-12-29T11:31:58Z</time>
      </trkpt>
      <trkpt lat="50.776741532608867" lon="4.428960420191288">
        <ele>78.540000000000006</ele>
        <time>2020-12-29T11:32:08Z</time>
      </trkpt>
      <trkpt lat="50.776689564809203" lon="4.428899651393294">
        <ele>82.069999999999993</ele>
        <time>2020-12-29T11:32:14Z</time>
      </trkpt>
      <trkpt lat="50.776681853458285" lon="4.42888867110014">
        <ele>82.079999999999998</ele>
        <time>2020-12-29T11:32:15Z</time>
      </trkpt>
      <trkpt lat="50.776682524010539" lon="4.428883725777268">
        <ele>76.819999999999993</ele>
        <time>2020-12-29T11:32:16Z</time>
      </trkpt>
      <trkpt lat="50.77667917124927" lon="4.428872913122177">
        <ele>80.299999999999997</ele>
        <time>2020-12-29T11:32:17Z</time>
      </trkpt>
      <trkpt lat="50.776595184579492" lon="4.428750453516841">
        <ele>80.239999999999995</ele>
        <time>2020-12-29T11:32:25Z</time>
      </trkpt>
      <trkpt lat="50.776576492935419" lon="4.428727654740214">
        <ele>81.069999999999993</ele>
        <time>2020-12-29T11:32:26Z</time>
      </trkpt>
      <trkpt lat="50.776556460186839" lon="4.4287093821913">
        <ele>81.069999999999993</ele>
        <time>2020-12-29T11:32:27Z</time>
      </trkpt>
      <trkpt lat="50.776343392208219" lon="4.428421799093485">
        <ele>82.560000000000002</ele>
        <time>2020-12-29T11:32:43Z</time>
      </trkpt>
      <trkpt lat="50.77623157761991" lon="4.428246114403009">
        <ele>83.480000000000004</ele>
        <time>2020-12-29T11:32:51Z</time>
      </trkpt>
      <trkpt lat="50.77610157430172" lon="4.428050899878144">
        <ele>85.079999999999998</ele>
        <time>2020-12-29T11:33:06Z</time>
      </trkpt>
      <trkpt lat="50.775983221828938" lon="4.427849901840091">
        <ele>86.670000000000002</ele>
        <time>2020-12-29T11:33:17Z</time>
      </trkpt>
      <trkpt lat="50.775848105549812" lon="4.4276128616184">
        <ele>87.340000000000003</ele>
        <time>2020-12-29T11:33:30Z</time>
      </trkpt>
      <trkpt lat="50.775726567953825" lon="4.427459640428424">
        <ele>88.060000000000002</ele>
        <time>2020-12-29T11:33:40Z</time>
      </trkpt>
      <trkpt lat="50.775720784440637" lon="4.427437847480178">
        <ele>88.060000000000002</ele>
        <time>2020-12-29T11:33:41Z</time>
      </trkpt>
      <trkpt lat="50.775715000927448" lon="4.427413120865822">
        <ele>88.040000000000006</ele>
        <time>2020-12-29T11:33:42Z</time>
      </trkpt>
      <trkpt lat="50.775706535205245" lon="4.427396776154637">
        <ele>88.040000000000006</ele>
        <time>2020-12-29T11:33:43Z</time>
      </trkpt>
      <trkpt lat="50.775582063943148" lon="4.427143894135952">
        <ele>89.530000000000001</ele>
        <time>2020-12-29T11:33:58Z</time>
      </trkpt>
      <trkpt lat="50.775474021211267" lon="4.426828902214766">
        <ele>89.329999999999998</ele>
        <time>2020-12-29T11:34:14Z</time>
      </trkpt>
      <trkpt lat="50.77517956495285" lon="4.426178801804781">
        <ele>88.629999999999995</ele>
        <time>2020-12-29T11:34:52Z</time>
      </trkpt>
      <trkpt lat="50.7751648966223" lon="4.426164133474231">
        <ele>82.450000000000003</ele>
        <time>2020-12-29T11:34:55Z</time>
      </trkpt>
      <trkpt lat="50.775159616023302" lon="4.426158685237169">
        <ele>88.950000000000003</ele>
        <time>2020-12-29T11:34:56Z</time>
      </trkpt>
      <trkpt lat="50.775038665160537" lon="4.425805974751711">
        <ele>88.569999999999993</ele>
        <time>2020-12-29T11:35:13Z</time>
      </trkpt>
      <trkpt lat="50.77461370266974" lon="4.425631212070584">
        <ele>85.609999999999999</ele>
        <time>2020-12-29T11:35:48Z</time>
      </trkpt>
      <trkpt lat="50.774415219202638" lon="4.425710923969746">
        <ele>85.400000000000006</ele>
        <time>2020-12-29T11:36:03Z</time>
      </trkpt>
      <trkpt lat="50.774323102086782" lon="4.425788624212146">
        <ele>84.560000000000002</ele>
        <time>2020-12-29T11:36:09Z</time>
      </trkpt>
      <trkpt lat="50.774132832884789" lon="4.42593639716506">
        <ele>84.5</ele>
        <time>2020-12-29T11:36:24Z</time>
      </trkpt>
      <trkpt lat="50.773905012756586" lon="4.426081236451864">
        <ele>84.579999999999998</ele>
        <time>2020-12-29T11:36:39Z</time>
      </trkpt>
      <trkpt lat="50.773872574791312" lon="4.426091210916638">
        <ele>84.579999999999998</ele>
        <time>2020-12-29T11:36:42Z</time>
      </trkpt>
      <trkpt lat="50.773696890100837" lon="4.426198834553361">
        <ele>83.799999999999997</ele>
        <time>2020-12-29T11:36:57Z</time>
      </trkpt>
      <trkpt lat="50.773612149059772" lon="4.426234122365713">
        <ele>83.859999999999999</ele>
        <time>2020-12-29T11:37:04Z</time>
      </trkpt>
      <trkpt lat="50.773591361939907" lon="4.426246779039502">
        <ele>83.879999999999995</ele>
        <time>2020-12-29T11:37:05Z</time>
      </trkpt>
      <trkpt lat="50.77339363284409" lon="4.426351888105273">
        <ele>79.620000000000005</ele>
        <time>2020-12-29T11:37:17Z</time>
      </trkpt>
      <trkpt lat="50.773385083302855" lon="4.426359431818128">
        <ele>87.180000000000007</ele>
        <time>2020-12-29T11:37:18Z</time>
      </trkpt>
      <trkpt lat="50.773369828239083" lon="4.426371082663536">
        <ele>87.180000000000007</ele>
        <time>2020-12-29T11:37:19Z</time>
      </trkpt>
      <trkpt lat="50.773325571790338" lon="4.426403688266873">
        <ele>84.219999999999999</ele>
        <time>2020-12-29T11:37:22Z</time>
      </trkpt>
      <trkpt lat="50.773247117176652" lon="4.426438137888908">
        <ele>86.030000000000001</ele>
        <time>2020-12-29T11:37:27Z</time>
      </trkpt>
      <trkpt lat="50.773205542936921" lon="4.426458673551679">
        <ele>83.75</ele>
        <time>2020-12-29T11:37:29Z</time>
      </trkpt>
      <trkpt lat="50.773178301751614" lon="4.426470072939992">
        <ele>83.650000000000006</ele>
        <time>2020-12-29T11:37:30Z</time>
      </trkpt>
      <trkpt lat="50.773155586794019" lon="4.426480801776052">
        <ele>83.650000000000006</ele>
        <time>2020-12-29T11:37:31Z</time>
      </trkpt>
      <trkpt lat="50.773050477728248" lon="4.42653595469892">
        <ele>83.739999999999995</ele>
        <time>2020-12-29T11:37:37Z</time>
      </trkpt>
      <trkpt lat="50.77303497120738" lon="4.42654081620276">
        <ele>83.730000000000004</ele>
        <time>2020-12-29T11:37:38Z</time>
      </trkpt>
      <trkpt lat="50.772880744189024" lon="4.426648020744324">
        <ele>83.799999999999997</ele>
        <time>2020-12-29T11:37:47Z</time>
      </trkpt>
      <trkpt lat="50.772646386176348" lon="4.426751956343651">
        <ele>83.040000000000006</ele>
        <time>2020-12-29T11:38:03Z</time>
      </trkpt>
      <trkpt lat="50.772611349821091" lon="4.426756566390395">
        <ele>83.049999999999997</ele>
        <time>2020-12-29T11:38:05Z</time>
      </trkpt>
      <trkpt lat="50.772362574934959" lon="4.426901824772358">
        <ele>82.439999999999998</ele>
        <time>2020-12-29T11:38:23Z</time>
      </trkpt>
      <trkpt lat="50.772211868315935" lon="4.426955720409751">
        <ele>82.569999999999993</ele>
        <time>2020-12-29T11:38:33Z</time>
      </trkpt>
      <trkpt lat="50.772189656272531" lon="4.426966784521937">
        <ele>82.590000000000003</ele>
        <time>2020-12-29T11:38:34Z</time>
      </trkpt>
      <trkpt lat="50.77217155136168" lon="4.426974328234792">
        <ele>82.609999999999999</ele>
        <time>2020-12-29T11:38:35Z</time>
      </trkpt>
      <trkpt lat="50.7721515186131" lon="4.426990672945976">
        <ele>82.620000000000005</ele>
        <time>2020-12-29T11:38:36Z</time>
      </trkpt>
      <trkpt lat="50.772133581340313" lon="4.427005257457495">
        <ele>82.640000000000001</ele>
        <time>2020-12-29T11:38:37Z</time>
      </trkpt>
      <trkpt lat="50.772116901353002" lon="4.427014477550983">
        <ele>82.640000000000001</ele>
        <time>2020-12-29T11:38:38Z</time>
      </trkpt>
      <trkpt lat="50.772098377346992" lon="4.427022272720933">
        <ele>82.659999999999997</ele>
        <time>2020-12-29T11:38:39Z</time>
      </trkpt>
      <trkpt lat="50.771983293816447" lon="4.427096787840128">
        <ele>84.989999999999995</ele>
        <time>2020-12-29T11:38:44Z</time>
      </trkpt>
      <trkpt lat="50.77182412147522" lon="4.427179601043463">
        <ele>86.969999999999999</ele>
        <time>2020-12-29T11:38:56Z</time>
      </trkpt>
      <trkpt lat="50.771537711843848" lon="4.427291164174676">
        <ele>89.620000000000005</ele>
        <time>2020-12-29T11:39:16Z</time>
      </trkpt>
      <trkpt lat="50.771177876740694" lon="4.42733533680439">
        <ele>91.609999999999999</ele>
        <time>2020-12-29T11:41:27Z</time>
      </trkpt>
      <trkpt lat="50.771169243380427" lon="4.427220337092876">
        <ele>91.650000000000006</ele>
        <time>2020-12-29T11:41:32Z</time>
      </trkpt>
      <trkpt lat="50.771160442382097" lon="4.42718873731792">
        <ele>91.659999999999997</ele>
        <time>2020-12-29T11:41:33Z</time>
      </trkpt>
      <trkpt lat="50.77115323394537" lon="4.427152276039124">
        <ele>91.659999999999997</ele>
        <time>2020-12-29T11:41:34Z</time>
      </trkpt>
      <trkpt lat="50.771146528422832" lon="4.427130902186036">
        <ele>91.659999999999997</ele>
        <time>2020-12-29T11:41:35Z</time>
      </trkpt>
      <trkpt lat="50.771142337471247" lon="4.427096955478191">
        <ele>91.670000000000002</ele>
        <time>2020-12-29T11:41:36Z</time>
      </trkpt>
      <trkpt lat="50.771136218681931" lon="4.427051860839129">
        <ele>89.329999999999998</ele>
        <time>2020-12-29T11:41:37Z</time>
      </trkpt>
      <trkpt lat="50.771137643605471" lon="4.427004000172019">
        <ele>88.150000000000006</ele>
        <time>2020-12-29T11:41:38Z</time>
      </trkpt>
      <trkpt lat="50.771135548129678" lon="4.42697424441576">
        <ele>88.150000000000006</ele>
        <time>2020-12-29T11:41:39Z</time>
      </trkpt>
      <trkpt lat="50.771130183711648" lon="4.426936944946647">
        <ele>88.170000000000002</ele>
        <time>2020-12-29T11:41:40Z</time>
      </trkpt>
      <trkpt lat="50.771117778494954" lon="4.426903752610087">
        <ele>88.159999999999997</ele>
        <time>2020-12-29T11:41:41Z</time>
      </trkpt>
      <trkpt lat="50.771107552573085" lon="4.42687458358705">
        <ele>88.170000000000002</ele>
        <time>2020-12-29T11:41:42Z</time>
      </trkpt>
      <trkpt lat="50.771092800423503" lon="4.426849270239472">
        <ele>88.150000000000006</ele>
        <time>2020-12-29T11:41:43Z</time>
      </trkpt>
      <trkpt lat="50.771083077415824" lon="4.426811719313264">
        <ele>88.140000000000001</ele>
        <time>2020-12-29T11:41:44Z</time>
      </trkpt>
      <trkpt lat="50.771068744361401" lon="4.426762433722615">
        <ele>88.120000000000005</ele>
        <time>2020-12-29T11:41:45Z</time>
      </trkpt>
      <trkpt lat="50.77105307020247" lon="4.426709543913603">
        <ele>88.109999999999999</ele>
        <time>2020-12-29T11:41:46Z</time>
      </trkpt>
      <trkpt lat="50.771040329709649" lon="4.426665036007762">
        <ele>86.969999999999999</ele>
        <time>2020-12-29T11:41:47Z</time>
      </trkpt>
      <trkpt lat="50.77102230861783" lon="4.426615498960018">
        <ele>87</ele>
        <time>2020-12-29T11:41:48Z</time>
      </trkpt>
      <trkpt lat="50.77100713737309" lon="4.426568895578384">
        <ele>87</ele>
        <time>2020-12-29T11:41:49Z</time>
      </trkpt>
      <trkpt lat="50.770983751863241" lon="4.426525309681892">
        <ele>86.969999999999999</ele>
        <time>2020-12-29T11:41:50Z</time>
      </trkpt>
      <trkpt lat="50.770968329161406" lon="4.426478706300259">
        <ele>86.969999999999999</ele>
        <time>2020-12-29T11:41:51Z</time>
      </trkpt>
      <trkpt lat="50.770938824862242" lon="4.426430342718959">
        <ele>86.099999999999994</ele>
        <time>2020-12-29T11:41:52Z</time>
      </trkpt>
      <trkpt lat="50.770837655290961" lon="4.425965901464224">
        <ele>85.370000000000005</ele>
        <time>2020-12-29T11:42:02Z</time>
      </trkpt>
      <trkpt lat="50.770802116021514" lon="4.425840424373746">
        <ele>85.430000000000007</ele>
        <time>2020-12-29T11:42:05Z</time>
      </trkpt>
      <trkpt lat="50.770800104364753" lon="4.425799520686269">
        <ele>85.450000000000003</ele>
        <time>2020-12-29T11:42:06Z</time>
      </trkpt>
      <trkpt lat="50.770737575367093" lon="4.425643952563405">
        <ele>84.430000000000007</ele>
        <time>2020-12-29T11:42:10Z</time>
      </trkpt>
      <trkpt lat="50.770725505426526" lon="4.425585195422173">
        <ele>84.430000000000007</ele>
        <time>2020-12-29T11:42:11Z</time>
      </trkpt>
      <trkpt lat="50.770708657801151" lon="4.425532557070255">
        <ele>83.159999999999997</ele>
        <time>2020-12-29T11:42:12Z</time>
      </trkpt>
      <trkpt lat="50.770688457414508" lon="4.425465501844883">
        <ele>83.159999999999997</ele>
        <time>2020-12-29T11:42:13Z</time>
      </trkpt>
      <trkpt lat="50.770676387473941" lon="4.425426609814167">
        <ele>83.159999999999997</ele>
        <time>2020-12-29T11:42:14Z</time>
      </trkpt>
      <trkpt lat="50.770646883174777" lon="4.425264168530703">
        <ele>81.739999999999995</ele>
        <time>2020-12-29T11:42:19Z</time>
      </trkpt>
      <trkpt lat="50.770537834614515" lon="4.42464298568666">
        <ele>81.790000000000006</ele>
        <time>2020-12-29T11:42:32Z</time>
      </trkpt>
      <trkpt lat="50.770529117435217" lon="4.424613313749433">
        <ele>75.459999999999994</ele>
        <time>2020-12-29T11:42:33Z</time>
      </trkpt>
      <trkpt lat="50.770522579550743" lon="4.424584815278649">
        <ele>83.819999999999993</ele>
        <time>2020-12-29T11:42:34Z</time>
      </trkpt>
      <trkpt lat="50.77051511965692" lon="4.424565453082323">
        <ele>83.790000000000006</ele>
        <time>2020-12-29T11:42:35Z</time>
      </trkpt>
      <trkpt lat="50.770509839057922" lon="4.424539804458618">
        <ele>78.180000000000007</ele>
        <time>2020-12-29T11:42:36Z</time>
      </trkpt>
      <trkpt lat="50.770506905391812" lon="4.424515496939421">
        <ele>81.480000000000004</ele>
        <time>2020-12-29T11:42:37Z</time>
      </trkpt>
      <trkpt lat="50.770392995327711" lon="4.42411819472909">
        <ele>79.840000000000003</ele>
        <time>2020-12-29T11:42:59Z</time>
      </trkpt>
      <trkpt lat="50.770389558747411" lon="4.424105286598206">
        <ele>79.840000000000003</ele>
        <time>2020-12-29T11:43:00Z</time>
      </trkpt>
      <trkpt lat="50.7703020516783" lon="4.423788785934448">
        <ele>78.900000000000006</ele>
        <time>2020-12-29T11:43:12Z</time>
      </trkpt>
      <trkpt lat="50.770231056958437" lon="4.423496341332793">
        <ele>79.400000000000006</ele>
        <time>2020-12-29T11:43:31Z</time>
      </trkpt>
      <trkpt lat="50.770221501588821" lon="4.423406487330794">
        <ele>72.640000000000001</ele>
        <time>2020-12-29T11:43:35Z</time>
      </trkpt>
      <trkpt lat="50.770223932340741" lon="4.42337891086936">
        <ele>81.200000000000003</ele>
        <time>2020-12-29T11:43:36Z</time>
      </trkpt>
      <trkpt lat="50.770228123292327" lon="4.42335007712245">
        <ele>73.859999999999999</ele>
        <time>2020-12-29T11:43:37Z</time>
      </trkpt>
      <trkpt lat="50.770228961482644" lon="4.423318058252335">
        <ele>78.040000000000006</ele>
        <time>2020-12-29T11:43:38Z</time>
      </trkpt>
      <trkpt lat="50.770232398062944" lon="4.423290900886059">
        <ele>74.469999999999999</ele>
        <time>2020-12-29T11:43:39Z</time>
      </trkpt>
      <trkpt lat="50.770232230424881" lon="4.423271119594574">
        <ele>77.519999999999996</ele>
        <time>2020-12-29T11:43:40Z</time>
      </trkpt>
      <trkpt lat="50.77021948993206" lon="4.423000384122133">
        <ele>71.430000000000007</ele>
        <time>2020-12-29T11:43:52Z</time>
      </trkpt>
      <trkpt lat="50.770222675055265" lon="4.422977585345507">
        <ele>77.230000000000004</ele>
        <time>2020-12-29T11:43:53Z</time>
      </trkpt>
      <trkpt lat="50.770202642306685" lon="4.422681117430329">
        <ele>74.810000000000002</ele>
        <time>2020-12-29T11:44:07Z</time>
      </trkpt>
      <trkpt lat="50.77017062343657" lon="4.422319438308477">
        <ele>73.170000000000002</ele>
        <time>2020-12-29T11:44:23Z</time>
      </trkpt>
      <trkpt lat="50.770104825496674" lon="4.422151548787952">
        <ele>73.230000000000004</ele>
        <time>2020-12-29T11:44:31Z</time>
      </trkpt>
      <trkpt lat="50.770093845203519" lon="4.422137718647718">
        <ele>72.409999999999997</ele>
        <time>2020-12-29T11:44:32Z</time>
      </trkpt>
      <trkpt lat="50.770082278177142" lon="4.422120116651058">
        <ele>72.420000000000002</ele>
        <time>2020-12-29T11:44:33Z</time>
      </trkpt>
      <trkpt lat="50.770077081397176" lon="4.422089271247387">
        <ele>69.230000000000004</ele>
        <time>2020-12-29T11:44:35Z</time>
      </trkpt>
      <trkpt lat="50.770074734464288" lon="4.422079799696803">
        <ele>73.299999999999997</ele>
        <time>2020-12-29T11:44:36Z</time>
      </trkpt>
      <trkpt lat="50.769964093342423" lon="4.421985419467092">
        <ele>73.310000000000002</ele>
        <time>2020-12-29T11:44:47Z</time>
      </trkpt>
      <trkpt lat="50.769948000088334" lon="4.421985168009996">
        <ele>73.299999999999997</ele>
        <time>2020-12-29T11:44:48Z</time>
      </trkpt>
      <trkpt lat="50.769930733367801" lon="4.421994471922517">
        <ele>73.310000000000002</ele>
        <time>2020-12-29T11:44:49Z</time>
      </trkpt>
      <trkpt lat="50.769910113885999" lon="4.42201173864305">
        <ele>73.319999999999993</ele>
        <time>2020-12-29T11:44:50Z</time>
      </trkpt>
      <trkpt lat="50.769865019246936" lon="4.422052055597305">
        <ele>74.5</ele>
        <time>2020-12-29T11:44:52Z</time>
      </trkpt>
      <trkpt lat="50.769844986498356" lon="4.422069238498807">
        <ele>74.590000000000003</ele>
        <time>2020-12-29T11:44:53Z</time>
      </trkpt>
      <trkpt lat="50.769578777253628" lon="4.422115841880441">
        <ele>77.480000000000004</ele>
        <time>2020-12-29T11:45:06Z</time>
      </trkpt>
      <trkpt lat="50.768683003261685" lon="4.422572068870068">
        <ele>77.909999999999997</ele>
        <time>2020-12-29T11:45:39Z</time>
      </trkpt>
      <trkpt lat="50.768541181460023" lon="4.42272461950779">
        <ele>77.780000000000001</ele>
        <time>2020-12-29T11:45:45Z</time>
      </trkpt>
      <trkpt lat="50.768330041319132" lon="4.422822687774897">
        <ele>75.099999999999994</ele>
        <time>2020-12-29T11:45:53Z</time>
      </trkpt>
      <trkpt lat="50.768304811790586" lon="4.422840289771557">
        <ele>75.069999999999993</ele>
        <time>2020-12-29T11:45:54Z</time>
      </trkpt>
      <trkpt lat="50.768285030499101" lon="4.422857472673059">
        <ele>75.030000000000001</ele>
        <time>2020-12-29T11:45:55Z</time>
      </trkpt>
      <trkpt lat="50.76826591975987" lon="4.422871638089418">
        <ele>74.989999999999995</ele>
        <time>2020-12-29T11:45:56Z</time>
      </trkpt>
      <trkpt lat="50.768102305009961" lon="4.423007676377893">
        <ele>72.849999999999994</ele>
        <time>2020-12-29T11:46:04Z</time>
      </trkpt>
      <trkpt lat="50.768055953085423" lon="4.423102727159858">
        <ele>72.890000000000001</ele>
        <time>2020-12-29T11:46:07Z</time>
      </trkpt>
      <trkpt lat="50.768038854002953" lon="4.423131560906768">
        <ele>72.700000000000003</ele>
        <time>2020-12-29T11:46:08Z</time>
      </trkpt>
      <trkpt lat="50.768023682758212" lon="4.423149581998587">
        <ele>72.650000000000006</ele>
        <time>2020-12-29T11:46:09Z</time>
      </trkpt>
      <trkpt lat="50.768004739657044" lon="4.423153689131141">
        <ele>71.829999999999998</ele>
        <time>2020-12-29T11:46:10Z</time>
      </trkpt>
      <trkpt lat="50.76798889786005" lon="4.423180343583226">
        <ele>71.810000000000002</ele>
        <time>2020-12-29T11:46:11Z</time>
      </trkpt>
      <trkpt lat="50.767966601997614" lon="4.423209931701422">
        <ele>71.780000000000001</ele>
        <time>2020-12-29T11:46:12Z</time>
      </trkpt>
      <trkpt lat="50.767941037192941" lon="4.42323331721127">
        <ele>71.760000000000005</ele>
        <time>2020-12-29T11:46:13Z</time>
      </trkpt>
      <trkpt lat="50.76763660646975" lon="4.423484522849321">
        <ele>71.489999999999995</ele>
        <time>2020-12-29T11:46:23Z</time>
      </trkpt>
      <trkpt lat="50.767599809914827" lon="4.423502376303077">
        <ele>71.450000000000003</ele>
        <time>2020-12-29T11:46:24Z</time>
      </trkpt>
      <trkpt lat="50.767551613971591" lon="4.423545962199569">
        <ele>71.400000000000006</ele>
        <time>2020-12-29T11:46:26Z</time>
      </trkpt>
      <trkpt lat="50.767531413584948" lon="4.423560714349151">
        <ele>71.390000000000001</ele>
        <time>2020-12-29T11:46:27Z</time>
      </trkpt>
      <trkpt lat="50.767389675602317" lon="4.42368870601058">
        <ele>74.049999999999997</ele>
        <time>2020-12-29T11:46:33Z</time>
      </trkpt>
      <trkpt lat="50.767278028652072" lon="4.423745535314083">
        <ele>73.909999999999997</ele>
        <time>2020-12-29T11:46:37Z</time>
      </trkpt>
      <trkpt lat="50.767251290380955" lon="4.423775961622596">
        <ele>73.859999999999999</ele>
        <time>2020-12-29T11:46:38Z</time>
      </trkpt>
      <trkpt lat="50.767225725576282" lon="4.423814602196217">
        <ele>73.819999999999993</ele>
        <time>2020-12-29T11:46:39Z</time>
      </trkpt>
      <trkpt lat="50.767209213227034" lon="4.423841843381524">
        <ele>68.909999999999997</ele>
        <time>2020-12-29T11:46:40Z</time>
      </trkpt>
      <trkpt lat="50.767186246812344" lon="4.423871012404561">
        <ele>73.579999999999998</ele>
        <time>2020-12-29T11:46:41Z</time>
      </trkpt>
      <trkpt lat="50.767157077789307" lon="4.423922812566161">
        <ele>73.549999999999997</ele>
        <time>2020-12-29T11:46:42Z</time>
      </trkpt>
      <trkpt lat="50.766985667869449" lon="4.424165301024914">
        <ele>73.200000000000003</ele>
        <time>2020-12-29T11:46:50Z</time>
      </trkpt>
      <trkpt lat="50.766963372007012" lon="4.424185752868652">
        <ele>73.159999999999997</ele>
        <time>2020-12-29T11:46:51Z</time>
      </trkpt>
      <trkpt lat="50.766944345086813" lon="4.424211904406548">
        <ele>73.140000000000001</ele>
        <time>2020-12-29T11:46:52Z</time>
      </trkpt>
      <trkpt lat="50.766926407814026" lon="4.424252388998866">
        <ele>73.109999999999999</ele>
        <time>2020-12-29T11:46:53Z</time>
      </trkpt>
      <trkpt lat="50.766906626522541" lon="4.424302931874991">
        <ele>73.069999999999993</ele>
        <time>2020-12-29T11:46:54Z</time>
      </trkpt>
      <trkpt lat="50.766629772260785" lon="4.424768881872296">
        <ele>72.560000000000002</ele>
        <time>2020-12-29T11:47:06Z</time>
      </trkpt>
      <trkpt lat="50.766568249091506" lon="4.424958815798163">
        <ele>73.299999999999997</ele>
        <time>2020-12-29T11:47:10Z</time>
      </trkpt>
      <trkpt lat="50.766498260200024" lon="4.425334660336375">
        <ele>73.799999999999997</ele>
        <time>2020-12-29T11:47:17Z</time>
      </trkpt>
      <trkpt lat="50.766481664031744" lon="4.425371708348393">
        <ele>73.730000000000004</ele>
        <time>2020-12-29T11:47:18Z</time>
      </trkpt>
      <trkpt lat="50.766480406746268" lon="4.425405487418175">
        <ele>73.680000000000007</ele>
        <time>2020-12-29T11:47:19Z</time>
      </trkpt>
      <trkpt lat="50.76646925881505" lon="4.425449157133699">
        <ele>73.640000000000001</ele>
        <time>2020-12-29T11:47:20Z</time>
      </trkpt>
      <trkpt lat="50.766462469473481" lon="4.425491988658905">
        <ele>73.620000000000005</ele>
        <time>2020-12-29T11:47:21Z</time>
      </trkpt>
      <trkpt lat="50.766406813636422" lon="4.426078889518976">
        <ele>73.010000000000005</ele>
        <time>2020-12-29T11:47:33Z</time>
      </trkpt>
      <trkpt lat="50.766354510560632" lon="4.426692696288228">
        <ele>70.420000000000002</ele>
        <time>2020-12-29T11:48:12Z</time>
      </trkpt>
      <trkpt lat="50.766388708725572" lon="4.426844576373696">
        <ele>70.159999999999997</ele>
        <time>2020-12-29T11:48:23Z</time>
      </trkpt>
      <trkpt lat="50.766497673466802" lon="4.427121011540294">
        <ele>69.980000000000004</ele>
        <time>2020-12-29T11:48:34Z</time>
      </trkpt>
      <trkpt lat="50.766513850539923" lon="4.427147330716252">
        <ele>69.969999999999999</ele>
        <time>2020-12-29T11:48:35Z</time>
      </trkpt>
      <trkpt lat="50.766536314040422" lon="4.427217906340957">
        <ele>69.939999999999998</ele>
        <time>2020-12-29T11:48:38Z</time>
      </trkpt>
      <trkpt lat="50.766593730077147" lon="4.427448241040111">
        <ele>68.930000000000007</ele>
        <time>2020-12-29T11:48:52Z</time>
      </trkpt>
      <trkpt lat="50.766608901321888" lon="4.427567599341273">
        <ele>67.209999999999994</ele>
        <time>2020-12-29T11:48:58Z</time>
      </trkpt>
      <trkpt lat="50.766642931848764" lon="4.427812770009041">
        <ele>65.590000000000003</ele>
        <time>2020-12-29T11:49:11Z</time>
      </trkpt>
      <trkpt lat="50.766666987910867" lon="4.428048804402351">
        <ele>64.799999999999997</ele>
        <time>2020-12-29T11:49:22Z</time>
      </trkpt>
      <trkpt lat="50.766701269894838" lon="4.428309146314859">
        <ele>64.849999999999994</ele>
        <time>2020-12-29T11:49:36Z</time>
      </trkpt>
      <trkpt lat="50.766749130561948" lon="4.428672417998314">
        <ele>64.849999999999994</ele>
        <time>2020-12-29T11:49:52Z</time>
      </trkpt>
      <trkpt lat="50.766771510243416" lon="4.428854137659073">
        <ele>67.859999999999999</ele>
        <time>2020-12-29T11:50:02Z</time>
      </trkpt>
      <trkpt lat="50.76677318662405" lon="4.428867967799306">
        <ele>67.849999999999994</ele>
        <time>2020-12-29T11:50:03Z</time>
      </trkpt>
      <trkpt lat="50.766772096976638" lon="4.428939465433359">
        <ele>63.420000000000002</ele>
        <time>2020-12-29T11:50:08Z</time>
      </trkpt>
      <trkpt lat="50.766774863004684" lon="4.428952289745212">
        <ele>67.230000000000004</ele>
        <time>2020-12-29T11:50:09Z</time>
      </trkpt>
      <trkpt lat="50.766728511080146" lon="4.429410863667727">
        <ele>67.180000000000007</ele>
        <time>2020-12-29T11:50:26Z</time>
      </trkpt>
      <trkpt lat="50.766736054793" lon="4.429872957989574">
        <ele>67.989999999999995</ele>
        <time>2020-12-29T11:50:45Z</time>
      </trkpt>
      <trkpt lat="50.766715100035071" lon="4.429897433146834">
        <ele>67.980000000000004</ele>
        <time>2020-12-29T11:50:47Z</time>
      </trkpt>
      <trkpt lat="50.766701605170965" lon="4.429905647411943">
        <ele>67.980000000000004</ele>
        <time>2020-12-29T11:50:48Z</time>
      </trkpt>
      <trkpt lat="50.766688277944922" lon="4.429913945496082">
        <ele>67.969999999999999</ele>
        <time>2020-12-29T11:50:49Z</time>
      </trkpt>
      <trkpt lat="50.766675705090165" lon="4.429918890818954">
        <ele>67.959999999999994</ele>
        <time>2020-12-29T11:50:50Z</time>
      </trkpt>
      <trkpt lat="50.766623569652438" lon="4.429908497259021">
        <ele>67.920000000000002</ele>
        <time>2020-12-29T11:50:56Z</time>
      </trkpt>
      <trkpt lat="50.766613846644759" lon="4.429905228316784">
        <ele>67.920000000000002</ele>
        <time>2020-12-29T11:50:57Z</time>
      </trkpt>
      <trkpt lat="50.766608314588666" lon="4.4298991933465">
        <ele>67.909999999999997</ele>
        <time>2020-12-29T11:50:58Z</time>
      </trkpt>
      <trkpt lat="50.766599345952272" lon="4.429891398176551">
        <ele>67.909999999999997</ele>
        <time>2020-12-29T11:50:59Z</time>
      </trkpt>
      <trkpt lat="50.766588030382991" lon="4.429888799786568">
        <ele>67.900000000000006</ele>
        <time>2020-12-29T11:51:00Z</time>
      </trkpt>
      <trkpt lat="50.766576379537582" lon="4.429888967424631">
        <ele>67.900000000000006</ele>
        <time>2020-12-29T11:51:01Z</time>
      </trkpt>
      <trkpt lat="50.766424164175987" lon="4.429862983524799">
        <ele>67.829999999999998</ele>
        <time>2020-12-29T11:51:13Z</time>
      </trkpt>
      <trkpt lat="50.766408741474152" lon="4.429866168648005">
        <ele>67.829999999999998</ele>
        <time>2020-12-29T11:51:14Z</time>
      </trkpt>
      <trkpt lat="50.766393654048443" lon="4.42986742593348">
        <ele>67.819999999999993</ele>
        <time>2020-12-29T11:51:15Z</time>
      </trkpt>
      <trkpt lat="50.766377225518227" lon="4.429872371256352">
        <ele>67.810000000000002</ele>
        <time>2020-12-29T11:51:16Z</time>
      </trkpt>
      <trkpt lat="50.766277313232422" lon="4.429870946332812">
        <ele>67.769999999999996</ele>
        <time>2020-12-29T11:51:23Z</time>
      </trkpt>
      <trkpt lat="50.766265830025077" lon="4.429870191961527">
        <ele>67.760000000000005</ele>
        <time>2020-12-29T11:51:24Z</time>
      </trkpt>
      <trkpt lat="50.76553450897336" lon="4.430069178342819">
        <ele>58.380000000000003</ele>
        <time>2020-12-29T11:52:40Z</time>
      </trkpt>
      <trkpt lat="50.765541382133961" lon="4.430427756160498">
        <ele>55.789999999999999</ele>
        <time>2020-12-29T11:52:55Z</time>
      </trkpt>
      <trkpt lat="50.765539538115263" lon="4.430459272116423">
        <ele>55.810000000000002</ele>
        <time>2020-12-29T11:52:56Z</time>
      </trkpt>
      <trkpt lat="50.7655462436378" lon="4.43062674254179">
        <ele>53.979999999999997</ele>
        <time>2020-12-29T11:53:03Z</time>
      </trkpt>
      <trkpt lat="50.765558648854494" lon="4.430743334814906">
        <ele>54.009999999999998</ele>
        <time>2020-12-29T11:53:09Z</time>
      </trkpt>
      <trkpt lat="50.765557726845145" lon="4.43077577278018">
        <ele>54.009999999999998</ele>
        <time>2020-12-29T11:53:10Z</time>
      </trkpt>
      <trkpt lat="50.765556804835796" lon="4.43080946803093">
        <ele>54.039999999999999</ele>
        <time>2020-12-29T11:53:11Z</time>
      </trkpt>
      <trkpt lat="50.765551440417767" lon="4.431110797449946">
        <ele>53.270000000000003</ele>
        <time>2020-12-29T11:53:23Z</time>
      </trkpt>
      <trkpt lat="50.765538364648819" lon="4.431371307000518">
        <ele>52.359999999999999</ele>
        <time>2020-12-29T11:53:35Z</time>
      </trkpt>
      <trkpt lat="50.765524115413427" lon="4.431417742744088">
        <ele>52.369999999999997</ele>
        <time>2020-12-29T11:53:38Z</time>
      </trkpt>
      <trkpt lat="50.765516823157668" lon="4.431451940909028">
        <ele>52.359999999999999</ele>
        <time>2020-12-29T11:53:39Z</time>
      </trkpt>
      <trkpt lat="50.765505339950323" lon="4.431475410237908">
        <ele>51.479999999999997</ele>
        <time>2020-12-29T11:53:40Z</time>
      </trkpt>
      <trkpt lat="50.765492767095566" lon="4.431511368602514">
        <ele>51.479999999999997</ele>
        <time>2020-12-29T11:53:41Z</time>
      </trkpt>
      <trkpt lat="50.765479858964682" lon="4.431539112702012">
        <ele>51.490000000000002</ele>
        <time>2020-12-29T11:53:42Z</time>
      </trkpt>
      <trkpt lat="50.765469633042812" lon="4.431568281725049">
        <ele>51.490000000000002</ele>
        <time>2020-12-29T11:53:43Z</time>
      </trkpt>
      <trkpt lat="50.765458820387721" lon="4.431592505425215">
        <ele>51.490000000000002</ele>
        <time>2020-12-29T11:53:44Z</time>
      </trkpt>
      <trkpt lat="50.765447420999408" lon="4.431611867621541">
        <ele>51.490000000000002</ele>
        <time>2020-12-29T11:53:45Z</time>
      </trkpt>
      <trkpt lat="50.765350693836808" lon="4.431878747418523">
        <ele>50.659999999999997</ele>
        <time>2020-12-29T11:53:59Z</time>
      </trkpt>
      <trkpt lat="50.765070738270879" lon="4.432018725201488">
        <ele>49.920000000000002</ele>
        <time>2020-12-29T11:54:16Z</time>
      </trkpt>
      <trkpt lat="50.764874015003443" lon="4.432181501761079">
        <ele>50.060000000000002</ele>
        <time>2020-12-29T11:54:31Z</time>
      </trkpt>
      <trkpt lat="50.764699755236506" lon="4.432270852848887">
        <ele>50.170000000000002</ele>
        <time>2020-12-29T11:54:43Z</time>
      </trkpt>
      <trkpt lat="50.764449387788773" lon="4.432314690202475">
        <ele>53.299999999999997</ele>
        <time>2020-12-29T11:54:51Z</time>
      </trkpt>
      <trkpt lat="50.764410328119993" lon="4.432339835911989">
        <ele>53.310000000000002</ele>
        <time>2020-12-29T11:54:52Z</time>
      </trkpt>
      <trkpt lat="50.764321982860565" lon="4.432439412921667">
        <ele>55.579999999999998</ele>
        <time>2020-12-29T11:54:55Z</time>
      </trkpt>
      <trkpt lat="50.764284431934357" lon="4.432490458711982">
        <ele>58.619999999999997</ele>
        <time>2020-12-29T11:54:57Z</time>
      </trkpt>
      <trkpt lat="50.764266662299633" lon="4.432515855878592">
        <ele>58.640000000000001</ele>
        <time>2020-12-29T11:54:58Z</time>
      </trkpt>
      <trkpt lat="50.764247216284275" lon="4.432544438168407">
        <ele>58.700000000000003</ele>
        <time>2020-12-29T11:54:59Z</time>
      </trkpt>
      <trkpt lat="50.764226512983441" lon="4.432569751515985">
        <ele>59.689999999999998</ele>
        <time>2020-12-29T11:55:00Z</time>
      </trkpt>
      <trkpt lat="50.764205893501639" lon="4.432592634111643">
        <ele>59.729999999999997</ele>
        <time>2020-12-29T11:55:01Z</time>
      </trkpt>
      <trkpt lat="50.764183094725013" lon="4.432619120925665">
        <ele>61.240000000000002</ele>
        <time>2020-12-29T11:55:02Z</time>
      </trkpt>
      <trkpt lat="50.764156524091959" lon="4.432649044319987">
        <ele>62.079999999999998</ele>
        <time>2020-12-29T11:55:03Z</time>
      </trkpt>
      <trkpt lat="50.764134395867586" lon="4.432691121473908">
        <ele>62.079999999999998</ele>
        <time>2020-12-29T11:55:04Z</time>
      </trkpt>
      <trkpt lat="50.764114027842879" lon="4.432731689885259">
        <ele>62.969999999999999</ele>
        <time>2020-12-29T11:55:05Z</time>
      </trkpt>
      <trkpt lat="50.764084439724684" lon="4.432807294651866">
        <ele>63.799999999999997</ele>
        <time>2020-12-29T11:55:07Z</time>
      </trkpt>
      <trkpt lat="50.763988718390465" lon="4.432995971292257">
        <ele>65.620000000000005</ele>
        <time>2020-12-29T11:55:13Z</time>
      </trkpt>
      <trkpt lat="50.763982096686959" lon="4.433031678199768">
        <ele>66.489999999999995</ele>
        <time>2020-12-29T11:55:14Z</time>
      </trkpt>
      <trkpt lat="50.76397430151701" lon="4.433064954355359">
        <ele>66.5</ele>
        <time>2020-12-29T11:55:15Z</time>
      </trkpt>
      <trkpt lat="50.763966171070933" lon="4.433094710111618">
        <ele>66.480000000000004</ele>
        <time>2020-12-29T11:55:16Z</time>
      </trkpt>
      <trkpt lat="50.763955106958747" lon="4.433134691789746">
        <ele>66.459999999999994</ele>
        <time>2020-12-29T11:55:17Z</time>
      </trkpt>
      <trkpt lat="50.763942031189799" lon="4.433171404525638">
        <ele>67.299999999999997</ele>
        <time>2020-12-29T11:55:18Z</time>
      </trkpt>
      <trkpt lat="50.763927949592471" lon="4.433214822784066">
        <ele>67.299999999999997</ele>
        <time>2020-12-29T11:55:19Z</time>
      </trkpt>
      <trkpt lat="50.763912023976445" lon="4.433254888281226">
        <ele>68.079999999999998</ele>
        <time>2020-12-29T11:55:20Z</time>
      </trkpt>
      <trkpt lat="50.763896768912673" lon="4.433303168043494">
        <ele>68.079999999999998</ele>
        <time>2020-12-29T11:55:21Z</time>
      </trkpt>
      <trkpt lat="50.76388536952436" lon="4.433352872729302">
        <ele>68.069999999999993</ele>
        <time>2020-12-29T11:55:22Z</time>
      </trkpt>
      <trkpt lat="50.763870533555746" lon="4.433402912691236">
        <ele>68.069999999999993</ele>
        <time>2020-12-29T11:55:23Z</time>
      </trkpt>
      <trkpt lat="50.763858212158084" lon="4.433458987623453">
        <ele>68.060000000000002</ele>
        <time>2020-12-29T11:55:24Z</time>
      </trkpt>
      <trkpt lat="50.763848405331373" lon="4.433519337326288">
        <ele>68.049999999999997</ele>
        <time>2020-12-29T11:55:25Z</time>
      </trkpt>
      <trkpt lat="50.763675151392817" lon="4.434233140200377">
        <ele>70.549999999999997</ele>
        <time>2020-12-29T11:55:36Z</time>
      </trkpt>
      <trkpt lat="50.763596529141068" lon="4.434689618647099">
        <ele>73.439999999999998</ele>
        <time>2020-12-29T11:55:46Z</time>
      </trkpt>
      <trkpt lat="50.76357264071703" lon="4.434781819581986">
        <ele>73.459999999999994</ele>
        <time>2020-12-29T11:55:49Z</time>
      </trkpt>
      <trkpt lat="50.763573814183474" lon="4.43482406437397">
        <ele>73.489999999999995</ele>
        <time>2020-12-29T11:55:50Z</time>
      </trkpt>
      <trkpt lat="50.763576831668615" lon="4.434864381328225">
        <ele>73.480000000000004</ele>
        <time>2020-12-29T11:55:51Z</time>
      </trkpt>
      <trkpt lat="50.763658303767443" lon="4.435283141210675">
        <ele>73.480000000000004</ele>
        <time>2020-12-29T11:56:05Z</time>
      </trkpt>
      <trkpt lat="50.763741368427873" lon="4.435426136478782">
        <ele>74.439999999999998</ele>
        <time>2020-12-29T11:56:12Z</time>
      </trkpt>
      <trkpt lat="50.763748744502664" lon="4.435445833951235">
        <ele>74.450000000000003</ele>
        <time>2020-12-29T11:56:13Z</time>
      </trkpt>
      <trkpt lat="50.763822002336383" lon="4.435735261067748">
        <ele>74.579999999999998</ele>
        <time>2020-12-29T11:56:27Z</time>
      </trkpt>
      <trkpt lat="50.763788055628538" lon="4.435927625745535">
        <ele>74.650000000000006</ele>
        <time>2020-12-29T11:56:35Z</time>
      </trkpt>
      <trkpt lat="50.763725023716688" lon="4.436218645423651">
        <ele>74.799999999999997</ele>
        <time>2020-12-29T11:56:49Z</time>
      </trkpt>
      <trkpt lat="50.76363910920918" lon="4.436477646231651">
        <ele>75.709999999999994</ele>
        <time>2020-12-29T11:57:03Z</time>
      </trkpt>
      <trkpt lat="50.763567108660936" lon="4.436689373105764">
        <ele>75.859999999999999</ele>
        <time>2020-12-29T11:57:15Z</time>
      </trkpt>
      <trkpt lat="50.763505417853594" lon="4.437004700303078">
        <ele>76.010000000000005</ele>
        <time>2020-12-29T11:57:30Z</time>
      </trkpt>
      <trkpt lat="50.763378012925386" lon="4.437320781871676">
        <ele>77.010000000000005</ele>
        <time>2020-12-29T11:57:45Z</time>
      </trkpt>
      <trkpt lat="50.763313556089997" lon="4.437612723559141">
        <ele>77.950000000000003</ele>
        <time>2020-12-29T11:57:57Z</time>
      </trkpt>
      <trkpt lat="50.763227390125394" lon="4.437952106818557">
        <ele>79.079999999999998</ele>
        <time>2020-12-29T11:58:12Z</time>
      </trkpt>
      <trkpt lat="50.763143068179488" lon="4.438214544206858">
        <ele>80.060000000000002</ele>
        <time>2020-12-29T11:58:26Z</time>
      </trkpt>
      <trkpt lat="50.763072576373816" lon="4.438515035435557">
        <ele>80.260000000000005</ele>
        <time>2020-12-29T11:58:40Z</time>
      </trkpt>
      <trkpt lat="50.762977609410882" lon="4.43882835097611">
        <ele>80.480000000000004</ele>
        <time>2020-12-29T11:58:55Z</time>
      </trkpt>
      <trkpt lat="50.762845426797867" lon="4.439070001244545">
        <ele>80.700000000000003</ele>
        <time>2020-12-29T11:59:10Z</time>
      </trkpt>
      <trkpt lat="50.762793626636267" lon="4.439119538292289">
        <ele>80.769999999999996</ele>
        <time>2020-12-29T11:59:16Z</time>
      </trkpt>
      <trkpt lat="50.762782813981175" lon="4.439128255471587">
        <ele>80.780000000000001</ele>
        <time>2020-12-29T11:59:17Z</time>
      </trkpt>
      <trkpt lat="50.762763032689691" lon="4.43914694711566">
        <ele>80.799999999999997</ele>
        <time>2020-12-29T11:59:19Z</time>
      </trkpt>
      <trkpt lat="50.762719279155135" lon="4.439151221886277">
        <ele>80.840000000000003</ele>
        <time>2020-12-29T11:59:23Z</time>
      </trkpt>
      <trkpt lat="50.762706203386188" lon="4.439142420887947">
        <ele>80.849999999999994</ele>
        <time>2020-12-29T11:59:24Z</time>
      </trkpt>
      <trkpt lat="50.762694468721747" lon="4.439130434766412">
        <ele>80.859999999999999</ele>
        <time>2020-12-29T11:59:25Z</time>
      </trkpt>
      <trkpt lat="50.762683320790529" lon="4.439117023721337">
        <ele>80.870000000000005</ele>
        <time>2020-12-29T11:59:26Z</time>
      </trkpt>
      <trkpt lat="50.762667395174503" lon="4.43910394795239">
        <ele>80.879999999999995</ele>
        <time>2020-12-29T11:59:27Z</time>
      </trkpt>
      <trkpt lat="50.762652726843953" lon="4.439089195802808">
        <ele>80.890000000000001</ele>
        <time>2020-12-29T11:59:28Z</time>
      </trkpt>
      <trkpt lat="50.762520376592875" lon="4.438923737034202">
        <ele>81.019999999999996</ele>
        <time>2020-12-29T11:59:38Z</time>
      </trkpt>
      <trkpt lat="50.762509144842625" lon="4.438906386494637">
        <ele>81.040000000000006</ele>
        <time>2020-12-29T11:59:39Z</time>
      </trkpt>
      <trkpt lat="50.762489531189203" lon="4.438890544697642">
        <ele>81.060000000000002</ele>
        <time>2020-12-29T11:59:40Z</time>
      </trkpt>
      <trkpt lat="50.762316528707743" lon="4.438762217760086">
        <ele>81.170000000000002</ele>
        <time>2020-12-29T11:59:53Z</time>
      </trkpt>
      <trkpt lat="50.762235391885042" lon="4.438675213605166">
        <ele>78.75</ele>
        <time>2020-12-29T12:00:04Z</time>
      </trkpt>
      <trkpt lat="50.762081164866686" lon="4.438648307695985">
        <ele>76.989999999999995</ele>
        <time>2020-12-29T12:00:18Z</time>
      </trkpt>
      <trkpt lat="50.762030119076371" lon="4.438752327114344">
        <ele>76.099999999999994</ele>
        <time>2020-12-29T12:00:26Z</time>
      </trkpt>
      <trkpt lat="50.761965746060014" lon="4.43904334679246">
        <ele>73.540000000000006</ele>
        <time>2020-12-29T12:00:39Z</time>
      </trkpt>
      <trkpt lat="50.76189374551177" lon="4.439252894371748">
        <ele>71.989999999999995</ele>
        <time>2020-12-29T12:00:52Z</time>
      </trkpt>
      <trkpt lat="50.761815207079053" lon="4.4394885096699">
        <ele>72.040000000000006</ele>
        <time>2020-12-29T12:01:02Z</time>
      </trkpt>
      <trkpt lat="50.761794000864029" lon="4.439589092507958">
        <ele>72.030000000000001</ele>
        <time>2020-12-29T12:01:03Z</time>
      </trkpt>
      <trkpt lat="50.76170758344233" lon="4.439916908740997">
        <ele>74.329999999999998</ele>
        <time>2020-12-29T12:01:14Z</time>
      </trkpt>
      <trkpt lat="50.761677073314786" lon="4.440067866817117">
        <ele>75.409999999999997</ele>
        <time>2020-12-29T12:01:22Z</time>
      </trkpt>
      <trkpt lat="50.761662069708109" lon="4.440101813524962">
        <ele>75.409999999999997</ele>
        <time>2020-12-29T12:01:24Z</time>
      </trkpt>
      <trkpt lat="50.761565174907446" lon="4.440360814332962">
        <ele>76.209999999999994</ele>
        <time>2020-12-29T12:01:38Z</time>
      </trkpt>
      <trkpt lat="50.761461239308119" lon="4.440576899796724">
        <ele>73.840000000000003</ele>
        <time>2020-12-29T12:01:52Z</time>
      </trkpt>
      <trkpt lat="50.761406505480409" lon="4.440754763782024">
        <ele>73.189999999999998</ele>
        <time>2020-12-29T12:02:04Z</time>
      </trkpt>
      <trkpt lat="50.761452270671725" lon="4.440821064636111">
        <ele>73.230000000000004</ele>
        <time>2020-12-29T12:02:09Z</time>
      </trkpt>
      <trkpt lat="50.7614984549582" lon="4.440924497321248">
        <ele>73.269999999999996</ele>
        <time>2020-12-29T12:02:14Z</time>
      </trkpt>
      <trkpt lat="50.761511446908116" lon="4.440942602232099">
        <ele>73.269999999999996</ele>
        <time>2020-12-29T12:02:15Z</time>
      </trkpt>
      <trkpt lat="50.761650837957859" lon="4.441058691591024">
        <ele>73.349999999999994</ele>
        <time>2020-12-29T12:02:26Z</time>
      </trkpt>
      <trkpt lat="50.761782182380557" lon="4.441235801205039">
        <ele>73.420000000000002</ele>
        <time>2020-12-29T12:02:36Z</time>
      </trkpt>
      <trkpt lat="50.761798191815615" lon="4.441253487020731">
        <ele>73.430000000000007</ele>
        <time>2020-12-29T12:02:37Z</time>
      </trkpt>
      <trkpt lat="50.761810345575213" lon="4.441269244998694">
        <ele>73.439999999999998</ele>
        <time>2020-12-29T12:02:38Z</time>
      </trkpt>
      <trkpt lat="50.761824427172542" lon="4.441275112330914">
        <ele>73.450000000000003</ele>
        <time>2020-12-29T12:02:39Z</time>
      </trkpt>
      <trkpt lat="50.761961890384555" lon="4.441452221944928">
        <ele>73.560000000000002</ele>
        <time>2020-12-29T12:02:52Z</time>
      </trkpt>
      <trkpt lat="50.762039087712765" lon="4.441496478393674">
        <ele>73.640000000000001</ele>
        <time>2020-12-29T12:03:01Z</time>
      </trkpt>
      <trkpt lat="50.762052414938807" lon="4.441510057076812">
        <ele>73.659999999999997</ele>
        <time>2020-12-29T12:03:02Z</time>
      </trkpt>
      <trkpt lat="50.762221310287714" lon="4.441731674596667">
        <ele>73.769999999999996</ele>
        <time>2020-12-29T12:03:17Z</time>
      </trkpt>
      <trkpt lat="50.76230906881392" lon="4.441842902451754">
        <ele>73.810000000000002</ele>
        <time>2020-12-29T12:03:25Z</time>
      </trkpt>
      <trkpt lat="50.762456925585866" lon="4.442104501649737">
        <ele>73.879999999999995</ele>
        <time>2020-12-29T12:03:40Z</time>
      </trkpt>
      <trkpt lat="50.762543845921755" lon="4.442219249904156">
        <ele>73.909999999999997</ele>
        <time>2020-12-29T12:03:48Z</time>
      </trkpt>
      <trkpt lat="50.762555077672005" lon="4.44222972728312">
        <ele>73.909999999999997</ele>
        <time>2020-12-29T12:03:49Z</time>
      </trkpt>
      <trkpt lat="50.762571506202221" lon="4.442236768081784">
        <ele>73.920000000000002</ele>
        <time>2020-12-29T12:03:50Z</time>
      </trkpt>
      <trkpt lat="50.762582654133439" lon="4.442257722839713">
        <ele>73.920000000000002</ele>
        <time>2020-12-29T12:03:51Z</time>
      </trkpt>
      <trkpt lat="50.76260075904429" lon="4.442270044237375">
        <ele>73.930000000000007</ele>
        <time>2020-12-29T12:03:52Z</time>
      </trkpt>
      <trkpt lat="50.762731349095702" lon="4.442438017576933">
        <ele>73.969999999999999</ele>
        <time>2020-12-29T12:04:04Z</time>
      </trkpt>
      <trkpt lat="50.76287585310638" lon="4.442624095827341">
        <ele>74</ele>
        <time>2020-12-29T12:04:18Z</time>
      </trkpt>
      <trkpt lat="50.763039132580161" lon="4.442877816036344">
        <ele>73.969999999999999</ele>
        <time>2020-12-29T12:04:37Z</time>
      </trkpt>
      <trkpt lat="50.76310065574944" lon="4.442969597876072">
        <ele>73.939999999999998</ele>
        <time>2020-12-29T12:04:43Z</time>
      </trkpt>
      <trkpt lat="50.763250105082989" lon="4.44315173663199">
        <ele>73.900000000000006</ele>
        <time>2020-12-29T12:04:57Z</time>
      </trkpt>
      <trkpt lat="50.763384383171797" lon="4.443289870396256">
        <ele>73.870000000000005</ele>
        <time>2020-12-29T12:05:08Z</time>
      </trkpt>
      <trkpt lat="50.76350525021553" lon="4.443436386063695">
        <ele>73.819999999999993</ele>
        <time>2020-12-29T12:05:21Z</time>
      </trkpt>
      <trkpt lat="50.763682192191482" lon="4.443623134866357">
        <ele>73.730000000000004</ele>
        <time>2020-12-29T12:05:37Z</time>
      </trkpt>
      <trkpt lat="50.764215616509318" lon="4.444579258561134">
        <ele>72.659999999999997</ele>
        <time>2020-12-29T12:06:36Z</time>
      </trkpt>
      <trkpt lat="50.764321144670248" lon="4.444929622113705">
        <ele>72.670000000000002</ele>
        <time>2020-12-29T12:06:57Z</time>
      </trkpt>
      <trkpt lat="50.764400940388441" lon="4.445208990946412">
        <ele>72.689999999999998</ele>
        <time>2020-12-29T12:07:13Z</time>
      </trkpt>
      <trkpt lat="50.76447419822216" lon="4.445449383929372">
        <ele>72.670000000000002</ele>
        <time>2020-12-29T12:07:26Z</time>
      </trkpt>
      <trkpt lat="50.764573691412807" lon="4.445716431364417">
        <ele>72.620000000000005</ele>
        <time>2020-12-29T12:07:43Z</time>
      </trkpt>
      <trkpt lat="50.764667987823486" lon="4.445945927873254">
        <ele>71.760000000000005</ele>
        <time>2020-12-29T12:07:56Z</time>
      </trkpt>
      <trkpt lat="50.764680560678244" lon="4.445991441607475">
        <ele>71.75</ele>
        <time>2020-12-29T12:07:58Z</time>
      </trkpt>
      <trkpt lat="50.76470579020679" lon="4.44605765864253">
        <ele>71.739999999999995</ele>
        <time>2020-12-29T12:08:01Z</time>
      </trkpt>
      <trkpt lat="50.764786507934332" lon="4.446225129067898">
        <ele>70.849999999999994</ele>
        <time>2020-12-29T12:08:09Z</time>
      </trkpt>
      <trkpt lat="50.764888599514961" lon="4.446553196758032">
        <ele>70.010000000000005</ele>
        <time>2020-12-29T12:08:25Z</time>
      </trkpt>
      <trkpt lat="50.764979626983404" lon="4.446770288050175">
        <ele>69.969999999999999</ele>
        <time>2020-12-29T12:08:36Z</time>
      </trkpt>
      <trkpt lat="50.765070822089911" lon="4.447015039622784">
        <ele>69.069999999999993</ele>
        <time>2020-12-29T12:08:49Z</time>
      </trkpt>
      <trkpt lat="50.765113569796085" lon="4.447157196700573">
        <ele>68.230000000000004</ele>
        <time>2020-12-29T12:08:56Z</time>
      </trkpt>
      <trkpt lat="50.765142319723964" lon="4.447205560281873">
        <ele>68.219999999999999</ele>
        <time>2020-12-29T12:08:59Z</time>
      </trkpt>
      <trkpt lat="50.765260756015778" lon="4.447484258562326">
        <ele>67.269999999999996</ele>
        <time>2020-12-29T12:09:13Z</time>
      </trkpt>
      <trkpt lat="50.765311047434807" lon="4.447611914947629">
        <ele>66.540000000000006</ele>
        <time>2020-12-29T12:09:29Z</time>
      </trkpt>
      <trkpt lat="50.765420095995069" lon="4.447896061465144">
        <ele>66.579999999999998</ele>
        <time>2020-12-29T12:09:43Z</time>
      </trkpt>
      <trkpt lat="50.76554330997169" lon="4.448272828012705">
        <ele>65.969999999999999</ele>
        <time>2020-12-29T12:10:02Z</time>
      </trkpt>
      <trkpt lat="50.765629727393389" lon="4.448535349220038">
        <ele>65.280000000000001</ele>
        <time>2020-12-29T12:10:13Z</time>
      </trkpt>
      <trkpt lat="50.765670463442802" lon="4.448596201837063">
        <ele>65.329999999999998</ele>
        <time>2020-12-29T12:10:17Z</time>
      </trkpt>
      <trkpt lat="50.765691585838795" lon="4.448673231527209">
        <ele>65.349999999999994</ele>
        <time>2020-12-29T12:10:21Z</time>
      </trkpt>
      <trkpt lat="50.765724778175354" lon="4.4487773347646">
        <ele>64.489999999999995</ele>
        <time>2020-12-29T12:10:25Z</time>
      </trkpt>
      <trkpt lat="50.765844052657485" lon="4.449186287820339">
        <ele>62.969999999999999</ele>
        <time>2020-12-29T12:10:43Z</time>
      </trkpt>
      <trkpt lat="50.765970451757312" lon="4.449541596695781">
        <ele>60.770000000000003</ele>
        <time>2020-12-29T12:11:02Z</time>
      </trkpt>
      <trkpt lat="50.766215538606048" lon="4.449969157576561">
        <ele>61.009999999999998</ele>
        <time>2020-12-29T12:11:17Z</time>
      </trkpt>
      <trkpt lat="50.76622786000371" lon="4.449985837563872">
        <ele>61.090000000000003</ele>
        <time>2020-12-29T12:11:22Z</time>
      </trkpt>
      <trkpt lat="50.76631779782474" lon="4.449865054339171">
        <ele>63.509999999999998</ele>
        <time>2020-12-29T12:11:32Z</time>
      </trkpt>
      <trkpt lat="50.766378566622734" lon="4.449471859261394">
        <ele>64.549999999999997</ele>
        <time>2020-12-29T12:11:50Z</time>
      </trkpt>
      <trkpt lat="50.766499936580658" lon="4.448965759947896">
        <ele>65.719999999999999</ele>
        <time>2020-12-29T12:12:13Z</time>
      </trkpt>
      <trkpt lat="50.766625832766294" lon="4.448586395010352">
        <ele>65.989999999999995</ele>
        <time>2020-12-29T12:12:32Z</time>
      </trkpt>
      <trkpt lat="50.76663488522172" lon="4.448520932346582">
        <ele>66.159999999999997</ele>
        <time>2020-12-29T12:12:45Z</time>
      </trkpt>
      <trkpt lat="50.766669251024723" lon="4.448434598743916">
        <ele>66.420000000000002</ele>
        <time>2020-12-29T12:13:02Z</time>
      </trkpt>
      <trkpt lat="50.766696240752935" lon="4.448360837996006">
        <ele>66.579999999999998</ele>
        <time>2020-12-29T12:13:14Z</time>
      </trkpt>
      <trkpt lat="50.76668375171721" lon="4.448366118595004">
        <ele>66.859999999999999</ele>
        <time>2020-12-29T12:13:35Z</time>
      </trkpt>
      <trkpt lat="50.766675705090165" lon="4.448372321203351">
        <ele>67.159999999999997</ele>
        <time>2020-12-29T12:13:59Z</time>
      </trkpt>
      <trkpt lat="50.766674615442753" lon="4.448415152728558">
        <ele>67.310000000000002</ele>
        <time>2020-12-29T12:14:10Z</time>
      </trkpt>
      <trkpt lat="50.766665982082486" lon="4.448464186862111">
        <ele>67.519999999999996</ele>
        <time>2020-12-29T12:14:27Z</time>
      </trkpt>
      <trkpt lat="50.766656007617712" lon="4.448458151891828">
        <ele>-63.829999999999998</ele>
        <time>2020-12-29T12:14:45Z</time>
      </trkpt>
    </trkseg>
  </trk>

</gpx>